<?xml version="1.0" encoding="UTF-8" standalone="no" ?>
<gpx xmlns="http://www.topografix.com/GPX/1/1" xmlns:xsi="http://www.w3.org/2001/XMLSchema-instance" xsi:schemaLocation="http://www.topografix.com/GPX/1/1 http://www.topografix.com/GPX/1/1/gpx.xsd" version="1.1" creator="VisuGPX - https://www.visugpx.com">
  <metadata>
    <name>J5 Sainte Lucie de Tallano - Quenza</name>
  </metadata>
  <trk>
    <name><![CDATA[29-AVR-22 06:18:33 PM]]></name>
    <extensions>
      <line xmlns="http://www.topografix.com/GPX/gpx_style/0/2">
        <color>0000FF</color>
        <width>4</width>
      </line>
    </extensions>
    <trkseg>
      <trkpt lat="41.69764" lon="9.06389">
        <ele>442.34</ele>
        <time>2022-04-28T16:41:33Z</time>
      </trkpt>
      <trkpt lat="41.69766" lon="9.0639">
        <ele>442.82</ele>
        <time>2022-04-28T16:42:08Z</time>
      </trkpt>
      <trkpt lat="41.69767" lon="9.06392">
        <ele>442.34</ele>
        <time>2022-04-28T16:42:24Z</time>
      </trkpt>
      <trkpt lat="41.69767" lon="9.06391">
        <ele>443.79</ele>
        <time>2022-04-28T16:42:26Z</time>
      </trkpt>
      <trkpt lat="41.69767" lon="9.06391">
        <ele>420.23</ele>
        <time>2022-04-29T06:59:18Z</time>
      </trkpt>
      <trkpt lat="41.69819" lon="9.06399">
        <ele>420.23</ele>
        <time>2022-04-29T06:59:19Z</time>
      </trkpt>
      <trkpt lat="41.69813" lon="9.06405">
        <ele>421.19</ele>
        <time>2022-04-29T06:59:45Z</time>
      </trkpt>
      <trkpt lat="41.6981" lon="9.06408">
        <ele>453.4</ele>
        <time>2022-04-29T06:59:53Z</time>
      </trkpt>
      <trkpt lat="41.69811" lon="9.06408">
        <ele>453.4</ele>
        <time>2022-04-29T06:59:54Z</time>
      </trkpt>
      <trkpt lat="41.69812" lon="9.06407">
        <ele>451.96</ele>
        <time>2022-04-29T06:59:58Z</time>
      </trkpt>
      <trkpt lat="41.69811" lon="9.06407">
        <ele>451.48</ele>
        <time>2022-04-29T07:00:04Z</time>
      </trkpt>
      <trkpt lat="41.69767" lon="9.06391">
        <ele>452.44</ele>
        <time>2022-04-29T07:06:58Z</time>
      </trkpt>
      <trkpt lat="41.69772" lon="9.06385">
        <ele>455.8</ele>
        <time>2022-04-29T07:07:16Z</time>
      </trkpt>
      <trkpt lat="41.69772" lon="9.06385">
        <ele>456.28</ele>
        <time>2022-04-29T07:07:18Z</time>
      </trkpt>
      <trkpt lat="41.69772" lon="9.0639">
        <ele>458.21</ele>
        <time>2022-04-29T07:07:23Z</time>
      </trkpt>
      <trkpt lat="41.6977" lon="9.06391">
        <ele>459.17</ele>
        <time>2022-04-29T07:07:36Z</time>
      </trkpt>
      <trkpt lat="41.69769" lon="9.06389">
        <ele>459.65</ele>
        <time>2022-04-29T07:07:39Z</time>
      </trkpt>
      <trkpt lat="41.6977" lon="9.06381">
        <ele>460.13</ele>
        <time>2022-04-29T07:07:44Z</time>
      </trkpt>
      <trkpt lat="41.69769" lon="9.06376">
        <ele>461.09</ele>
        <time>2022-04-29T07:07:46Z</time>
      </trkpt>
      <trkpt lat="41.69758" lon="9.06361">
        <ele>460.61</ele>
        <time>2022-04-29T07:07:59Z</time>
      </trkpt>
      <trkpt lat="41.69759" lon="9.0636">
        <ele>460.13</ele>
        <time>2022-04-29T07:08:00Z</time>
      </trkpt>
      <trkpt lat="41.69759" lon="9.06358">
        <ele>459.65</ele>
        <time>2022-04-29T07:08:01Z</time>
      </trkpt>
      <trkpt lat="41.69759" lon="9.06357">
        <ele>459.17</ele>
        <time>2022-04-29T07:08:02Z</time>
      </trkpt>
      <trkpt lat="41.69761" lon="9.06345">
        <ele>459.17</ele>
        <time>2022-04-29T07:08:10Z</time>
      </trkpt>
      <trkpt lat="41.69763" lon="9.0633">
        <ele>457.24</ele>
        <time>2022-04-29T07:08:20Z</time>
      </trkpt>
      <trkpt lat="41.69761" lon="9.06307">
        <ele>454.84</ele>
        <time>2022-04-29T07:08:41Z</time>
      </trkpt>
      <trkpt lat="41.69738" lon="9.06329">
        <ele>454.36</ele>
        <time>2022-04-29T07:09:04Z</time>
      </trkpt>
      <trkpt lat="41.6972" lon="9.06265">
        <ele>454.36</ele>
        <time>2022-04-29T07:12:09Z</time>
      </trkpt>
      <trkpt lat="41.69748" lon="9.0628">
        <ele>453.88</ele>
        <time>2022-04-29T07:12:26Z</time>
      </trkpt>
      <trkpt lat="41.69761" lon="9.06284">
        <ele>453.88</ele>
        <time>2022-04-29T07:12:51Z</time>
      </trkpt>
      <trkpt lat="41.6977" lon="9.06303">
        <ele>454.36</ele>
        <time>2022-04-29T07:13:18Z</time>
      </trkpt>
      <trkpt lat="41.6977" lon="9.06308">
        <ele>457.24</ele>
        <time>2022-04-29T07:13:27Z</time>
      </trkpt>
      <trkpt lat="41.69771" lon="9.06309">
        <ele>459.17</ele>
        <time>2022-04-29T07:13:31Z</time>
      </trkpt>
      <trkpt lat="41.69773" lon="9.0631">
        <ele>462.05</ele>
        <time>2022-04-29T07:13:40Z</time>
      </trkpt>
      <trkpt lat="41.69775" lon="9.06306">
        <ele>462.05</ele>
        <time>2022-04-29T07:13:59Z</time>
      </trkpt>
      <trkpt lat="41.69766" lon="9.06304">
        <ele>462.53</ele>
        <time>2022-04-29T07:14:19Z</time>
      </trkpt>
      <trkpt lat="41.69763" lon="9.06312">
        <ele>462.53</ele>
        <time>2022-04-29T07:14:39Z</time>
      </trkpt>
      <trkpt lat="41.69758" lon="9.06317">
        <ele>463.49</ele>
        <time>2022-04-29T07:14:58Z</time>
      </trkpt>
      <trkpt lat="41.69762" lon="9.06335">
        <ele>464.45</ele>
        <time>2022-04-29T07:15:13Z</time>
      </trkpt>
      <trkpt lat="41.69761" lon="9.06337">
        <ele>464.45</ele>
        <time>2022-04-29T07:15:31Z</time>
      </trkpt>
      <trkpt lat="41.6976" lon="9.06353">
        <ele>464.45</ele>
        <time>2022-04-29T07:15:51Z</time>
      </trkpt>
      <trkpt lat="41.69757" lon="9.06377">
        <ele>465.42</ele>
        <time>2022-04-29T07:16:08Z</time>
      </trkpt>
      <trkpt lat="41.69759" lon="9.06381">
        <ele>465.9</ele>
        <time>2022-04-29T07:16:15Z</time>
      </trkpt>
      <trkpt lat="41.69759" lon="9.06383">
        <ele>465.9</ele>
        <time>2022-04-29T07:16:28Z</time>
      </trkpt>
      <trkpt lat="41.69764" lon="9.06388">
        <ele>465.9</ele>
        <time>2022-04-29T07:16:44Z</time>
      </trkpt>
      <trkpt lat="41.69773" lon="9.06404">
        <ele>467.34</ele>
        <time>2022-04-29T07:16:59Z</time>
      </trkpt>
      <trkpt lat="41.69768" lon="9.06415">
        <ele>467.34</ele>
        <time>2022-04-29T07:17:14Z</time>
      </trkpt>
      <trkpt lat="41.69763" lon="9.06445">
        <ele>468.78</ele>
        <time>2022-04-29T07:17:34Z</time>
      </trkpt>
      <trkpt lat="41.69763" lon="9.06446">
        <ele>468.78</ele>
        <time>2022-04-29T07:17:35Z</time>
      </trkpt>
      <trkpt lat="41.69761" lon="9.06448">
        <ele>468.78</ele>
        <time>2022-04-29T07:17:37Z</time>
      </trkpt>
      <trkpt lat="41.69759" lon="9.06459">
        <ele>470.7</ele>
        <time>2022-04-29T07:17:50Z</time>
      </trkpt>
      <trkpt lat="41.6976" lon="9.06469">
        <ele>472.14</ele>
        <time>2022-04-29T07:18:03Z</time>
      </trkpt>
      <trkpt lat="41.6975" lon="9.0648">
        <ele>474.55</ele>
        <time>2022-04-29T07:18:16Z</time>
      </trkpt>
      <trkpt lat="41.69753" lon="9.06505">
        <ele>477.43</ele>
        <time>2022-04-29T07:18:32Z</time>
      </trkpt>
      <trkpt lat="41.69759" lon="9.06526">
        <ele>479.35</ele>
        <time>2022-04-29T07:18:50Z</time>
      </trkpt>
      <trkpt lat="41.69759" lon="9.0652">
        <ele>481.76</ele>
        <time>2022-04-29T07:19:01Z</time>
      </trkpt>
      <trkpt lat="41.69765" lon="9.06519">
        <ele>484.16</ele>
        <time>2022-04-29T07:19:15Z</time>
      </trkpt>
      <trkpt lat="41.6977" lon="9.06519">
        <ele>487.53</ele>
        <time>2022-04-29T07:19:30Z</time>
      </trkpt>
      <trkpt lat="41.69769" lon="9.0653">
        <ele>490.41</ele>
        <time>2022-04-29T07:19:45Z</time>
      </trkpt>
      <trkpt lat="41.69767" lon="9.0654">
        <ele>493.29</ele>
        <time>2022-04-29T07:20:04Z</time>
      </trkpt>
      <trkpt lat="41.69773" lon="9.06536">
        <ele>494.26</ele>
        <time>2022-04-29T07:20:17Z</time>
      </trkpt>
      <trkpt lat="41.69781" lon="9.06539">
        <ele>497.14</ele>
        <time>2022-04-29T07:20:31Z</time>
      </trkpt>
      <trkpt lat="41.69782" lon="9.0655">
        <ele>499.54</ele>
        <time>2022-04-29T07:20:48Z</time>
      </trkpt>
      <trkpt lat="41.69786" lon="9.06556">
        <ele>502.43</ele>
        <time>2022-04-29T07:21:10Z</time>
      </trkpt>
      <trkpt lat="41.69791" lon="9.0656">
        <ele>505.79</ele>
        <time>2022-04-29T07:21:28Z</time>
      </trkpt>
      <trkpt lat="41.69801" lon="9.06564">
        <ele>508.19</ele>
        <time>2022-04-29T07:21:46Z</time>
      </trkpt>
      <trkpt lat="41.69807" lon="9.06567">
        <ele>510.6</ele>
        <time>2022-04-29T07:22:04Z</time>
      </trkpt>
      <trkpt lat="41.69815" lon="9.0657">
        <ele>512.04</ele>
        <time>2022-04-29T07:22:22Z</time>
      </trkpt>
      <trkpt lat="41.69828" lon="9.06573">
        <ele>513</ele>
        <time>2022-04-29T07:22:39Z</time>
      </trkpt>
      <trkpt lat="41.6983" lon="9.06573">
        <ele>513</ele>
        <time>2022-04-29T07:22:40Z</time>
      </trkpt>
      <trkpt lat="41.69842" lon="9.06576">
        <ele>513.48</ele>
        <time>2022-04-29T07:22:50Z</time>
      </trkpt>
      <trkpt lat="41.69844" lon="9.06575">
        <ele>513.48</ele>
        <time>2022-04-29T07:23:03Z</time>
      </trkpt>
      <trkpt lat="41.69851" lon="9.06575">
        <ele>513.48</ele>
        <time>2022-04-29T07:23:23Z</time>
      </trkpt>
      <trkpt lat="41.69864" lon="9.06565">
        <ele>514.44</ele>
        <time>2022-04-29T07:23:40Z</time>
      </trkpt>
      <trkpt lat="41.69859" lon="9.06566">
        <ele>514.44</ele>
        <time>2022-04-29T07:24:02Z</time>
      </trkpt>
      <trkpt lat="41.69862" lon="9.06564">
        <ele>514.44</ele>
        <time>2022-04-29T07:24:22Z</time>
      </trkpt>
      <trkpt lat="41.69871" lon="9.06562">
        <ele>514.92</ele>
        <time>2022-04-29T07:24:30Z</time>
      </trkpt>
      <trkpt lat="41.69887" lon="9.06556">
        <ele>515.4</ele>
        <time>2022-04-29T07:24:47Z</time>
      </trkpt>
      <trkpt lat="41.69892" lon="9.06554">
        <ele>514.92</ele>
        <time>2022-04-29T07:24:52Z</time>
      </trkpt>
      <trkpt lat="41.69905" lon="9.0655">
        <ele>517.33</ele>
        <time>2022-04-29T07:25:07Z</time>
      </trkpt>
      <trkpt lat="41.69916" lon="9.0655">
        <ele>518.29</ele>
        <time>2022-04-29T07:25:20Z</time>
      </trkpt>
      <trkpt lat="41.69928" lon="9.06551">
        <ele>520.21</ele>
        <time>2022-04-29T07:25:35Z</time>
      </trkpt>
      <trkpt lat="41.6993" lon="9.06549">
        <ele>519.73</ele>
        <time>2022-04-29T07:25:50Z</time>
      </trkpt>
      <trkpt lat="41.69934" lon="9.06549">
        <ele>521.17</ele>
        <time>2022-04-29T07:26:16Z</time>
      </trkpt>
      <trkpt lat="41.69943" lon="9.06555">
        <ele>522.61</ele>
        <time>2022-04-29T07:26:32Z</time>
      </trkpt>
      <trkpt lat="41.69956" lon="9.06563">
        <ele>524.06</ele>
        <time>2022-04-29T07:26:51Z</time>
      </trkpt>
      <trkpt lat="41.69963" lon="9.06565">
        <ele>525.98</ele>
        <time>2022-04-29T07:27:06Z</time>
      </trkpt>
      <trkpt lat="41.69965" lon="9.06574">
        <ele>527.9</ele>
        <time>2022-04-29T07:27:24Z</time>
      </trkpt>
      <trkpt lat="41.69963" lon="9.06581">
        <ele>530.79</ele>
        <time>2022-04-29T07:27:41Z</time>
      </trkpt>
      <trkpt lat="41.69959" lon="9.06589">
        <ele>534.15</ele>
        <time>2022-04-29T07:27:57Z</time>
      </trkpt>
      <trkpt lat="41.69957" lon="9.06605">
        <ele>537.03</ele>
        <time>2022-04-29T07:28:15Z</time>
      </trkpt>
      <trkpt lat="41.69953" lon="9.06611">
        <ele>537.03</ele>
        <time>2022-04-29T07:28:42Z</time>
      </trkpt>
      <trkpt lat="41.6995" lon="9.0662">
        <ele>539.44</ele>
        <time>2022-04-29T07:28:55Z</time>
      </trkpt>
      <trkpt lat="41.69942" lon="9.06635">
        <ele>541.84</ele>
        <time>2022-04-29T07:29:12Z</time>
      </trkpt>
      <trkpt lat="41.6994" lon="9.06631">
        <ele>541.36</ele>
        <time>2022-04-29T07:29:27Z</time>
      </trkpt>
      <trkpt lat="41.69939" lon="9.06639">
        <ele>540.88</ele>
        <time>2022-04-29T07:29:43Z</time>
      </trkpt>
      <trkpt lat="41.69948" lon="9.06661">
        <ele>541.84</ele>
        <time>2022-04-29T07:30:00Z</time>
      </trkpt>
      <trkpt lat="41.69958" lon="9.06669">
        <ele>542.8</ele>
        <time>2022-04-29T07:30:20Z</time>
      </trkpt>
      <trkpt lat="41.69969" lon="9.0668">
        <ele>543.28</ele>
        <time>2022-04-29T07:30:38Z</time>
      </trkpt>
      <trkpt lat="41.69969" lon="9.06693">
        <ele>543.76</ele>
        <time>2022-04-29T07:30:53Z</time>
      </trkpt>
      <trkpt lat="41.69962" lon="9.06709">
        <ele>545.2</ele>
        <time>2022-04-29T07:31:08Z</time>
      </trkpt>
      <trkpt lat="41.6996" lon="9.06723">
        <ele>548.57</ele>
        <time>2022-04-29T07:31:22Z</time>
      </trkpt>
      <trkpt lat="41.69959" lon="9.06731">
        <ele>549.53</ele>
        <time>2022-04-29T07:31:36Z</time>
      </trkpt>
      <trkpt lat="41.69957" lon="9.0673">
        <ele>550.01</ele>
        <time>2022-04-29T07:31:40Z</time>
      </trkpt>
      <trkpt lat="41.69946" lon="9.06734">
        <ele>550.49</ele>
        <time>2022-04-29T07:31:53Z</time>
      </trkpt>
      <trkpt lat="41.69931" lon="9.06735">
        <ele>551.45</ele>
        <time>2022-04-29T07:32:08Z</time>
      </trkpt>
      <trkpt lat="41.69915" lon="9.06734">
        <ele>552.41</ele>
        <time>2022-04-29T07:32:24Z</time>
      </trkpt>
      <trkpt lat="41.69908" lon="9.06736">
        <ele>552.41</ele>
        <time>2022-04-29T07:32:37Z</time>
      </trkpt>
      <trkpt lat="41.69921" lon="9.0673">
        <ele>551.93</ele>
        <time>2022-04-29T07:32:55Z</time>
      </trkpt>
      <trkpt lat="41.69921" lon="9.06732">
        <ele>551.93</ele>
        <time>2022-04-29T07:33:09Z</time>
      </trkpt>
      <trkpt lat="41.69916" lon="9.06733">
        <ele>551.93</ele>
        <time>2022-04-29T07:33:14Z</time>
      </trkpt>
      <trkpt lat="41.69922" lon="9.06736">
        <ele>553.86</ele>
        <time>2022-04-29T07:33:26Z</time>
      </trkpt>
      <trkpt lat="41.69924" lon="9.06746">
        <ele>556.74</ele>
        <time>2022-04-29T07:33:41Z</time>
      </trkpt>
      <trkpt lat="41.6992" lon="9.06753">
        <ele>559.62</ele>
        <time>2022-04-29T07:33:57Z</time>
      </trkpt>
      <trkpt lat="41.69915" lon="9.06754">
        <ele>561.55</ele>
        <time>2022-04-29T07:34:05Z</time>
      </trkpt>
      <trkpt lat="41.69919" lon="9.06775">
        <ele>563.47</ele>
        <time>2022-04-29T07:34:21Z</time>
      </trkpt>
      <trkpt lat="41.69922" lon="9.0678">
        <ele>563.95</ele>
        <time>2022-04-29T07:34:43Z</time>
      </trkpt>
      <trkpt lat="41.69926" lon="9.06784">
        <ele>564.43</ele>
        <time>2022-04-29T07:35:00Z</time>
      </trkpt>
      <trkpt lat="41.69935" lon="9.0679">
        <ele>565.87</ele>
        <time>2022-04-29T07:35:17Z</time>
      </trkpt>
      <trkpt lat="41.69935" lon="9.06794">
        <ele>566.35</ele>
        <time>2022-04-29T07:35:35Z</time>
      </trkpt>
      <trkpt lat="41.6994" lon="9.06801">
        <ele>568.28</ele>
        <time>2022-04-29T07:35:50Z</time>
      </trkpt>
      <trkpt lat="41.69944" lon="9.0681">
        <ele>569.24</ele>
        <time>2022-04-29T07:36:03Z</time>
      </trkpt>
      <trkpt lat="41.69947" lon="9.06814">
        <ele>570.2</ele>
        <time>2022-04-29T07:36:07Z</time>
      </trkpt>
      <trkpt lat="41.6996" lon="9.06828">
        <ele>571.64</ele>
        <time>2022-04-29T07:36:23Z</time>
      </trkpt>
      <trkpt lat="41.69978" lon="9.06835">
        <ele>571.64</ele>
        <time>2022-04-29T07:36:36Z</time>
      </trkpt>
      <trkpt lat="41.6999" lon="9.06848">
        <ele>572.12</ele>
        <time>2022-04-29T07:36:50Z</time>
      </trkpt>
      <trkpt lat="41.70002" lon="9.06856">
        <ele>570.68</ele>
        <time>2022-04-29T07:37:09Z</time>
      </trkpt>
      <trkpt lat="41.70001" lon="9.06861">
        <ele>570.68</ele>
        <time>2022-04-29T07:37:38Z</time>
      </trkpt>
      <trkpt lat="41.70009" lon="9.06868">
        <ele>571.16</ele>
        <time>2022-04-29T07:37:52Z</time>
      </trkpt>
      <trkpt lat="41.70018" lon="9.06879">
        <ele>573.08</ele>
        <time>2022-04-29T07:38:08Z</time>
      </trkpt>
      <trkpt lat="41.70022" lon="9.06889">
        <ele>573.56</ele>
        <time>2022-04-29T07:38:21Z</time>
      </trkpt>
      <trkpt lat="41.70033" lon="9.06907">
        <ele>575.01</ele>
        <time>2022-04-29T07:38:40Z</time>
      </trkpt>
      <trkpt lat="41.70041" lon="9.06921">
        <ele>576.93</ele>
        <time>2022-04-29T07:38:57Z</time>
      </trkpt>
      <trkpt lat="41.70053" lon="9.06935">
        <ele>578.37</ele>
        <time>2022-04-29T07:39:11Z</time>
      </trkpt>
      <trkpt lat="41.70061" lon="9.06944">
        <ele>581.25</ele>
        <time>2022-04-29T07:39:26Z</time>
      </trkpt>
      <trkpt lat="41.70069" lon="9.0696">
        <ele>582.7</ele>
        <time>2022-04-29T07:39:43Z</time>
      </trkpt>
      <trkpt lat="41.70074" lon="9.06973">
        <ele>584.62</ele>
        <time>2022-04-29T07:40:01Z</time>
      </trkpt>
      <trkpt lat="41.70088" lon="9.06983">
        <ele>587.98</ele>
        <time>2022-04-29T07:40:19Z</time>
      </trkpt>
      <trkpt lat="41.70098" lon="9.0699">
        <ele>589.43</ele>
        <time>2022-04-29T07:40:39Z</time>
      </trkpt>
      <trkpt lat="41.7011" lon="9.06996">
        <ele>591.35</ele>
        <time>2022-04-29T07:41:00Z</time>
      </trkpt>
      <trkpt lat="41.70122" lon="9.07005">
        <ele>593.27</ele>
        <time>2022-04-29T07:41:20Z</time>
      </trkpt>
      <trkpt lat="41.70124" lon="9.07006">
        <ele>594.23</ele>
        <time>2022-04-29T07:41:24Z</time>
      </trkpt>
      <trkpt lat="41.70133" lon="9.07013">
        <ele>595.67</ele>
        <time>2022-04-29T07:41:40Z</time>
      </trkpt>
      <trkpt lat="41.70146" lon="9.07017">
        <ele>598.56</ele>
        <time>2022-04-29T07:42:01Z</time>
      </trkpt>
      <trkpt lat="41.70163" lon="9.0702">
        <ele>600.48</ele>
        <time>2022-04-29T07:42:21Z</time>
      </trkpt>
      <trkpt lat="41.70175" lon="9.07017">
        <ele>602.88</ele>
        <time>2022-04-29T07:42:38Z</time>
      </trkpt>
      <trkpt lat="41.70189" lon="9.07007">
        <ele>603.85</ele>
        <time>2022-04-29T07:42:58Z</time>
      </trkpt>
      <trkpt lat="41.70201" lon="9.06993">
        <ele>606.25</ele>
        <time>2022-04-29T07:43:17Z</time>
      </trkpt>
      <trkpt lat="41.70215" lon="9.06988">
        <ele>607.69</ele>
        <time>2022-04-29T07:43:33Z</time>
      </trkpt>
      <trkpt lat="41.70235" lon="9.06989">
        <ele>606.25</ele>
        <time>2022-04-29T07:43:52Z</time>
      </trkpt>
      <trkpt lat="41.7025" lon="9.0699">
        <ele>606.25</ele>
        <time>2022-04-29T07:44:08Z</time>
      </trkpt>
      <trkpt lat="41.70267" lon="9.06997">
        <ele>603.85</ele>
        <time>2022-04-29T07:44:27Z</time>
      </trkpt>
      <trkpt lat="41.70285" lon="9.07009">
        <ele>602.88</ele>
        <time>2022-04-29T07:44:47Z</time>
      </trkpt>
      <trkpt lat="41.70301" lon="9.07025">
        <ele>601.92</ele>
        <time>2022-04-29T07:45:05Z</time>
      </trkpt>
      <trkpt lat="41.70309" lon="9.07032">
        <ele>601.92</ele>
        <time>2022-04-29T07:45:14Z</time>
      </trkpt>
      <trkpt lat="41.70317" lon="9.07047">
        <ele>600.96</ele>
        <time>2022-04-29T07:45:31Z</time>
      </trkpt>
      <trkpt lat="41.7033" lon="9.07064">
        <ele>599.04</ele>
        <time>2022-04-29T07:45:47Z</time>
      </trkpt>
      <trkpt lat="41.70339" lon="9.07077">
        <ele>597.12</ele>
        <time>2022-04-29T07:46:04Z</time>
      </trkpt>
      <trkpt lat="41.70349" lon="9.07077">
        <ele>597.6</ele>
        <time>2022-04-29T07:46:18Z</time>
      </trkpt>
      <trkpt lat="41.70368" lon="9.07078">
        <ele>599.04</ele>
        <time>2022-04-29T07:46:33Z</time>
      </trkpt>
      <trkpt lat="41.70386" lon="9.07071">
        <ele>601.92</ele>
        <time>2022-04-29T07:46:50Z</time>
      </trkpt>
      <trkpt lat="41.70394" lon="9.07069">
        <ele>605.29</ele>
        <time>2022-04-29T07:47:06Z</time>
      </trkpt>
      <trkpt lat="41.70402" lon="9.07071">
        <ele>607.69</ele>
        <time>2022-04-29T07:47:23Z</time>
      </trkpt>
      <trkpt lat="41.70411" lon="9.07068">
        <ele>610.57</ele>
        <time>2022-04-29T07:47:40Z</time>
      </trkpt>
      <trkpt lat="41.70419" lon="9.07063">
        <ele>612.98</ele>
        <time>2022-04-29T07:47:59Z</time>
      </trkpt>
      <trkpt lat="41.70424" lon="9.0706">
        <ele>615.86</ele>
        <time>2022-04-29T07:48:16Z</time>
      </trkpt>
      <trkpt lat="41.70431" lon="9.07061">
        <ele>617.78</ele>
        <time>2022-04-29T07:48:31Z</time>
      </trkpt>
      <trkpt lat="41.70438" lon="9.07056">
        <ele>621.15</ele>
        <time>2022-04-29T07:48:43Z</time>
      </trkpt>
      <trkpt lat="41.70451" lon="9.07046">
        <ele>622.11</ele>
        <time>2022-04-29T07:49:00Z</time>
      </trkpt>
      <trkpt lat="41.7046" lon="9.07047">
        <ele>623.07</ele>
        <time>2022-04-29T07:49:15Z</time>
      </trkpt>
      <trkpt lat="41.70465" lon="9.07043">
        <ele>623.55</ele>
        <time>2022-04-29T07:49:44Z</time>
      </trkpt>
      <trkpt lat="41.70464" lon="9.07037">
        <ele>623.07</ele>
        <time>2022-04-29T07:50:03Z</time>
      </trkpt>
      <trkpt lat="41.70466" lon="9.07038">
        <ele>623.55</ele>
        <time>2022-04-29T07:50:30Z</time>
      </trkpt>
      <trkpt lat="41.70476" lon="9.0704">
        <ele>624.03</ele>
        <time>2022-04-29T07:50:48Z</time>
      </trkpt>
      <trkpt lat="41.7049" lon="9.07039">
        <ele>625.96</ele>
        <time>2022-04-29T07:51:04Z</time>
      </trkpt>
      <trkpt lat="41.70507" lon="9.07035">
        <ele>629.8</ele>
        <time>2022-04-29T07:51:20Z</time>
      </trkpt>
      <trkpt lat="41.70508" lon="9.07034">
        <ele>627.88</ele>
        <time>2022-04-29T07:51:22Z</time>
      </trkpt>
      <trkpt lat="41.7052" lon="9.07031">
        <ele>628.36</ele>
        <time>2022-04-29T07:51:35Z</time>
      </trkpt>
      <trkpt lat="41.70527" lon="9.07025">
        <ele>628.84</ele>
        <time>2022-04-29T07:51:46Z</time>
      </trkpt>
      <trkpt lat="41.70533" lon="9.0702">
        <ele>629.32</ele>
        <time>2022-04-29T07:52:00Z</time>
      </trkpt>
      <trkpt lat="41.70543" lon="9.07025">
        <ele>630.28</ele>
        <time>2022-04-29T07:52:14Z</time>
      </trkpt>
      <trkpt lat="41.70549" lon="9.07035">
        <ele>630.28</ele>
        <time>2022-04-29T07:52:31Z</time>
      </trkpt>
      <trkpt lat="41.70558" lon="9.07042">
        <ele>630.28</ele>
        <time>2022-04-29T07:52:45Z</time>
      </trkpt>
      <trkpt lat="41.70563" lon="9.07049">
        <ele>630.76</ele>
        <time>2022-04-29T07:53:06Z</time>
      </trkpt>
      <trkpt lat="41.70568" lon="9.07054">
        <ele>631.24</ele>
        <time>2022-04-29T07:53:21Z</time>
      </trkpt>
      <trkpt lat="41.70572" lon="9.07059">
        <ele>631.72</ele>
        <time>2022-04-29T07:53:37Z</time>
      </trkpt>
      <trkpt lat="41.7058" lon="9.07066">
        <ele>632.2</ele>
        <time>2022-04-29T07:53:51Z</time>
      </trkpt>
      <trkpt lat="41.70587" lon="9.07077">
        <ele>632.68</ele>
        <time>2022-04-29T07:54:07Z</time>
      </trkpt>
      <trkpt lat="41.70604" lon="9.07093">
        <ele>633.65</ele>
        <time>2022-04-29T07:54:27Z</time>
      </trkpt>
      <trkpt lat="41.70613" lon="9.07097">
        <ele>634.61</ele>
        <time>2022-04-29T07:54:35Z</time>
      </trkpt>
      <trkpt lat="41.70622" lon="9.07099">
        <ele>636.05</ele>
        <time>2022-04-29T07:54:52Z</time>
      </trkpt>
      <trkpt lat="41.70628" lon="9.07105">
        <ele>636.05</ele>
        <time>2022-04-29T07:55:11Z</time>
      </trkpt>
      <trkpt lat="41.7063" lon="9.07111">
        <ele>636.05</ele>
        <time>2022-04-29T07:55:29Z</time>
      </trkpt>
      <trkpt lat="41.7064" lon="9.07112">
        <ele>637.49</ele>
        <time>2022-04-29T07:55:48Z</time>
      </trkpt>
      <trkpt lat="41.70656" lon="9.07123">
        <ele>638.93</ele>
        <time>2022-04-29T07:56:05Z</time>
      </trkpt>
      <trkpt lat="41.70664" lon="9.07124">
        <ele>639.41</ele>
        <time>2022-04-29T07:56:19Z</time>
      </trkpt>
      <trkpt lat="41.70668" lon="9.07132">
        <ele>639.89</ele>
        <time>2022-04-29T07:56:35Z</time>
      </trkpt>
      <trkpt lat="41.70678" lon="9.07148">
        <ele>640.38</ele>
        <time>2022-04-29T07:56:51Z</time>
      </trkpt>
      <trkpt lat="41.70678" lon="9.07146">
        <ele>641.34</ele>
        <time>2022-04-29T07:57:10Z</time>
      </trkpt>
      <trkpt lat="41.70686" lon="9.07157">
        <ele>637.97</ele>
        <time>2022-04-29T07:57:23Z</time>
      </trkpt>
      <trkpt lat="41.70686" lon="9.07158">
        <ele>637.97</ele>
        <time>2022-04-29T07:57:24Z</time>
      </trkpt>
      <trkpt lat="41.70698" lon="9.07159">
        <ele>634.61</ele>
        <time>2022-04-29T07:57:38Z</time>
      </trkpt>
      <trkpt lat="41.70706" lon="9.0717">
        <ele>631.72</ele>
        <time>2022-04-29T07:57:52Z</time>
      </trkpt>
      <trkpt lat="41.70717" lon="9.07184">
        <ele>630.76</ele>
        <time>2022-04-29T07:58:10Z</time>
      </trkpt>
      <trkpt lat="41.7072" lon="9.07185">
        <ele>630.28</ele>
        <time>2022-04-29T07:58:27Z</time>
      </trkpt>
      <trkpt lat="41.70728" lon="9.07178">
        <ele>628.84</ele>
        <time>2022-04-29T07:58:46Z</time>
      </trkpt>
      <trkpt lat="41.70721" lon="9.07169">
        <ele>627.4</ele>
        <time>2022-04-29T07:59:02Z</time>
      </trkpt>
      <trkpt lat="41.70715" lon="9.07153">
        <ele>625.96</ele>
        <time>2022-04-29T07:59:17Z</time>
      </trkpt>
      <trkpt lat="41.70718" lon="9.07134">
        <ele>623.55</ele>
        <time>2022-04-29T07:59:32Z</time>
      </trkpt>
      <trkpt lat="41.70716" lon="9.07117">
        <ele>619.71</ele>
        <time>2022-04-29T07:59:48Z</time>
      </trkpt>
      <trkpt lat="41.70709" lon="9.07096">
        <ele>617.78</ele>
        <time>2022-04-29T08:00:05Z</time>
      </trkpt>
      <trkpt lat="41.7071" lon="9.07078">
        <ele>616.82</ele>
        <time>2022-04-29T08:00:17Z</time>
      </trkpt>
      <trkpt lat="41.70725" lon="9.07067">
        <ele>617.3</ele>
        <time>2022-04-29T08:00:32Z</time>
      </trkpt>
      <trkpt lat="41.70731" lon="9.07063">
        <ele>617.3</ele>
        <time>2022-04-29T08:00:42Z</time>
      </trkpt>
      <trkpt lat="41.70749" lon="9.07054">
        <ele>618.26</ele>
        <time>2022-04-29T08:00:58Z</time>
      </trkpt>
      <trkpt lat="41.70761" lon="9.07043">
        <ele>618.75</ele>
        <time>2022-04-29T08:01:13Z</time>
      </trkpt>
      <trkpt lat="41.70768" lon="9.07039">
        <ele>618.75</ele>
        <time>2022-04-29T08:01:29Z</time>
      </trkpt>
      <trkpt lat="41.70789" lon="9.07026">
        <ele>619.71</ele>
        <time>2022-04-29T08:01:48Z</time>
      </trkpt>
      <trkpt lat="41.70799" lon="9.07018">
        <ele>620.19</ele>
        <time>2022-04-29T08:02:02Z</time>
      </trkpt>
      <trkpt lat="41.70805" lon="9.07018">
        <ele>620.67</ele>
        <time>2022-04-29T08:02:17Z</time>
      </trkpt>
      <trkpt lat="41.70815" lon="9.07009">
        <ele>620.67</ele>
        <time>2022-04-29T08:02:31Z</time>
      </trkpt>
      <trkpt lat="41.7083" lon="9.06999">
        <ele>622.11</ele>
        <time>2022-04-29T08:02:46Z</time>
      </trkpt>
      <trkpt lat="41.70831" lon="9.06999">
        <ele>622.11</ele>
        <time>2022-04-29T08:03:03Z</time>
      </trkpt>
      <trkpt lat="41.70831" lon="9.06996">
        <ele>622.11</ele>
        <time>2022-04-29T08:03:32Z</time>
      </trkpt>
      <trkpt lat="41.70844" lon="9.06984">
        <ele>622.11</ele>
        <time>2022-04-29T08:03:45Z</time>
      </trkpt>
      <trkpt lat="41.70856" lon="9.0697">
        <ele>623.07</ele>
        <time>2022-04-29T08:03:58Z</time>
      </trkpt>
      <trkpt lat="41.70874" lon="9.06957">
        <ele>624.51</ele>
        <time>2022-04-29T08:04:16Z</time>
      </trkpt>
      <trkpt lat="41.70885" lon="9.06951">
        <ele>624.51</ele>
        <time>2022-04-29T08:04:27Z</time>
      </trkpt>
      <trkpt lat="41.70892" lon="9.06944">
        <ele>625.96</ele>
        <time>2022-04-29T08:04:34Z</time>
      </trkpt>
      <trkpt lat="41.70895" lon="9.0694">
        <ele>625.96</ele>
        <time>2022-04-29T08:04:37Z</time>
      </trkpt>
      <trkpt lat="41.70903" lon="9.06938">
        <ele>626.44</ele>
        <time>2022-04-29T08:04:44Z</time>
      </trkpt>
      <trkpt lat="41.70909" lon="9.06938">
        <ele>626.44</ele>
        <time>2022-04-29T08:04:49Z</time>
      </trkpt>
      <trkpt lat="41.70918" lon="9.06936">
        <ele>627.4</ele>
        <time>2022-04-29T08:04:57Z</time>
      </trkpt>
      <trkpt lat="41.70934" lon="9.06937">
        <ele>626.92</ele>
        <time>2022-04-29T08:05:13Z</time>
      </trkpt>
      <trkpt lat="41.70942" lon="9.06938">
        <ele>626.92</ele>
        <time>2022-04-29T08:05:20Z</time>
      </trkpt>
      <trkpt lat="41.70966" lon="9.06938">
        <ele>627.4</ele>
        <time>2022-04-29T08:05:40Z</time>
      </trkpt>
      <trkpt lat="41.70985" lon="9.06937">
        <ele>627.88</ele>
        <time>2022-04-29T08:05:56Z</time>
      </trkpt>
      <trkpt lat="41.70993" lon="9.06937">
        <ele>628.36</ele>
        <time>2022-04-29T08:06:04Z</time>
      </trkpt>
      <trkpt lat="41.71" lon="9.06939">
        <ele>627.88</ele>
        <time>2022-04-29T08:06:10Z</time>
      </trkpt>
      <trkpt lat="41.71021" lon="9.06941">
        <ele>627.88</ele>
        <time>2022-04-29T08:06:27Z</time>
      </trkpt>
      <trkpt lat="41.7104" lon="9.06946">
        <ele>627.88</ele>
        <time>2022-04-29T08:06:43Z</time>
      </trkpt>
      <trkpt lat="41.71049" lon="9.06943">
        <ele>628.36</ele>
        <time>2022-04-29T08:06:58Z</time>
      </trkpt>
      <trkpt lat="41.71061" lon="9.06949">
        <ele>628.36</ele>
        <time>2022-04-29T08:07:12Z</time>
      </trkpt>
      <trkpt lat="41.71077" lon="9.06956">
        <ele>627.88</ele>
        <time>2022-04-29T08:07:26Z</time>
      </trkpt>
      <trkpt lat="41.71088" lon="9.06954">
        <ele>627.88</ele>
        <time>2022-04-29T08:07:41Z</time>
      </trkpt>
      <trkpt lat="41.71093" lon="9.06959">
        <ele>628.36</ele>
        <time>2022-04-29T08:07:56Z</time>
      </trkpt>
      <trkpt lat="41.71101" lon="9.06965">
        <ele>628.36</ele>
        <time>2022-04-29T08:08:12Z</time>
      </trkpt>
      <trkpt lat="41.711" lon="9.06975">
        <ele>628.36</ele>
        <time>2022-04-29T08:08:34Z</time>
      </trkpt>
      <trkpt lat="41.7111" lon="9.06979">
        <ele>627.88</ele>
        <time>2022-04-29T08:08:56Z</time>
      </trkpt>
      <trkpt lat="41.71131" lon="9.06986">
        <ele>627.88</ele>
        <time>2022-04-29T08:09:16Z</time>
      </trkpt>
      <trkpt lat="41.71147" lon="9.07">
        <ele>626.92</ele>
        <time>2022-04-29T08:09:35Z</time>
      </trkpt>
      <trkpt lat="41.71152" lon="9.06998">
        <ele>627.4</ele>
        <time>2022-04-29T08:09:53Z</time>
      </trkpt>
      <trkpt lat="41.71153" lon="9.07003">
        <ele>627.4</ele>
        <time>2022-04-29T08:10:12Z</time>
      </trkpt>
      <trkpt lat="41.71156" lon="9.07003">
        <ele>626.92</ele>
        <time>2022-04-29T08:10:29Z</time>
      </trkpt>
      <trkpt lat="41.71157" lon="9.07002">
        <ele>626.92</ele>
        <time>2022-04-29T08:10:47Z</time>
      </trkpt>
      <trkpt lat="41.71163" lon="9.07009">
        <ele>625.96</ele>
        <time>2022-04-29T08:11:01Z</time>
      </trkpt>
      <trkpt lat="41.71168" lon="9.07016">
        <ele>622.59</ele>
        <time>2022-04-29T08:11:11Z</time>
      </trkpt>
      <trkpt lat="41.71172" lon="9.07014">
        <ele>620.67</ele>
        <time>2022-04-29T08:11:18Z</time>
      </trkpt>
      <trkpt lat="41.71172" lon="9.07011">
        <ele>619.23</ele>
        <time>2022-04-29T08:11:51Z</time>
      </trkpt>
      <trkpt lat="41.71166" lon="9.07015">
        <ele>621.63</ele>
        <time>2022-04-29T08:12:04Z</time>
      </trkpt>
      <trkpt lat="41.71163" lon="9.0701">
        <ele>623.55</ele>
        <time>2022-04-29T08:12:13Z</time>
      </trkpt>
      <trkpt lat="41.71161" lon="9.07008">
        <ele>624.99</ele>
        <time>2022-04-29T08:12:18Z</time>
      </trkpt>
      <trkpt lat="41.71158" lon="9.07004">
        <ele>625.96</ele>
        <time>2022-04-29T08:12:23Z</time>
      </trkpt>
      <trkpt lat="41.71161" lon="9.07012">
        <ele>626.44</ele>
        <time>2022-04-29T08:12:29Z</time>
      </trkpt>
      <trkpt lat="41.71163" lon="9.07025">
        <ele>625.96</ele>
        <time>2022-04-29T08:12:41Z</time>
      </trkpt>
      <trkpt lat="41.71158" lon="9.07003">
        <ele>626.92</ele>
        <time>2022-04-29T08:12:57Z</time>
      </trkpt>
      <trkpt lat="41.71162" lon="9.07006">
        <ele>625.47</ele>
        <time>2022-04-29T08:13:02Z</time>
      </trkpt>
      <trkpt lat="41.71164" lon="9.0701">
        <ele>624.99</ele>
        <time>2022-04-29T08:13:05Z</time>
      </trkpt>
      <trkpt lat="41.71168" lon="9.07011">
        <ele>624.03</ele>
        <time>2022-04-29T08:13:08Z</time>
      </trkpt>
      <trkpt lat="41.71172" lon="9.07016">
        <ele>621.15</ele>
        <time>2022-04-29T08:13:18Z</time>
      </trkpt>
      <trkpt lat="41.71164" lon="9.07027">
        <ele>626.44</ele>
        <time>2022-04-29T08:15:29Z</time>
      </trkpt>
      <trkpt lat="41.71164" lon="9.07019">
        <ele>632.2</ele>
        <time>2022-04-29T08:16:59Z</time>
      </trkpt>
      <trkpt lat="41.71159" lon="9.07008">
        <ele>635.09</ele>
        <time>2022-04-29T08:17:12Z</time>
      </trkpt>
      <trkpt lat="41.71157" lon="9.07008">
        <ele>637.49</ele>
        <time>2022-04-29T08:17:22Z</time>
      </trkpt>
      <trkpt lat="41.71162" lon="9.07039">
        <ele>636.53</ele>
        <time>2022-04-29T08:17:40Z</time>
      </trkpt>
      <trkpt lat="41.7117" lon="9.07068">
        <ele>636.05</ele>
        <time>2022-04-29T08:17:59Z</time>
      </trkpt>
      <trkpt lat="41.71174" lon="9.07097">
        <ele>635.09</ele>
        <time>2022-04-29T08:18:18Z</time>
      </trkpt>
      <trkpt lat="41.71174" lon="9.07123">
        <ele>634.61</ele>
        <time>2022-04-29T08:18:34Z</time>
      </trkpt>
      <trkpt lat="41.71176" lon="9.07152">
        <ele>634.13</ele>
        <time>2022-04-29T08:18:52Z</time>
      </trkpt>
      <trkpt lat="41.71177" lon="9.07186">
        <ele>633.65</ele>
        <time>2022-04-29T08:19:13Z</time>
      </trkpt>
      <trkpt lat="41.71172" lon="9.0722">
        <ele>632.68</ele>
        <time>2022-04-29T08:19:32Z</time>
      </trkpt>
      <trkpt lat="41.7118" lon="9.0725">
        <ele>631.24</ele>
        <time>2022-04-29T08:19:50Z</time>
      </trkpt>
      <trkpt lat="41.7118" lon="9.07253">
        <ele>630.28</ele>
        <time>2022-04-29T08:20:08Z</time>
      </trkpt>
      <trkpt lat="41.7119" lon="9.07265">
        <ele>630.28</ele>
        <time>2022-04-29T08:20:28Z</time>
      </trkpt>
      <trkpt lat="41.71199" lon="9.07287">
        <ele>628.84</ele>
        <time>2022-04-29T08:20:44Z</time>
      </trkpt>
      <trkpt lat="41.71207" lon="9.07306">
        <ele>628.36</ele>
        <time>2022-04-29T08:21:00Z</time>
      </trkpt>
      <trkpt lat="41.71212" lon="9.07316">
        <ele>627.4</ele>
        <time>2022-04-29T08:21:14Z</time>
      </trkpt>
      <trkpt lat="41.71223" lon="9.07332">
        <ele>626.92</ele>
        <time>2022-04-29T08:21:30Z</time>
      </trkpt>
      <trkpt lat="41.71222" lon="9.07357">
        <ele>625.96</ele>
        <time>2022-04-29T08:21:48Z</time>
      </trkpt>
      <trkpt lat="41.71221" lon="9.07368">
        <ele>625.96</ele>
        <time>2022-04-29T08:21:55Z</time>
      </trkpt>
      <trkpt lat="41.7122" lon="9.07382">
        <ele>625.96</ele>
        <time>2022-04-29T08:22:00Z</time>
      </trkpt>
      <trkpt lat="41.71221" lon="9.07404">
        <ele>624.99</ele>
        <time>2022-04-29T08:22:18Z</time>
      </trkpt>
      <trkpt lat="41.71225" lon="9.07416">
        <ele>624.51</ele>
        <time>2022-04-29T08:22:33Z</time>
      </trkpt>
      <trkpt lat="41.71231" lon="9.07436">
        <ele>624.51</ele>
        <time>2022-04-29T08:22:46Z</time>
      </trkpt>
      <trkpt lat="41.71245" lon="9.0745">
        <ele>625.47</ele>
        <time>2022-04-29T08:23:02Z</time>
      </trkpt>
      <trkpt lat="41.71261" lon="9.07467">
        <ele>626.44</ele>
        <time>2022-04-29T08:23:19Z</time>
      </trkpt>
      <trkpt lat="41.71275" lon="9.07481">
        <ele>626.92</ele>
        <time>2022-04-29T08:23:35Z</time>
      </trkpt>
      <trkpt lat="41.71283" lon="9.07504">
        <ele>627.88</ele>
        <time>2022-04-29T08:23:54Z</time>
      </trkpt>
      <trkpt lat="41.71288" lon="9.07531">
        <ele>627.4</ele>
        <time>2022-04-29T08:24:13Z</time>
      </trkpt>
      <trkpt lat="41.7129" lon="9.0755">
        <ele>628.36</ele>
        <time>2022-04-29T08:24:29Z</time>
      </trkpt>
      <trkpt lat="41.71292" lon="9.07576">
        <ele>628.84</ele>
        <time>2022-04-29T08:24:47Z</time>
      </trkpt>
      <trkpt lat="41.71294" lon="9.07599">
        <ele>628.36</ele>
        <time>2022-04-29T08:25:01Z</time>
      </trkpt>
      <trkpt lat="41.713" lon="9.07632">
        <ele>628.84</ele>
        <time>2022-04-29T08:25:22Z</time>
      </trkpt>
      <trkpt lat="41.71301" lon="9.07644">
        <ele>629.32</ele>
        <time>2022-04-29T08:25:30Z</time>
      </trkpt>
      <trkpt lat="41.71304" lon="9.0767">
        <ele>629.8</ele>
        <time>2022-04-29T08:25:47Z</time>
      </trkpt>
      <trkpt lat="41.71316" lon="9.07682">
        <ele>630.76</ele>
        <time>2022-04-29T08:26:02Z</time>
      </trkpt>
      <trkpt lat="41.71328" lon="9.07685">
        <ele>632.2</ele>
        <time>2022-04-29T08:26:16Z</time>
      </trkpt>
      <trkpt lat="41.71341" lon="9.07682">
        <ele>632.2</ele>
        <time>2022-04-29T08:26:33Z</time>
      </trkpt>
      <trkpt lat="41.71357" lon="9.0768">
        <ele>633.17</ele>
        <time>2022-04-29T08:26:55Z</time>
      </trkpt>
      <trkpt lat="41.71371" lon="9.07676">
        <ele>634.61</ele>
        <time>2022-04-29T08:27:12Z</time>
      </trkpt>
      <trkpt lat="41.71384" lon="9.07679">
        <ele>635.09</ele>
        <time>2022-04-29T08:27:26Z</time>
      </trkpt>
      <trkpt lat="41.71396" lon="9.0769">
        <ele>634.61</ele>
        <time>2022-04-29T08:27:40Z</time>
      </trkpt>
      <trkpt lat="41.71403" lon="9.07707">
        <ele>634.13</ele>
        <time>2022-04-29T08:27:55Z</time>
      </trkpt>
      <trkpt lat="41.71416" lon="9.0772">
        <ele>632.2</ele>
        <time>2022-04-29T08:28:12Z</time>
      </trkpt>
      <trkpt lat="41.71425" lon="9.07732">
        <ele>630.28</ele>
        <time>2022-04-29T08:28:27Z</time>
      </trkpt>
      <trkpt lat="41.71436" lon="9.07747">
        <ele>630.28</ele>
        <time>2022-04-29T08:28:41Z</time>
      </trkpt>
      <trkpt lat="41.71445" lon="9.0776">
        <ele>631.72</ele>
        <time>2022-04-29T08:28:55Z</time>
      </trkpt>
      <trkpt lat="41.71454" lon="9.07771">
        <ele>633.17</ele>
        <time>2022-04-29T08:29:10Z</time>
      </trkpt>
      <trkpt lat="41.71457" lon="9.07779">
        <ele>633.17</ele>
        <time>2022-04-29T08:29:25Z</time>
      </trkpt>
      <trkpt lat="41.71455" lon="9.07782">
        <ele>633.17</ele>
        <time>2022-04-29T08:29:28Z</time>
      </trkpt>
      <trkpt lat="41.71448" lon="9.07805">
        <ele>630.28</ele>
        <time>2022-04-29T08:29:45Z</time>
      </trkpt>
      <trkpt lat="41.71449" lon="9.07824">
        <ele>627.88</ele>
        <time>2022-04-29T08:30:01Z</time>
      </trkpt>
      <trkpt lat="41.71453" lon="9.07839">
        <ele>626.44</ele>
        <time>2022-04-29T08:30:18Z</time>
      </trkpt>
      <trkpt lat="41.71456" lon="9.07847">
        <ele>626.92</ele>
        <time>2022-04-29T08:30:40Z</time>
      </trkpt>
      <trkpt lat="41.71468" lon="9.07861">
        <ele>625.47</ele>
        <time>2022-04-29T08:30:56Z</time>
      </trkpt>
      <trkpt lat="41.7147" lon="9.07866">
        <ele>624.99</ele>
        <time>2022-04-29T08:31:18Z</time>
      </trkpt>
      <trkpt lat="41.71474" lon="9.0788">
        <ele>623.07</ele>
        <time>2022-04-29T08:31:34Z</time>
      </trkpt>
      <trkpt lat="41.71472" lon="9.07896">
        <ele>625.96</ele>
        <time>2022-04-29T08:31:49Z</time>
      </trkpt>
      <trkpt lat="41.71468" lon="9.07908">
        <ele>628.36</ele>
        <time>2022-04-29T08:32:05Z</time>
      </trkpt>
      <trkpt lat="41.7147" lon="9.07914">
        <ele>629.8</ele>
        <time>2022-04-29T08:32:25Z</time>
      </trkpt>
      <trkpt lat="41.71466" lon="9.07924">
        <ele>629.8</ele>
        <time>2022-04-29T08:32:50Z</time>
      </trkpt>
      <trkpt lat="41.71469" lon="9.07938">
        <ele>629.32</ele>
        <time>2022-04-29T08:33:07Z</time>
      </trkpt>
      <trkpt lat="41.71474" lon="9.07954">
        <ele>629.8</ele>
        <time>2022-04-29T08:33:22Z</time>
      </trkpt>
      <trkpt lat="41.71475" lon="9.07956">
        <ele>630.76</ele>
        <time>2022-04-29T08:33:24Z</time>
      </trkpt>
      <trkpt lat="41.71468" lon="9.07966">
        <ele>632.68</ele>
        <time>2022-04-29T08:33:39Z</time>
      </trkpt>
      <trkpt lat="41.71463" lon="9.07985">
        <ele>634.13</ele>
        <time>2022-04-29T08:33:58Z</time>
      </trkpt>
      <trkpt lat="41.71463" lon="9.07999">
        <ele>636.05</ele>
        <time>2022-04-29T08:34:17Z</time>
      </trkpt>
      <trkpt lat="41.71464" lon="9.08008">
        <ele>639.41</ele>
        <time>2022-04-29T08:34:35Z</time>
      </trkpt>
      <trkpt lat="41.71473" lon="9.08018">
        <ele>641.34</ele>
        <time>2022-04-29T08:34:55Z</time>
      </trkpt>
      <trkpt lat="41.71483" lon="9.08024">
        <ele>643.74</ele>
        <time>2022-04-29T08:35:14Z</time>
      </trkpt>
      <trkpt lat="41.71492" lon="9.08033">
        <ele>645.66</ele>
        <time>2022-04-29T08:35:30Z</time>
      </trkpt>
      <trkpt lat="41.71493" lon="9.08038">
        <ele>645.66</ele>
        <time>2022-04-29T08:35:44Z</time>
      </trkpt>
      <trkpt lat="41.7149" lon="9.0803">
        <ele>644.7</ele>
        <time>2022-04-29T08:36:12Z</time>
      </trkpt>
      <trkpt lat="41.71487" lon="9.08027">
        <ele>643.74</ele>
        <time>2022-04-29T08:36:39Z</time>
      </trkpt>
      <trkpt lat="41.71493" lon="9.08022">
        <ele>644.22</ele>
        <time>2022-04-29T08:37:21Z</time>
      </trkpt>
      <trkpt lat="41.71494" lon="9.08021">
        <ele>644.22</ele>
        <time>2022-04-29T08:38:00Z</time>
      </trkpt>
      <trkpt lat="41.71492" lon="9.08021">
        <ele>644.22</ele>
        <time>2022-04-29T08:38:30Z</time>
      </trkpt>
      <trkpt lat="41.7149" lon="9.08031">
        <ele>644.7</ele>
        <time>2022-04-29T08:39:00Z</time>
      </trkpt>
      <trkpt lat="41.71494" lon="9.08032">
        <ele>644.22</ele>
        <time>2022-04-29T08:39:32Z</time>
      </trkpt>
      <trkpt lat="41.71493" lon="9.08032">
        <ele>644.22</ele>
        <time>2022-04-29T08:40:00Z</time>
      </trkpt>
      <trkpt lat="41.71492" lon="9.08033">
        <ele>643.74</ele>
        <time>2022-04-29T08:40:33Z</time>
      </trkpt>
      <trkpt lat="41.71492" lon="9.08033">
        <ele>643.74</ele>
        <time>2022-04-29T08:40:59Z</time>
      </trkpt>
      <trkpt lat="41.71493" lon="9.08038">
        <ele>644.7</ele>
        <time>2022-04-29T08:41:16Z</time>
      </trkpt>
      <trkpt lat="41.71491" lon="9.08047">
        <ele>643.74</ele>
        <time>2022-04-29T08:41:34Z</time>
      </trkpt>
      <trkpt lat="41.71495" lon="9.08059">
        <ele>644.7</ele>
        <time>2022-04-29T08:41:48Z</time>
      </trkpt>
      <trkpt lat="41.71492" lon="9.08073">
        <ele>644.7</ele>
        <time>2022-04-29T08:42:11Z</time>
      </trkpt>
      <trkpt lat="41.71493" lon="9.08085">
        <ele>641.82</ele>
        <time>2022-04-29T08:42:23Z</time>
      </trkpt>
      <trkpt lat="41.715" lon="9.08099">
        <ele>639.41</ele>
        <time>2022-04-29T08:42:38Z</time>
      </trkpt>
      <trkpt lat="41.71509" lon="9.08101">
        <ele>640.86</ele>
        <time>2022-04-29T08:42:53Z</time>
      </trkpt>
      <trkpt lat="41.71515" lon="9.08101">
        <ele>641.34</ele>
        <time>2022-04-29T08:43:16Z</time>
      </trkpt>
      <trkpt lat="41.71526" lon="9.08111">
        <ele>641.82</ele>
        <time>2022-04-29T08:43:31Z</time>
      </trkpt>
      <trkpt lat="41.71536" lon="9.08122">
        <ele>643.74</ele>
        <time>2022-04-29T08:43:49Z</time>
      </trkpt>
      <trkpt lat="41.71552" lon="9.08119">
        <ele>643.26</ele>
        <time>2022-04-29T08:44:08Z</time>
      </trkpt>
      <trkpt lat="41.71566" lon="9.08129">
        <ele>642.78</ele>
        <time>2022-04-29T08:44:25Z</time>
      </trkpt>
      <trkpt lat="41.71574" lon="9.08138">
        <ele>641.82</ele>
        <time>2022-04-29T08:44:40Z</time>
      </trkpt>
      <trkpt lat="41.71586" lon="9.08146">
        <ele>640.38</ele>
        <time>2022-04-29T08:44:54Z</time>
      </trkpt>
      <trkpt lat="41.71588" lon="9.0815">
        <ele>641.34</ele>
        <time>2022-04-29T08:44:58Z</time>
      </trkpt>
      <trkpt lat="41.71603" lon="9.08154">
        <ele>641.34</ele>
        <time>2022-04-29T08:45:14Z</time>
      </trkpt>
      <trkpt lat="41.71616" lon="9.08159">
        <ele>640.86</ele>
        <time>2022-04-29T08:45:29Z</time>
      </trkpt>
      <trkpt lat="41.71616" lon="9.0816">
        <ele>640.38</ele>
        <time>2022-04-29T08:45:30Z</time>
      </trkpt>
      <trkpt lat="41.7163" lon="9.08172">
        <ele>638.93</ele>
        <time>2022-04-29T08:45:47Z</time>
      </trkpt>
      <trkpt lat="41.71648" lon="9.08173">
        <ele>636.05</ele>
        <time>2022-04-29T08:46:04Z</time>
      </trkpt>
      <trkpt lat="41.71649" lon="9.08167">
        <ele>636.53</ele>
        <time>2022-04-29T08:46:22Z</time>
      </trkpt>
      <trkpt lat="41.71653" lon="9.08168">
        <ele>636.05</ele>
        <time>2022-04-29T08:46:45Z</time>
      </trkpt>
      <trkpt lat="41.71655" lon="9.08163">
        <ele>636.05</ele>
        <time>2022-04-29T08:46:58Z</time>
      </trkpt>
      <trkpt lat="41.71663" lon="9.08169">
        <ele>636.53</ele>
        <time>2022-04-29T08:47:13Z</time>
      </trkpt>
      <trkpt lat="41.71676" lon="9.08166">
        <ele>635.57</ele>
        <time>2022-04-29T08:47:28Z</time>
      </trkpt>
      <trkpt lat="41.71678" lon="9.08167">
        <ele>635.57</ele>
        <time>2022-04-29T08:47:30Z</time>
      </trkpt>
      <trkpt lat="41.71686" lon="9.08167">
        <ele>633.17</ele>
        <time>2022-04-29T08:47:44Z</time>
      </trkpt>
      <trkpt lat="41.7169" lon="9.08171">
        <ele>634.13</ele>
        <time>2022-04-29T08:47:58Z</time>
      </trkpt>
      <trkpt lat="41.71694" lon="9.08168">
        <ele>633.65</ele>
        <time>2022-04-29T08:48:15Z</time>
      </trkpt>
      <trkpt lat="41.71702" lon="9.08162">
        <ele>632.68</ele>
        <time>2022-04-29T08:48:37Z</time>
      </trkpt>
      <trkpt lat="41.71717" lon="9.08159">
        <ele>631.72</ele>
        <time>2022-04-29T08:48:55Z</time>
      </trkpt>
      <trkpt lat="41.71725" lon="9.08164">
        <ele>631.72</ele>
        <time>2022-04-29T08:49:15Z</time>
      </trkpt>
      <trkpt lat="41.71735" lon="9.08186">
        <ele>629.32</ele>
        <time>2022-04-29T08:49:35Z</time>
      </trkpt>
      <trkpt lat="41.71742" lon="9.08207">
        <ele>628.36</ele>
        <time>2022-04-29T08:49:54Z</time>
      </trkpt>
      <trkpt lat="41.71744" lon="9.08228">
        <ele>629.32</ele>
        <time>2022-04-29T08:50:13Z</time>
      </trkpt>
      <trkpt lat="41.71757" lon="9.08248">
        <ele>629.8</ele>
        <time>2022-04-29T08:50:30Z</time>
      </trkpt>
      <trkpt lat="41.71763" lon="9.08262">
        <ele>629.32</ele>
        <time>2022-04-29T08:50:46Z</time>
      </trkpt>
      <trkpt lat="41.71773" lon="9.0827">
        <ele>625.47</ele>
        <time>2022-04-29T08:51:04Z</time>
      </trkpt>
      <trkpt lat="41.71773" lon="9.08271">
        <ele>625.47</ele>
        <time>2022-04-29T08:51:05Z</time>
      </trkpt>
      <trkpt lat="41.71782" lon="9.08276">
        <ele>621.63</ele>
        <time>2022-04-29T08:51:22Z</time>
      </trkpt>
      <trkpt lat="41.71788" lon="9.08292">
        <ele>619.23</ele>
        <time>2022-04-29T08:51:41Z</time>
      </trkpt>
      <trkpt lat="41.71798" lon="9.08302">
        <ele>618.26</ele>
        <time>2022-04-29T08:51:58Z</time>
      </trkpt>
      <trkpt lat="41.71805" lon="9.08314">
        <ele>617.3</ele>
        <time>2022-04-29T08:52:16Z</time>
      </trkpt>
      <trkpt lat="41.71813" lon="9.08323">
        <ele>616.34</ele>
        <time>2022-04-29T08:52:32Z</time>
      </trkpt>
      <trkpt lat="41.71825" lon="9.08334">
        <ele>613.46</ele>
        <time>2022-04-29T08:52:52Z</time>
      </trkpt>
      <trkpt lat="41.71829" lon="9.08339">
        <ele>610.09</ele>
        <time>2022-04-29T08:53:04Z</time>
      </trkpt>
      <trkpt lat="41.71831" lon="9.08357">
        <ele>611.54</ele>
        <time>2022-04-29T08:53:22Z</time>
      </trkpt>
      <trkpt lat="41.71827" lon="9.08375">
        <ele>611.06</ele>
        <time>2022-04-29T08:53:39Z</time>
      </trkpt>
      <trkpt lat="41.71825" lon="9.08396">
        <ele>609.61</ele>
        <time>2022-04-29T08:53:56Z</time>
      </trkpt>
      <trkpt lat="41.71829" lon="9.08414">
        <ele>611.54</ele>
        <time>2022-04-29T08:54:14Z</time>
      </trkpt>
      <trkpt lat="41.7183" lon="9.08431">
        <ele>612.98</ele>
        <time>2022-04-29T08:54:27Z</time>
      </trkpt>
      <trkpt lat="41.71831" lon="9.08449">
        <ele>612.02</ele>
        <time>2022-04-29T08:54:42Z</time>
      </trkpt>
      <trkpt lat="41.71832" lon="9.08462">
        <ele>609.13</ele>
        <time>2022-04-29T08:54:52Z</time>
      </trkpt>
      <trkpt lat="41.7183" lon="9.08477">
        <ele>608.17</ele>
        <time>2022-04-29T08:55:08Z</time>
      </trkpt>
      <trkpt lat="41.71825" lon="9.08488">
        <ele>606.25</ele>
        <time>2022-04-29T08:55:16Z</time>
      </trkpt>
      <trkpt lat="41.71826" lon="9.08494">
        <ele>603.36</ele>
        <time>2022-04-29T08:55:27Z</time>
      </trkpt>
      <trkpt lat="41.7183" lon="9.08491">
        <ele>601.92</ele>
        <time>2022-04-29T08:55:32Z</time>
      </trkpt>
      <trkpt lat="41.7183" lon="9.08505">
        <ele>599.04</ele>
        <time>2022-04-29T08:55:48Z</time>
      </trkpt>
      <trkpt lat="41.71832" lon="9.08524">
        <ele>597.12</ele>
        <time>2022-04-29T08:56:08Z</time>
      </trkpt>
      <trkpt lat="41.71831" lon="9.08524">
        <ele>597.6</ele>
        <time>2022-04-29T08:56:28Z</time>
      </trkpt>
      <trkpt lat="41.71827" lon="9.0851">
        <ele>597.6</ele>
        <time>2022-04-29T08:56:58Z</time>
      </trkpt>
      <trkpt lat="41.71828" lon="9.08508">
        <ele>597.6</ele>
        <time>2022-04-29T08:57:29Z</time>
      </trkpt>
      <trkpt lat="41.71825" lon="9.08507">
        <ele>597.6</ele>
        <time>2022-04-29T08:58:11Z</time>
      </trkpt>
      <trkpt lat="41.71828" lon="9.08515">
        <ele>597.6</ele>
        <time>2022-04-29T08:58:51Z</time>
      </trkpt>
      <trkpt lat="41.71827" lon="9.08516">
        <ele>598.08</ele>
        <time>2022-04-29T08:59:26Z</time>
      </trkpt>
      <trkpt lat="41.71831" lon="9.08524">
        <ele>599.04</ele>
        <time>2022-04-29T08:59:55Z</time>
      </trkpt>
      <trkpt lat="41.7184" lon="9.08529">
        <ele>598.56</ele>
        <time>2022-04-29T09:00:15Z</time>
      </trkpt>
      <trkpt lat="41.7184" lon="9.08528">
        <ele>598.56</ele>
        <time>2022-04-29T09:00:38Z</time>
      </trkpt>
      <trkpt lat="41.71839" lon="9.0853">
        <ele>599.04</ele>
        <time>2022-04-29T09:01:15Z</time>
      </trkpt>
      <trkpt lat="41.71845" lon="9.08533">
        <ele>599.04</ele>
        <time>2022-04-29T09:01:34Z</time>
      </trkpt>
      <trkpt lat="41.71864" lon="9.08531">
        <ele>598.56</ele>
        <time>2022-04-29T09:01:54Z</time>
      </trkpt>
      <trkpt lat="41.71879" lon="9.08537">
        <ele>598.56</ele>
        <time>2022-04-29T09:02:11Z</time>
      </trkpt>
      <trkpt lat="41.71896" lon="9.08545">
        <ele>600.48</ele>
        <time>2022-04-29T09:02:29Z</time>
      </trkpt>
      <trkpt lat="41.71906" lon="9.08545">
        <ele>599.52</ele>
        <time>2022-04-29T09:02:41Z</time>
      </trkpt>
      <trkpt lat="41.71916" lon="9.08547">
        <ele>598.08</ele>
        <time>2022-04-29T09:02:57Z</time>
      </trkpt>
      <trkpt lat="41.71925" lon="9.08553">
        <ele>595.19</ele>
        <time>2022-04-29T09:03:17Z</time>
      </trkpt>
      <trkpt lat="41.71937" lon="9.08561">
        <ele>591.83</ele>
        <time>2022-04-29T09:03:30Z</time>
      </trkpt>
      <trkpt lat="41.71942" lon="9.08575">
        <ele>589.91</ele>
        <time>2022-04-29T09:03:41Z</time>
      </trkpt>
      <trkpt lat="41.71953" lon="9.08595">
        <ele>588.46</ele>
        <time>2022-04-29T09:03:58Z</time>
      </trkpt>
      <trkpt lat="41.71959" lon="9.08615">
        <ele>587.5</ele>
        <time>2022-04-29T09:04:14Z</time>
      </trkpt>
      <trkpt lat="41.71968" lon="9.08625">
        <ele>588.46</ele>
        <time>2022-04-29T09:04:32Z</time>
      </trkpt>
      <trkpt lat="41.71964" lon="9.08629">
        <ele>591.83</ele>
        <time>2022-04-29T09:04:44Z</time>
      </trkpt>
      <trkpt lat="41.71974" lon="9.08627">
        <ele>594.23</ele>
        <time>2022-04-29T09:05:01Z</time>
      </trkpt>
      <trkpt lat="41.71964" lon="9.08622">
        <ele>595.19</ele>
        <time>2022-04-29T09:05:21Z</time>
      </trkpt>
      <trkpt lat="41.71982" lon="9.08624">
        <ele>598.08</ele>
        <time>2022-04-29T09:05:40Z</time>
      </trkpt>
      <trkpt lat="41.71989" lon="9.08626">
        <ele>600.96</ele>
        <time>2022-04-29T09:05:55Z</time>
      </trkpt>
      <trkpt lat="41.71995" lon="9.08629">
        <ele>602.4</ele>
        <time>2022-04-29T09:06:14Z</time>
      </trkpt>
      <trkpt lat="41.72006" lon="9.08625">
        <ele>604.81</ele>
        <time>2022-04-29T09:06:36Z</time>
      </trkpt>
      <trkpt lat="41.72012" lon="9.08624">
        <ele>608.17</ele>
        <time>2022-04-29T09:06:48Z</time>
      </trkpt>
      <trkpt lat="41.72017" lon="9.08626">
        <ele>611.06</ele>
        <time>2022-04-29T09:07:06Z</time>
      </trkpt>
      <trkpt lat="41.72023" lon="9.08625">
        <ele>613.94</ele>
        <time>2022-04-29T09:07:21Z</time>
      </trkpt>
      <trkpt lat="41.72029" lon="9.08622">
        <ele>616.82</ele>
        <time>2022-04-29T09:07:35Z</time>
      </trkpt>
      <trkpt lat="41.72038" lon="9.0862">
        <ele>617.3</ele>
        <time>2022-04-29T09:07:47Z</time>
      </trkpt>
      <trkpt lat="41.72036" lon="9.08621">
        <ele>617.3</ele>
        <time>2022-04-29T09:08:01Z</time>
      </trkpt>
      <trkpt lat="41.72035" lon="9.08616">
        <ele>617.78</ele>
        <time>2022-04-29T09:08:33Z</time>
      </trkpt>
      <trkpt lat="41.72043" lon="9.08624">
        <ele>618.26</ele>
        <time>2022-04-29T09:08:52Z</time>
      </trkpt>
      <trkpt lat="41.72051" lon="9.08628">
        <ele>621.15</ele>
        <time>2022-04-29T09:09:08Z</time>
      </trkpt>
      <trkpt lat="41.72062" lon="9.08626">
        <ele>622.11</ele>
        <time>2022-04-29T09:09:22Z</time>
      </trkpt>
      <trkpt lat="41.7207" lon="9.08635">
        <ele>623.07</ele>
        <time>2022-04-29T09:09:39Z</time>
      </trkpt>
      <trkpt lat="41.72075" lon="9.0864">
        <ele>626.44</ele>
        <time>2022-04-29T09:09:54Z</time>
      </trkpt>
      <trkpt lat="41.72088" lon="9.08643">
        <ele>627.88</ele>
        <time>2022-04-29T09:10:11Z</time>
      </trkpt>
      <trkpt lat="41.72097" lon="9.08651">
        <ele>629.8</ele>
        <time>2022-04-29T09:10:29Z</time>
      </trkpt>
      <trkpt lat="41.72105" lon="9.0865">
        <ele>629.32</ele>
        <time>2022-04-29T09:10:37Z</time>
      </trkpt>
      <trkpt lat="41.7212" lon="9.08643">
        <ele>626.92</ele>
        <time>2022-04-29T09:10:55Z</time>
      </trkpt>
      <trkpt lat="41.72132" lon="9.08639">
        <ele>624.99</ele>
        <time>2022-04-29T09:11:09Z</time>
      </trkpt>
      <trkpt lat="41.72141" lon="9.08648">
        <ele>626.92</ele>
        <time>2022-04-29T09:11:26Z</time>
      </trkpt>
      <trkpt lat="41.72153" lon="9.08648">
        <ele>629.32</ele>
        <time>2022-04-29T09:11:43Z</time>
      </trkpt>
      <trkpt lat="41.72162" lon="9.08646">
        <ele>631.24</ele>
        <time>2022-04-29T09:12:00Z</time>
      </trkpt>
      <trkpt lat="41.72172" lon="9.08643">
        <ele>633.17</ele>
        <time>2022-04-29T09:12:19Z</time>
      </trkpt>
      <trkpt lat="41.72173" lon="9.08636">
        <ele>634.13</ele>
        <time>2022-04-29T09:12:38Z</time>
      </trkpt>
      <trkpt lat="41.72179" lon="9.0865">
        <ele>635.09</ele>
        <time>2022-04-29T09:13:01Z</time>
      </trkpt>
      <trkpt lat="41.72173" lon="9.08657">
        <ele>637.97</ele>
        <time>2022-04-29T09:13:20Z</time>
      </trkpt>
      <trkpt lat="41.72184" lon="9.08655">
        <ele>641.34</ele>
        <time>2022-04-29T09:13:37Z</time>
      </trkpt>
      <trkpt lat="41.72185" lon="9.08661">
        <ele>644.7</ele>
        <time>2022-04-29T09:13:59Z</time>
      </trkpt>
      <trkpt lat="41.72176" lon="9.08674">
        <ele>647.1</ele>
        <time>2022-04-29T09:14:17Z</time>
      </trkpt>
      <trkpt lat="41.72168" lon="9.08682">
        <ele>650.95</ele>
        <time>2022-04-29T09:14:36Z</time>
      </trkpt>
      <trkpt lat="41.72163" lon="9.08696">
        <ele>653.83</ele>
        <time>2022-04-29T09:14:55Z</time>
      </trkpt>
      <trkpt lat="41.72172" lon="9.087">
        <ele>656.72</ele>
        <time>2022-04-29T09:15:14Z</time>
      </trkpt>
      <trkpt lat="41.72179" lon="9.08705">
        <ele>660.08</ele>
        <time>2022-04-29T09:15:31Z</time>
      </trkpt>
      <trkpt lat="41.7219" lon="9.0871">
        <ele>663.45</ele>
        <time>2022-04-29T09:15:51Z</time>
      </trkpt>
      <trkpt lat="41.72198" lon="9.08719">
        <ele>666.33</ele>
        <time>2022-04-29T09:16:12Z</time>
      </trkpt>
      <trkpt lat="41.72199" lon="9.08726">
        <ele>669.7</ele>
        <time>2022-04-29T09:16:28Z</time>
      </trkpt>
      <trkpt lat="41.72211" lon="9.08726">
        <ele>672.58</ele>
        <time>2022-04-29T09:16:49Z</time>
      </trkpt>
      <trkpt lat="41.72221" lon="9.08729">
        <ele>675.46</ele>
        <time>2022-04-29T09:17:10Z</time>
      </trkpt>
      <trkpt lat="41.72228" lon="9.08735">
        <ele>678.83</ele>
        <time>2022-04-29T09:17:31Z</time>
      </trkpt>
      <trkpt lat="41.72234" lon="9.08739">
        <ele>680.75</ele>
        <time>2022-04-29T09:17:41Z</time>
      </trkpt>
      <trkpt lat="41.7223" lon="9.08751">
        <ele>684.12</ele>
        <time>2022-04-29T09:18:03Z</time>
      </trkpt>
      <trkpt lat="41.72224" lon="9.08761">
        <ele>687</ele>
        <time>2022-04-29T09:18:21Z</time>
      </trkpt>
      <trkpt lat="41.72221" lon="9.08766">
        <ele>690.84</ele>
        <time>2022-04-29T09:18:40Z</time>
      </trkpt>
      <trkpt lat="41.72225" lon="9.08775">
        <ele>693.73</ele>
        <time>2022-04-29T09:19:03Z</time>
      </trkpt>
      <trkpt lat="41.72234" lon="9.08776">
        <ele>696.61</ele>
        <time>2022-04-29T09:19:22Z</time>
      </trkpt>
      <trkpt lat="41.72241" lon="9.08785">
        <ele>699.98</ele>
        <time>2022-04-29T09:19:39Z</time>
      </trkpt>
      <trkpt lat="41.72243" lon="9.08795">
        <ele>702.86</ele>
        <time>2022-04-29T09:19:59Z</time>
      </trkpt>
      <trkpt lat="41.7225" lon="9.08798">
        <ele>706.23</ele>
        <time>2022-04-29T09:20:19Z</time>
      </trkpt>
      <trkpt lat="41.72258" lon="9.08803">
        <ele>709.59</ele>
        <time>2022-04-29T09:20:38Z</time>
      </trkpt>
      <trkpt lat="41.72268" lon="9.08813">
        <ele>712.47</ele>
        <time>2022-04-29T09:20:59Z</time>
      </trkpt>
      <trkpt lat="41.72267" lon="9.08823">
        <ele>714.4</ele>
        <time>2022-04-29T09:21:18Z</time>
      </trkpt>
      <trkpt lat="41.72268" lon="9.08828">
        <ele>717.28</ele>
        <time>2022-04-29T09:21:40Z</time>
      </trkpt>
      <trkpt lat="41.72275" lon="9.08836">
        <ele>720.16</ele>
        <time>2022-04-29T09:22:00Z</time>
      </trkpt>
      <trkpt lat="41.72286" lon="9.08844">
        <ele>723.53</ele>
        <time>2022-04-29T09:22:20Z</time>
      </trkpt>
      <trkpt lat="41.72301" lon="9.0885">
        <ele>725.45</ele>
        <time>2022-04-29T09:22:41Z</time>
      </trkpt>
      <trkpt lat="41.7231" lon="9.08859">
        <ele>727.37</ele>
        <time>2022-04-29T09:22:57Z</time>
      </trkpt>
      <trkpt lat="41.72309" lon="9.08868">
        <ele>727.86</ele>
        <time>2022-04-29T09:23:16Z</time>
      </trkpt>
      <trkpt lat="41.72317" lon="9.08864">
        <ele>728.34</ele>
        <time>2022-04-29T09:23:42Z</time>
      </trkpt>
      <trkpt lat="41.72323" lon="9.08865">
        <ele>728.82</ele>
        <time>2022-04-29T09:23:57Z</time>
      </trkpt>
      <trkpt lat="41.72325" lon="9.08866">
        <ele>728.82</ele>
        <time>2022-04-29T09:24:17Z</time>
      </trkpt>
      <trkpt lat="41.72328" lon="9.08867">
        <ele>728.34</ele>
        <time>2022-04-29T09:24:38Z</time>
      </trkpt>
      <trkpt lat="41.72321" lon="9.0886">
        <ele>728.82</ele>
        <time>2022-04-29T09:25:06Z</time>
      </trkpt>
      <trkpt lat="41.72324" lon="9.08865">
        <ele>727.86</ele>
        <time>2022-04-29T09:25:26Z</time>
      </trkpt>
      <trkpt lat="41.72324" lon="9.08867">
        <ele>728.34</ele>
        <time>2022-04-29T09:25:44Z</time>
      </trkpt>
      <trkpt lat="41.72325" lon="9.08869">
        <ele>728.34</ele>
        <time>2022-04-29T09:26:03Z</time>
      </trkpt>
      <trkpt lat="41.72325" lon="9.0887">
        <ele>728.34</ele>
        <time>2022-04-29T09:26:23Z</time>
      </trkpt>
      <trkpt lat="41.72323" lon="9.08875">
        <ele>728.82</ele>
        <time>2022-04-29T09:26:46Z</time>
      </trkpt>
      <trkpt lat="41.7232" lon="9.08875">
        <ele>729.3</ele>
        <time>2022-04-29T09:27:05Z</time>
      </trkpt>
      <trkpt lat="41.72322" lon="9.08877">
        <ele>729.3</ele>
        <time>2022-04-29T09:27:31Z</time>
      </trkpt>
      <trkpt lat="41.72326" lon="9.08878">
        <ele>729.3</ele>
        <time>2022-04-29T09:27:57Z</time>
      </trkpt>
      <trkpt lat="41.72323" lon="9.08879">
        <ele>729.78</ele>
        <time>2022-04-29T09:28:25Z</time>
      </trkpt>
      <trkpt lat="41.72324" lon="9.08879">
        <ele>729.78</ele>
        <time>2022-04-29T09:28:46Z</time>
      </trkpt>
      <trkpt lat="41.72325" lon="9.08878">
        <ele>730.74</ele>
        <time>2022-04-29T09:29:09Z</time>
      </trkpt>
      <trkpt lat="41.72328" lon="9.08879">
        <ele>730.26</ele>
        <time>2022-04-29T09:29:28Z</time>
      </trkpt>
      <trkpt lat="41.72326" lon="9.08871">
        <ele>731.7</ele>
        <time>2022-04-29T09:29:44Z</time>
      </trkpt>
      <trkpt lat="41.72327" lon="9.08871">
        <ele>731.22</ele>
        <time>2022-04-29T09:30:09Z</time>
      </trkpt>
      <trkpt lat="41.72328" lon="9.08872">
        <ele>731.22</ele>
        <time>2022-04-29T09:30:35Z</time>
      </trkpt>
      <trkpt lat="41.72328" lon="9.08871">
        <ele>731.22</ele>
        <time>2022-04-29T09:30:54Z</time>
      </trkpt>
      <trkpt lat="41.7233" lon="9.08872">
        <ele>731.22</ele>
        <time>2022-04-29T09:31:09Z</time>
      </trkpt>
      <trkpt lat="41.72337" lon="9.08878">
        <ele>730.74</ele>
        <time>2022-04-29T09:31:32Z</time>
      </trkpt>
      <trkpt lat="41.72339" lon="9.08879">
        <ele>729.78</ele>
        <time>2022-04-29T09:31:49Z</time>
      </trkpt>
      <trkpt lat="41.7234" lon="9.08886">
        <ele>728.34</ele>
        <time>2022-04-29T09:32:06Z</time>
      </trkpt>
      <trkpt lat="41.72338" lon="9.08899">
        <ele>725.93</ele>
        <time>2022-04-29T09:32:17Z</time>
      </trkpt>
      <trkpt lat="41.72343" lon="9.08909">
        <ele>722.57</ele>
        <time>2022-04-29T09:32:31Z</time>
      </trkpt>
      <trkpt lat="41.72346" lon="9.08917">
        <ele>719.68</ele>
        <time>2022-04-29T09:32:41Z</time>
      </trkpt>
      <trkpt lat="41.72353" lon="9.08922">
        <ele>716.32</ele>
        <time>2022-04-29T09:32:54Z</time>
      </trkpt>
      <trkpt lat="41.72357" lon="9.08922">
        <ele>714.88</ele>
        <time>2022-04-29T09:33:00Z</time>
      </trkpt>
      <trkpt lat="41.72364" lon="9.08926">
        <ele>711.99</ele>
        <time>2022-04-29T09:33:14Z</time>
      </trkpt>
      <trkpt lat="41.7237" lon="9.08932">
        <ele>708.63</ele>
        <time>2022-04-29T09:33:25Z</time>
      </trkpt>
      <trkpt lat="41.72373" lon="9.08939">
        <ele>707.67</ele>
        <time>2022-04-29T09:33:40Z</time>
      </trkpt>
      <trkpt lat="41.7237" lon="9.08938">
        <ele>707.19</ele>
        <time>2022-04-29T09:34:13Z</time>
      </trkpt>
      <trkpt lat="41.72375" lon="9.08944">
        <ele>705.26</ele>
        <time>2022-04-29T09:34:31Z</time>
      </trkpt>
      <trkpt lat="41.72378" lon="9.08951">
        <ele>702.38</ele>
        <time>2022-04-29T09:34:44Z</time>
      </trkpt>
      <trkpt lat="41.72386" lon="9.08953">
        <ele>699.5</ele>
        <time>2022-04-29T09:34:58Z</time>
      </trkpt>
      <trkpt lat="41.72395" lon="9.08963">
        <ele>696.13</ele>
        <time>2022-04-29T09:35:11Z</time>
      </trkpt>
      <trkpt lat="41.72401" lon="9.08965">
        <ele>692.77</ele>
        <time>2022-04-29T09:35:26Z</time>
      </trkpt>
      <trkpt lat="41.72408" lon="9.0897">
        <ele>689.4</ele>
        <time>2022-04-29T09:35:40Z</time>
      </trkpt>
      <trkpt lat="41.72409" lon="9.08974">
        <ele>687.96</ele>
        <time>2022-04-29T09:35:45Z</time>
      </trkpt>
      <trkpt lat="41.72416" lon="9.08975">
        <ele>685.56</ele>
        <time>2022-04-29T09:35:55Z</time>
      </trkpt>
      <trkpt lat="41.72427" lon="9.08979">
        <ele>682.19</ele>
        <time>2022-04-29T09:36:10Z</time>
      </trkpt>
      <trkpt lat="41.72432" lon="9.08984">
        <ele>679.79</ele>
        <time>2022-04-29T09:36:17Z</time>
      </trkpt>
      <trkpt lat="41.72437" lon="9.08994">
        <ele>676.91</ele>
        <time>2022-04-29T09:36:28Z</time>
      </trkpt>
      <trkpt lat="41.72437" lon="9.09018">
        <ele>675.46</ele>
        <time>2022-04-29T09:36:46Z</time>
      </trkpt>
      <trkpt lat="41.72442" lon="9.09022">
        <ele>672.58</ele>
        <time>2022-04-29T09:36:57Z</time>
      </trkpt>
      <trkpt lat="41.7245" lon="9.09021">
        <ele>669.22</ele>
        <time>2022-04-29T09:37:08Z</time>
      </trkpt>
      <trkpt lat="41.72459" lon="9.09025">
        <ele>665.37</ele>
        <time>2022-04-29T09:37:20Z</time>
      </trkpt>
      <trkpt lat="41.72474" lon="9.09028">
        <ele>662.01</ele>
        <time>2022-04-29T09:37:37Z</time>
      </trkpt>
      <trkpt lat="41.72484" lon="9.09029">
        <ele>659.12</ele>
        <time>2022-04-29T09:37:48Z</time>
      </trkpt>
      <trkpt lat="41.725" lon="9.09023">
        <ele>655.76</ele>
        <time>2022-04-29T09:38:02Z</time>
      </trkpt>
      <trkpt lat="41.72517" lon="9.09027">
        <ele>652.87</ele>
        <time>2022-04-29T09:38:17Z</time>
      </trkpt>
      <trkpt lat="41.72526" lon="9.0904">
        <ele>649.99</ele>
        <time>2022-04-29T09:38:33Z</time>
      </trkpt>
      <trkpt lat="41.72532" lon="9.09041">
        <ele>647.1</ele>
        <time>2022-04-29T09:38:44Z</time>
      </trkpt>
      <trkpt lat="41.72546" lon="9.09045">
        <ele>643.74</ele>
        <time>2022-04-29T09:38:59Z</time>
      </trkpt>
      <trkpt lat="41.72557" lon="9.09051">
        <ele>640.38</ele>
        <time>2022-04-29T09:39:14Z</time>
      </trkpt>
      <trkpt lat="41.72572" lon="9.09056">
        <ele>637.49</ele>
        <time>2022-04-29T09:39:32Z</time>
      </trkpt>
      <trkpt lat="41.72578" lon="9.09073">
        <ele>634.13</ele>
        <time>2022-04-29T09:39:50Z</time>
      </trkpt>
      <trkpt lat="41.72591" lon="9.09065">
        <ele>632.2</ele>
        <time>2022-04-29T09:40:07Z</time>
      </trkpt>
      <trkpt lat="41.72609" lon="9.0905">
        <ele>632.68</ele>
        <time>2022-04-29T09:40:27Z</time>
      </trkpt>
      <trkpt lat="41.72619" lon="9.09035">
        <ele>633.65</ele>
        <time>2022-04-29T09:40:43Z</time>
      </trkpt>
      <trkpt lat="41.72633" lon="9.09021">
        <ele>633.65</ele>
        <time>2022-04-29T09:40:59Z</time>
      </trkpt>
      <trkpt lat="41.72651" lon="9.09005">
        <ele>632.68</ele>
        <time>2022-04-29T09:41:15Z</time>
      </trkpt>
      <trkpt lat="41.72666" lon="9.09003">
        <ele>632.68</ele>
        <time>2022-04-29T09:41:30Z</time>
      </trkpt>
      <trkpt lat="41.72681" lon="9.09007">
        <ele>631.72</ele>
        <time>2022-04-29T09:41:47Z</time>
      </trkpt>
      <trkpt lat="41.72684" lon="9.09005">
        <ele>631.24</ele>
        <time>2022-04-29T09:42:07Z</time>
      </trkpt>
      <trkpt lat="41.72699" lon="9.09003">
        <ele>631.72</ele>
        <time>2022-04-29T09:42:24Z</time>
      </trkpt>
      <trkpt lat="41.72713" lon="9.09004">
        <ele>631.24</ele>
        <time>2022-04-29T09:42:43Z</time>
      </trkpt>
      <trkpt lat="41.7272" lon="9.08997">
        <ele>631.24</ele>
        <time>2022-04-29T09:43:05Z</time>
      </trkpt>
      <trkpt lat="41.72733" lon="9.08996">
        <ele>630.76</ele>
        <time>2022-04-29T09:43:22Z</time>
      </trkpt>
      <trkpt lat="41.72754" lon="9.08992">
        <ele>631.24</ele>
        <time>2022-04-29T09:43:40Z</time>
      </trkpt>
      <trkpt lat="41.72772" lon="9.08987">
        <ele>629.32</ele>
        <time>2022-04-29T09:43:58Z</time>
      </trkpt>
      <trkpt lat="41.72772" lon="9.0899">
        <ele>628.84</ele>
        <time>2022-04-29T09:44:20Z</time>
      </trkpt>
      <trkpt lat="41.72768" lon="9.08994">
        <ele>629.32</ele>
        <time>2022-04-29T09:44:45Z</time>
      </trkpt>
      <trkpt lat="41.72766" lon="9.08996">
        <ele>629.32</ele>
        <time>2022-04-29T09:45:19Z</time>
      </trkpt>
      <trkpt lat="41.72769" lon="9.08993">
        <ele>629.32</ele>
        <time>2022-04-29T09:45:59Z</time>
      </trkpt>
      <trkpt lat="41.72776" lon="9.08993">
        <ele>628.84</ele>
        <time>2022-04-29T09:46:19Z</time>
      </trkpt>
      <trkpt lat="41.72781" lon="9.08997">
        <ele>626.44</ele>
        <time>2022-04-29T09:46:26Z</time>
      </trkpt>
      <trkpt lat="41.72791" lon="9.09002">
        <ele>623.55</ele>
        <time>2022-04-29T09:46:37Z</time>
      </trkpt>
      <trkpt lat="41.72811" lon="9.09009">
        <ele>620.67</ele>
        <time>2022-04-29T09:46:51Z</time>
      </trkpt>
      <trkpt lat="41.72813" lon="9.09013">
        <ele>620.19</ele>
        <time>2022-04-29T09:46:53Z</time>
      </trkpt>
      <trkpt lat="41.72829" lon="9.09029">
        <ele>617.3</ele>
        <time>2022-04-29T09:47:08Z</time>
      </trkpt>
      <trkpt lat="41.72843" lon="9.09035">
        <ele>613.94</ele>
        <time>2022-04-29T09:47:23Z</time>
      </trkpt>
      <trkpt lat="41.7286" lon="9.0904">
        <ele>612.02</ele>
        <time>2022-04-29T09:47:40Z</time>
      </trkpt>
      <trkpt lat="41.72879" lon="9.09032">
        <ele>610.09</ele>
        <time>2022-04-29T09:48:01Z</time>
      </trkpt>
      <trkpt lat="41.7289" lon="9.09042">
        <ele>607.21</ele>
        <time>2022-04-29T09:48:17Z</time>
      </trkpt>
      <trkpt lat="41.72888" lon="9.09061">
        <ele>604.81</ele>
        <time>2022-04-29T09:48:32Z</time>
      </trkpt>
      <trkpt lat="41.72887" lon="9.0907">
        <ele>603.36</ele>
        <time>2022-04-29T09:48:42Z</time>
      </trkpt>
      <trkpt lat="41.72884" lon="9.09085">
        <ele>600.48</ele>
        <time>2022-04-29T09:48:55Z</time>
      </trkpt>
      <trkpt lat="41.72881" lon="9.09102">
        <ele>597.6</ele>
        <time>2022-04-29T09:49:10Z</time>
      </trkpt>
      <trkpt lat="41.72876" lon="9.09114">
        <ele>594.23</ele>
        <time>2022-04-29T09:49:21Z</time>
      </trkpt>
      <trkpt lat="41.7287" lon="9.09135">
        <ele>591.35</ele>
        <time>2022-04-29T09:49:39Z</time>
      </trkpt>
      <trkpt lat="41.72865" lon="9.09159">
        <ele>587.98</ele>
        <time>2022-04-29T09:49:55Z</time>
      </trkpt>
      <trkpt lat="41.72877" lon="9.0918">
        <ele>587.02</ele>
        <time>2022-04-29T09:50:13Z</time>
      </trkpt>
      <trkpt lat="41.72876" lon="9.09186">
        <ele>585.58</ele>
        <time>2022-04-29T09:50:27Z</time>
      </trkpt>
      <trkpt lat="41.72873" lon="9.09178">
        <ele>586.54</ele>
        <time>2022-04-29T09:50:43Z</time>
      </trkpt>
      <trkpt lat="41.72875" lon="9.09181">
        <ele>592.31</ele>
        <time>2022-04-29T09:57:29Z</time>
      </trkpt>
      <trkpt lat="41.72878" lon="9.09176">
        <ele>592.31</ele>
        <time>2022-04-29T09:57:30Z</time>
      </trkpt>
      <trkpt lat="41.7288" lon="9.09187">
        <ele>588.95</ele>
        <time>2022-04-29T09:57:46Z</time>
      </trkpt>
      <trkpt lat="41.7288" lon="9.09187">
        <ele>588.46</ele>
        <time>2022-04-29T09:57:47Z</time>
      </trkpt>
      <trkpt lat="41.72875" lon="9.09188">
        <ele>585.1</ele>
        <time>2022-04-29T09:57:58Z</time>
      </trkpt>
      <trkpt lat="41.72869" lon="9.09197">
        <ele>582.22</ele>
        <time>2022-04-29T09:58:12Z</time>
      </trkpt>
      <trkpt lat="41.72869" lon="9.09197">
        <ele>581.73</ele>
        <time>2022-04-29T09:58:13Z</time>
      </trkpt>
      <trkpt lat="41.72866" lon="9.09207">
        <ele>578.85</ele>
        <time>2022-04-29T09:58:24Z</time>
      </trkpt>
      <trkpt lat="41.72865" lon="9.09218">
        <ele>576.45</ele>
        <time>2022-04-29T09:58:34Z</time>
      </trkpt>
      <trkpt lat="41.72867" lon="9.09228">
        <ele>573.56</ele>
        <time>2022-04-29T09:58:42Z</time>
      </trkpt>
      <trkpt lat="41.72869" lon="9.09234">
        <ele>572.6</ele>
        <time>2022-04-29T09:58:46Z</time>
      </trkpt>
      <trkpt lat="41.72876" lon="9.09239">
        <ele>571.16</ele>
        <time>2022-04-29T09:58:54Z</time>
      </trkpt>
      <trkpt lat="41.7288" lon="9.09243">
        <ele>569.72</ele>
        <time>2022-04-29T09:58:58Z</time>
      </trkpt>
      <trkpt lat="41.72888" lon="9.0925">
        <ele>566.83</ele>
        <time>2022-04-29T09:59:09Z</time>
      </trkpt>
      <trkpt lat="41.72888" lon="9.0925">
        <ele>566.83</ele>
        <time>2022-04-29T09:59:10Z</time>
      </trkpt>
      <trkpt lat="41.7289" lon="9.09261">
        <ele>566.83</ele>
        <time>2022-04-29T09:59:18Z</time>
      </trkpt>
      <trkpt lat="41.72896" lon="9.09264">
        <ele>564.43</ele>
        <time>2022-04-29T09:59:26Z</time>
      </trkpt>
      <trkpt lat="41.72906" lon="9.09269">
        <ele>563.95</ele>
        <time>2022-04-29T09:59:40Z</time>
      </trkpt>
      <trkpt lat="41.72921" lon="9.09268">
        <ele>563.95</ele>
        <time>2022-04-29T09:59:56Z</time>
      </trkpt>
      <trkpt lat="41.72937" lon="9.09268">
        <ele>564.43</ele>
        <time>2022-04-29T10:00:07Z</time>
      </trkpt>
      <trkpt lat="41.72947" lon="9.09265">
        <ele>562.51</ele>
        <time>2022-04-29T10:00:16Z</time>
      </trkpt>
      <trkpt lat="41.72948" lon="9.09264">
        <ele>564.43</ele>
        <time>2022-04-29T10:00:18Z</time>
      </trkpt>
      <trkpt lat="41.72946" lon="9.09248">
        <ele>561.07</ele>
        <time>2022-04-29T10:00:34Z</time>
      </trkpt>
      <trkpt lat="41.72948" lon="9.09246">
        <ele>560.11</ele>
        <time>2022-04-29T10:00:37Z</time>
      </trkpt>
      <trkpt lat="41.7296" lon="9.09244">
        <ele>556.26</ele>
        <time>2022-04-29T10:00:49Z</time>
      </trkpt>
      <trkpt lat="41.72965" lon="9.09244">
        <ele>555.78</ele>
        <time>2022-04-29T10:00:51Z</time>
      </trkpt>
      <trkpt lat="41.72971" lon="9.09245">
        <ele>554.34</ele>
        <time>2022-04-29T10:00:54Z</time>
      </trkpt>
      <trkpt lat="41.72978" lon="9.09238">
        <ele>551.45</ele>
        <time>2022-04-29T10:01:16Z</time>
      </trkpt>
      <trkpt lat="41.72981" lon="9.09225">
        <ele>548.09</ele>
        <time>2022-04-29T10:01:29Z</time>
      </trkpt>
      <trkpt lat="41.72988" lon="9.09219">
        <ele>545.2</ele>
        <time>2022-04-29T10:01:40Z</time>
      </trkpt>
      <trkpt lat="41.72999" lon="9.09209">
        <ele>541.36</ele>
        <time>2022-04-29T10:01:53Z</time>
      </trkpt>
      <trkpt lat="41.73003" lon="9.09189">
        <ele>537.51</ele>
        <time>2022-04-29T10:02:10Z</time>
      </trkpt>
      <trkpt lat="41.73012" lon="9.09192">
        <ele>534.63</ele>
        <time>2022-04-29T10:02:22Z</time>
      </trkpt>
      <trkpt lat="41.73018" lon="9.09191">
        <ele>531.27</ele>
        <time>2022-04-29T10:02:32Z</time>
      </trkpt>
      <trkpt lat="41.73024" lon="9.09186">
        <ele>531.27</ele>
        <time>2022-04-29T10:02:57Z</time>
      </trkpt>
      <trkpt lat="41.73029" lon="9.09185">
        <ele>531.27</ele>
        <time>2022-04-29T10:03:24Z</time>
      </trkpt>
      <trkpt lat="41.73029" lon="9.09181">
        <ele>527.9</ele>
        <time>2022-04-29T10:03:34Z</time>
      </trkpt>
      <trkpt lat="41.73038" lon="9.09173">
        <ele>525.02</ele>
        <time>2022-04-29T10:03:44Z</time>
      </trkpt>
      <trkpt lat="41.73046" lon="9.0916">
        <ele>523.09</ele>
        <time>2022-04-29T10:04:00Z</time>
      </trkpt>
      <trkpt lat="41.73053" lon="9.09158">
        <ele>521.17</ele>
        <time>2022-04-29T10:04:08Z</time>
      </trkpt>
      <trkpt lat="41.73071" lon="9.09162">
        <ele>519.73</ele>
        <time>2022-04-29T10:04:24Z</time>
      </trkpt>
      <trkpt lat="41.73086" lon="9.09168">
        <ele>516.37</ele>
        <time>2022-04-29T10:04:36Z</time>
      </trkpt>
      <trkpt lat="41.73104" lon="9.09166">
        <ele>513</ele>
        <time>2022-04-29T10:04:52Z</time>
      </trkpt>
      <trkpt lat="41.73125" lon="9.09171">
        <ele>511.08</ele>
        <time>2022-04-29T10:05:05Z</time>
      </trkpt>
      <trkpt lat="41.7315" lon="9.09177">
        <ele>509.16</ele>
        <time>2022-04-29T10:05:25Z</time>
      </trkpt>
      <trkpt lat="41.73177" lon="9.09179">
        <ele>507.71</ele>
        <time>2022-04-29T10:05:45Z</time>
      </trkpt>
      <trkpt lat="41.73196" lon="9.09179">
        <ele>503.39</ele>
        <time>2022-04-29T10:06:02Z</time>
      </trkpt>
      <trkpt lat="41.73197" lon="9.0918">
        <ele>508.67</ele>
        <time>2022-04-29T10:06:03Z</time>
      </trkpt>
      <trkpt lat="41.73208" lon="9.09178">
        <ele>506.75</ele>
        <time>2022-04-29T10:06:25Z</time>
      </trkpt>
      <trkpt lat="41.73222" lon="9.09181">
        <ele>507.71</ele>
        <time>2022-04-29T10:06:44Z</time>
      </trkpt>
      <trkpt lat="41.73242" lon="9.09193">
        <ele>504.83</ele>
        <time>2022-04-29T10:07:02Z</time>
      </trkpt>
      <trkpt lat="41.73247" lon="9.09196">
        <ele>503.87</ele>
        <time>2022-04-29T10:07:06Z</time>
      </trkpt>
      <trkpt lat="41.73255" lon="9.09199">
        <ele>502.91</ele>
        <time>2022-04-29T10:07:12Z</time>
      </trkpt>
      <trkpt lat="41.73268" lon="9.09202">
        <ele>500.5</ele>
        <time>2022-04-29T10:07:23Z</time>
      </trkpt>
      <trkpt lat="41.73289" lon="9.09213">
        <ele>499.54</ele>
        <time>2022-04-29T10:07:43Z</time>
      </trkpt>
      <trkpt lat="41.73302" lon="9.09226">
        <ele>496.66</ele>
        <time>2022-04-29T10:07:58Z</time>
      </trkpt>
      <trkpt lat="41.73321" lon="9.0924">
        <ele>495.22</ele>
        <time>2022-04-29T10:08:17Z</time>
      </trkpt>
      <trkpt lat="41.73337" lon="9.09253">
        <ele>494.26</ele>
        <time>2022-04-29T10:08:33Z</time>
      </trkpt>
      <trkpt lat="41.73348" lon="9.09267">
        <ele>491.85</ele>
        <time>2022-04-29T10:08:49Z</time>
      </trkpt>
      <trkpt lat="41.73357" lon="9.09276">
        <ele>490.41</ele>
        <time>2022-04-29T10:09:07Z</time>
      </trkpt>
      <trkpt lat="41.73355" lon="9.09274">
        <ele>493.29</ele>
        <time>2022-04-29T10:09:40Z</time>
      </trkpt>
      <trkpt lat="41.73351" lon="9.09272">
        <ele>489.45</ele>
        <time>2022-04-29T10:09:51Z</time>
      </trkpt>
      <trkpt lat="41.73349" lon="9.09272">
        <ele>490.41</ele>
        <time>2022-04-29T10:10:24Z</time>
      </trkpt>
      <trkpt lat="41.73353" lon="9.09271">
        <ele>490.41</ele>
        <time>2022-04-29T10:10:31Z</time>
      </trkpt>
      <trkpt lat="41.73356" lon="9.09267">
        <ele>490.89</ele>
        <time>2022-04-29T10:10:55Z</time>
      </trkpt>
      <trkpt lat="41.73357" lon="9.09265">
        <ele>489.93</ele>
        <time>2022-04-29T10:11:21Z</time>
      </trkpt>
      <trkpt lat="41.73366" lon="9.09279">
        <ele>486.56</ele>
        <time>2022-04-29T10:11:35Z</time>
      </trkpt>
      <trkpt lat="41.73368" lon="9.09279">
        <ele>486.08</ele>
        <time>2022-04-29T10:11:37Z</time>
      </trkpt>
      <trkpt lat="41.73374" lon="9.09283">
        <ele>483.2</ele>
        <time>2022-04-29T10:11:52Z</time>
      </trkpt>
      <trkpt lat="41.73383" lon="9.09289">
        <ele>480.32</ele>
        <time>2022-04-29T10:12:06Z</time>
      </trkpt>
      <trkpt lat="41.73397" lon="9.09297">
        <ele>476.95</ele>
        <time>2022-04-29T10:12:18Z</time>
      </trkpt>
      <trkpt lat="41.73404" lon="9.09298">
        <ele>475.51</ele>
        <time>2022-04-29T10:12:31Z</time>
      </trkpt>
      <trkpt lat="41.73412" lon="9.0929">
        <ele>472.14</ele>
        <time>2022-04-29T10:12:47Z</time>
      </trkpt>
      <trkpt lat="41.73413" lon="9.09279">
        <ele>468.78</ele>
        <time>2022-04-29T10:13:00Z</time>
      </trkpt>
      <trkpt lat="41.73416" lon="9.09268">
        <ele>465.42</ele>
        <time>2022-04-29T10:13:12Z</time>
      </trkpt>
      <trkpt lat="41.73416" lon="9.09268">
        <ele>464.45</ele>
        <time>2022-04-29T10:13:14Z</time>
      </trkpt>
      <trkpt lat="41.73425" lon="9.09271">
        <ele>461.57</ele>
        <time>2022-04-29T10:13:25Z</time>
      </trkpt>
      <trkpt lat="41.73432" lon="9.0928">
        <ele>461.09</ele>
        <time>2022-04-29T10:13:45Z</time>
      </trkpt>
      <trkpt lat="41.73436" lon="9.09286">
        <ele>460.61</ele>
        <time>2022-04-29T10:13:51Z</time>
      </trkpt>
      <trkpt lat="41.73443" lon="9.09296">
        <ele>455.8</ele>
        <time>2022-04-29T10:14:03Z</time>
      </trkpt>
      <trkpt lat="41.73444" lon="9.09285">
        <ele>453.88</ele>
        <time>2022-04-29T10:14:21Z</time>
      </trkpt>
      <trkpt lat="41.73444" lon="9.09277">
        <ele>451.96</ele>
        <time>2022-04-29T10:14:28Z</time>
      </trkpt>
      <trkpt lat="41.73448" lon="9.09268">
        <ele>448.59</ele>
        <time>2022-04-29T10:14:37Z</time>
      </trkpt>
      <trkpt lat="41.73459" lon="9.09268">
        <ele>445.23</ele>
        <time>2022-04-29T10:14:45Z</time>
      </trkpt>
      <trkpt lat="41.73467" lon="9.09273">
        <ele>442.34</ele>
        <time>2022-04-29T10:14:56Z</time>
      </trkpt>
      <trkpt lat="41.7348" lon="9.09277">
        <ele>439.94</ele>
        <time>2022-04-29T10:15:21Z</time>
      </trkpt>
      <trkpt lat="41.73467" lon="9.09281">
        <ele>439.46</ele>
        <time>2022-04-29T10:15:44Z</time>
      </trkpt>
      <trkpt lat="41.73474" lon="9.09276">
        <ele>438.98</ele>
        <time>2022-04-29T10:16:16Z</time>
      </trkpt>
      <trkpt lat="41.73497" lon="9.09287">
        <ele>438.5</ele>
        <time>2022-04-29T10:16:43Z</time>
      </trkpt>
      <trkpt lat="41.73503" lon="9.09275">
        <ele>437.06</ele>
        <time>2022-04-29T10:16:58Z</time>
      </trkpt>
      <trkpt lat="41.73505" lon="9.09271">
        <ele>433.69</ele>
        <time>2022-04-29T10:17:10Z</time>
      </trkpt>
      <trkpt lat="41.7351" lon="9.09272">
        <ele>430.33</ele>
        <time>2022-04-29T10:17:20Z</time>
      </trkpt>
      <trkpt lat="41.73516" lon="9.09274">
        <ele>426.48</ele>
        <time>2022-04-29T10:17:30Z</time>
      </trkpt>
      <trkpt lat="41.73518" lon="9.09275">
        <ele>426</ele>
        <time>2022-04-29T10:17:32Z</time>
      </trkpt>
      <trkpt lat="41.73522" lon="9.09272">
        <ele>422.64</ele>
        <time>2022-04-29T10:17:43Z</time>
      </trkpt>
      <trkpt lat="41.73525" lon="9.09267">
        <ele>419.27</ele>
        <time>2022-04-29T10:17:54Z</time>
      </trkpt>
      <trkpt lat="41.73532" lon="9.09271">
        <ele>416.39</ele>
        <time>2022-04-29T10:18:04Z</time>
      </trkpt>
      <trkpt lat="41.73542" lon="9.09276">
        <ele>412.54</ele>
        <time>2022-04-29T10:18:17Z</time>
      </trkpt>
      <trkpt lat="41.73549" lon="9.09281">
        <ele>409.66</ele>
        <time>2022-04-29T10:18:28Z</time>
      </trkpt>
      <trkpt lat="41.73552" lon="9.09277">
        <ele>406.77</ele>
        <time>2022-04-29T10:18:38Z</time>
      </trkpt>
      <trkpt lat="41.73553" lon="9.09273">
        <ele>403.41</ele>
        <time>2022-04-29T10:18:47Z</time>
      </trkpt>
      <trkpt lat="41.73562" lon="9.09282">
        <ele>400.53</ele>
        <time>2022-04-29T10:19:02Z</time>
      </trkpt>
      <trkpt lat="41.73565" lon="9.09287">
        <ele>398.6</ele>
        <time>2022-04-29T10:19:08Z</time>
      </trkpt>
      <trkpt lat="41.7357" lon="9.09289">
        <ele>395.72</ele>
        <time>2022-04-29T10:19:23Z</time>
      </trkpt>
      <trkpt lat="41.73578" lon="9.09293">
        <ele>392.36</ele>
        <time>2022-04-29T10:19:36Z</time>
      </trkpt>
      <trkpt lat="41.73585" lon="9.09299">
        <ele>390.43</ele>
        <time>2022-04-29T10:19:49Z</time>
      </trkpt>
      <trkpt lat="41.73587" lon="9.09302">
        <ele>388.03</ele>
        <time>2022-04-29T10:19:53Z</time>
      </trkpt>
      <trkpt lat="41.73594" lon="9.09296">
        <ele>385.15</ele>
        <time>2022-04-29T10:20:06Z</time>
      </trkpt>
      <trkpt lat="41.73594" lon="9.09286">
        <ele>382.26</ele>
        <time>2022-04-29T10:20:19Z</time>
      </trkpt>
      <trkpt lat="41.73595" lon="9.09265">
        <ele>379.86</ele>
        <time>2022-04-29T10:20:38Z</time>
      </trkpt>
      <trkpt lat="41.7359" lon="9.09248">
        <ele>376.97</ele>
        <time>2022-04-29T10:20:50Z</time>
      </trkpt>
      <trkpt lat="41.73589" lon="9.09226">
        <ele>373.61</ele>
        <time>2022-04-29T10:21:08Z</time>
      </trkpt>
      <trkpt lat="41.73598" lon="9.09227">
        <ele>370.24</ele>
        <time>2022-04-29T10:21:20Z</time>
      </trkpt>
      <trkpt lat="41.7361" lon="9.09237">
        <ele>367.84</ele>
        <time>2022-04-29T10:21:32Z</time>
      </trkpt>
      <trkpt lat="41.73615" lon="9.09251">
        <ele>367.36</ele>
        <time>2022-04-29T10:21:48Z</time>
      </trkpt>
      <trkpt lat="41.73617" lon="9.09253">
        <ele>367.36</ele>
        <time>2022-04-29T10:21:49Z</time>
      </trkpt>
      <trkpt lat="41.73631" lon="9.0928">
        <ele>365.92</ele>
        <time>2022-04-29T10:22:06Z</time>
      </trkpt>
      <trkpt lat="41.73634" lon="9.09294">
        <ele>364.48</ele>
        <time>2022-04-29T10:22:18Z</time>
      </trkpt>
      <trkpt lat="41.73642" lon="9.09307">
        <ele>363.04</ele>
        <time>2022-04-29T10:22:37Z</time>
      </trkpt>
      <trkpt lat="41.7364" lon="9.0931">
        <ele>362.55</ele>
        <time>2022-04-29T10:22:53Z</time>
      </trkpt>
      <trkpt lat="41.7364" lon="9.0931">
        <ele>370.24</ele>
        <time>2022-04-29T11:08:32Z</time>
      </trkpt>
      <trkpt lat="41.73612" lon="9.09303">
        <ele>371.21</ele>
        <time>2022-04-29T11:08:33Z</time>
      </trkpt>
      <trkpt lat="41.73609" lon="9.09302">
        <ele>371.21</ele>
        <time>2022-04-29T11:08:47Z</time>
      </trkpt>
      <trkpt lat="41.73613" lon="9.09309">
        <ele>372.65</ele>
        <time>2022-04-29T11:09:04Z</time>
      </trkpt>
      <trkpt lat="41.73614" lon="9.09327">
        <ele>372.65</ele>
        <time>2022-04-29T11:09:27Z</time>
      </trkpt>
      <trkpt lat="41.73611" lon="9.09327">
        <ele>371.21</ele>
        <time>2022-04-29T11:09:50Z</time>
      </trkpt>
      <trkpt lat="41.73618" lon="9.09336">
        <ele>372.17</ele>
        <time>2022-04-29T11:10:05Z</time>
      </trkpt>
      <trkpt lat="41.73622" lon="9.09342">
        <ele>372.65</ele>
        <time>2022-04-29T11:10:19Z</time>
      </trkpt>
      <trkpt lat="41.73624" lon="9.09346">
        <ele>372.65</ele>
        <time>2022-04-29T11:10:41Z</time>
      </trkpt>
      <trkpt lat="41.73623" lon="9.0935">
        <ele>371.69</ele>
        <time>2022-04-29T11:10:49Z</time>
      </trkpt>
      <trkpt lat="41.73635" lon="9.09352">
        <ele>372.17</ele>
        <time>2022-04-29T11:11:10Z</time>
      </trkpt>
      <trkpt lat="41.7363" lon="9.09359">
        <ele>370.73</ele>
        <time>2022-04-29T11:11:26Z</time>
      </trkpt>
      <trkpt lat="41.73631" lon="9.09368">
        <ele>373.61</ele>
        <time>2022-04-29T11:11:42Z</time>
      </trkpt>
      <trkpt lat="41.73632" lon="9.09373">
        <ele>376.97</ele>
        <time>2022-04-29T11:12:01Z</time>
      </trkpt>
      <trkpt lat="41.73638" lon="9.09373">
        <ele>378.9</ele>
        <time>2022-04-29T11:12:16Z</time>
      </trkpt>
      <trkpt lat="41.73646" lon="9.09375">
        <ele>380.82</ele>
        <time>2022-04-29T11:12:37Z</time>
      </trkpt>
      <trkpt lat="41.73655" lon="9.09378">
        <ele>383.22</ele>
        <time>2022-04-29T11:12:58Z</time>
      </trkpt>
      <trkpt lat="41.73653" lon="9.09389">
        <ele>385.63</ele>
        <time>2022-04-29T11:13:15Z</time>
      </trkpt>
      <trkpt lat="41.73654" lon="9.09398">
        <ele>388.03</ele>
        <time>2022-04-29T11:13:34Z</time>
      </trkpt>
      <trkpt lat="41.7366" lon="9.09409">
        <ele>390.91</ele>
        <time>2022-04-29T11:13:48Z</time>
      </trkpt>
      <trkpt lat="41.73648" lon="9.09415">
        <ele>391.87</ele>
        <time>2022-04-29T11:14:05Z</time>
      </trkpt>
      <trkpt lat="41.73646" lon="9.09431">
        <ele>390.43</ele>
        <time>2022-04-29T11:14:22Z</time>
      </trkpt>
      <trkpt lat="41.73652" lon="9.0945">
        <ele>390.91</ele>
        <time>2022-04-29T11:14:43Z</time>
      </trkpt>
      <trkpt lat="41.73651" lon="9.09481">
        <ele>388.03</ele>
        <time>2022-04-29T11:15:02Z</time>
      </trkpt>
      <trkpt lat="41.73649" lon="9.0949">
        <ele>388.03</ele>
        <time>2022-04-29T11:15:09Z</time>
      </trkpt>
      <trkpt lat="41.73654" lon="9.0952">
        <ele>388.03</ele>
        <time>2022-04-29T11:15:26Z</time>
      </trkpt>
      <trkpt lat="41.73662" lon="9.09544">
        <ele>387.55</ele>
        <time>2022-04-29T11:15:43Z</time>
      </trkpt>
      <trkpt lat="41.7367" lon="9.09566">
        <ele>388.51</ele>
        <time>2022-04-29T11:16:01Z</time>
      </trkpt>
      <trkpt lat="41.73679" lon="9.09588">
        <ele>389.47</ele>
        <time>2022-04-29T11:16:20Z</time>
      </trkpt>
      <trkpt lat="41.73685" lon="9.09599">
        <ele>391.87</ele>
        <time>2022-04-29T11:16:36Z</time>
      </trkpt>
      <trkpt lat="41.73696" lon="9.09611">
        <ele>392.36</ele>
        <time>2022-04-29T11:16:49Z</time>
      </trkpt>
      <trkpt lat="41.73709" lon="9.09625">
        <ele>393.8</ele>
        <time>2022-04-29T11:17:07Z</time>
      </trkpt>
      <trkpt lat="41.73719" lon="9.09635">
        <ele>394.28</ele>
        <time>2022-04-29T11:17:23Z</time>
      </trkpt>
      <trkpt lat="41.73742" lon="9.09649">
        <ele>395.24</ele>
        <time>2022-04-29T11:17:42Z</time>
      </trkpt>
      <trkpt lat="41.73748" lon="9.09669">
        <ele>396.2</ele>
        <time>2022-04-29T11:17:57Z</time>
      </trkpt>
      <trkpt lat="41.7376" lon="9.09685">
        <ele>397.64</ele>
        <time>2022-04-29T11:18:12Z</time>
      </trkpt>
      <trkpt lat="41.73759" lon="9.09688">
        <ele>396.2</ele>
        <time>2022-04-29T11:18:17Z</time>
      </trkpt>
      <trkpt lat="41.73766" lon="9.09698">
        <ele>397.64</ele>
        <time>2022-04-29T11:18:32Z</time>
      </trkpt>
      <trkpt lat="41.73769" lon="9.09707">
        <ele>396.68</ele>
        <time>2022-04-29T11:18:40Z</time>
      </trkpt>
      <trkpt lat="41.73769" lon="9.09709">
        <ele>398.6</ele>
        <time>2022-04-29T11:18:43Z</time>
      </trkpt>
      <trkpt lat="41.73766" lon="9.09726">
        <ele>400.05</ele>
        <time>2022-04-29T11:18:59Z</time>
      </trkpt>
      <trkpt lat="41.7377" lon="9.09751">
        <ele>400.05</ele>
        <time>2022-04-29T11:19:15Z</time>
      </trkpt>
      <trkpt lat="41.73778" lon="9.09777">
        <ele>400.05</ele>
        <time>2022-04-29T11:19:34Z</time>
      </trkpt>
      <trkpt lat="41.7379" lon="9.09796">
        <ele>401.97</ele>
        <time>2022-04-29T11:19:50Z</time>
      </trkpt>
      <trkpt lat="41.73793" lon="9.09804">
        <ele>401.49</ele>
        <time>2022-04-29T11:20:06Z</time>
      </trkpt>
      <trkpt lat="41.7381" lon="9.09811">
        <ele>402.45</ele>
        <time>2022-04-29T11:20:23Z</time>
      </trkpt>
      <trkpt lat="41.73827" lon="9.09817">
        <ele>401.49</ele>
        <time>2022-04-29T11:20:38Z</time>
      </trkpt>
      <trkpt lat="41.73842" lon="9.09823">
        <ele>402.93</ele>
        <time>2022-04-29T11:20:52Z</time>
      </trkpt>
      <trkpt lat="41.73858" lon="9.0983">
        <ele>402.93</ele>
        <time>2022-04-29T11:21:07Z</time>
      </trkpt>
      <trkpt lat="41.73871" lon="9.09831">
        <ele>404.85</ele>
        <time>2022-04-29T11:21:22Z</time>
      </trkpt>
      <trkpt lat="41.73882" lon="9.09821">
        <ele>405.81</ele>
        <time>2022-04-29T11:21:37Z</time>
      </trkpt>
      <trkpt lat="41.73892" lon="9.09815">
        <ele>409.18</ele>
        <time>2022-04-29T11:21:53Z</time>
      </trkpt>
      <trkpt lat="41.739" lon="9.09812">
        <ele>412.06</ele>
        <time>2022-04-29T11:22:12Z</time>
      </trkpt>
      <trkpt lat="41.73908" lon="9.09811">
        <ele>414.95</ele>
        <time>2022-04-29T11:22:24Z</time>
      </trkpt>
      <trkpt lat="41.73912" lon="9.09802">
        <ele>416.87</ele>
        <time>2022-04-29T11:22:38Z</time>
      </trkpt>
      <trkpt lat="41.73909" lon="9.0979">
        <ele>419.27</ele>
        <time>2022-04-29T11:22:51Z</time>
      </trkpt>
      <trkpt lat="41.73909" lon="9.09786">
        <ele>419.75</ele>
        <time>2022-04-29T11:22:56Z</time>
      </trkpt>
      <trkpt lat="41.73909" lon="9.09776">
        <ele>421.68</ele>
        <time>2022-04-29T11:23:10Z</time>
      </trkpt>
      <trkpt lat="41.73911" lon="9.09766">
        <ele>424.08</ele>
        <time>2022-04-29T11:23:24Z</time>
      </trkpt>
      <trkpt lat="41.73912" lon="9.09771">
        <ele>425.04</ele>
        <time>2022-04-29T11:23:37Z</time>
      </trkpt>
      <trkpt lat="41.73915" lon="9.09776">
        <ele>425.04</ele>
        <time>2022-04-29T11:23:54Z</time>
      </trkpt>
      <trkpt lat="41.7392" lon="9.09778">
        <ele>424.56</ele>
        <time>2022-04-29T11:24:12Z</time>
      </trkpt>
      <trkpt lat="41.73923" lon="9.09781">
        <ele>425.04</ele>
        <time>2022-04-29T11:24:18Z</time>
      </trkpt>
      <trkpt lat="41.73926" lon="9.09784">
        <ele>425.04</ele>
        <time>2022-04-29T11:24:21Z</time>
      </trkpt>
      <trkpt lat="41.73931" lon="9.09785">
        <ele>425.04</ele>
        <time>2022-04-29T11:24:25Z</time>
      </trkpt>
      <trkpt lat="41.7394" lon="9.09798">
        <ele>426</ele>
        <time>2022-04-29T11:24:38Z</time>
      </trkpt>
      <trkpt lat="41.73957" lon="9.09819">
        <ele>427.92</ele>
        <time>2022-04-29T11:24:58Z</time>
      </trkpt>
      <trkpt lat="41.73967" lon="9.09836">
        <ele>427.92</ele>
        <time>2022-04-29T11:25:14Z</time>
      </trkpt>
      <trkpt lat="41.73982" lon="9.09853">
        <ele>428.89</ele>
        <time>2022-04-29T11:25:30Z</time>
      </trkpt>
      <trkpt lat="41.73997" lon="9.0986">
        <ele>429.85</ele>
        <time>2022-04-29T11:25:46Z</time>
      </trkpt>
      <trkpt lat="41.74016" lon="9.09868">
        <ele>431.29</ele>
        <time>2022-04-29T11:26:04Z</time>
      </trkpt>
      <trkpt lat="41.74035" lon="9.09867">
        <ele>432.25</ele>
        <time>2022-04-29T11:26:22Z</time>
      </trkpt>
      <trkpt lat="41.74043" lon="9.09863">
        <ele>431.77</ele>
        <time>2022-04-29T11:26:32Z</time>
      </trkpt>
      <trkpt lat="41.74055" lon="9.09862">
        <ele>431.77</ele>
        <time>2022-04-29T11:26:43Z</time>
      </trkpt>
      <trkpt lat="41.74072" lon="9.0985">
        <ele>433.21</ele>
        <time>2022-04-29T11:26:58Z</time>
      </trkpt>
      <trkpt lat="41.74074" lon="9.09849">
        <ele>433.69</ele>
        <time>2022-04-29T11:27:00Z</time>
      </trkpt>
      <trkpt lat="41.74088" lon="9.09832">
        <ele>433.69</ele>
        <time>2022-04-29T11:27:15Z</time>
      </trkpt>
      <trkpt lat="41.74099" lon="9.09816">
        <ele>436.58</ele>
        <time>2022-04-29T11:27:28Z</time>
      </trkpt>
      <trkpt lat="41.74106" lon="9.09809">
        <ele>436.58</ele>
        <time>2022-04-29T11:27:35Z</time>
      </trkpt>
      <trkpt lat="41.74121" lon="9.09814">
        <ele>438.5</ele>
        <time>2022-04-29T11:27:49Z</time>
      </trkpt>
      <trkpt lat="41.74124" lon="9.0983">
        <ele>439.94</ele>
        <time>2022-04-29T11:28:00Z</time>
      </trkpt>
      <trkpt lat="41.7412" lon="9.09856">
        <ele>440.9</ele>
        <time>2022-04-29T11:28:17Z</time>
      </trkpt>
      <trkpt lat="41.74117" lon="9.09882">
        <ele>441.86</ele>
        <time>2022-04-29T11:28:32Z</time>
      </trkpt>
      <trkpt lat="41.74117" lon="9.09893">
        <ele>441.86</ele>
        <time>2022-04-29T11:28:39Z</time>
      </trkpt>
      <trkpt lat="41.74123" lon="9.09913">
        <ele>443.31</ele>
        <time>2022-04-29T11:28:54Z</time>
      </trkpt>
      <trkpt lat="41.74133" lon="9.09931">
        <ele>444.27</ele>
        <time>2022-04-29T11:29:09Z</time>
      </trkpt>
      <trkpt lat="41.74138" lon="9.09935">
        <ele>445.23</ele>
        <time>2022-04-29T11:29:15Z</time>
      </trkpt>
      <trkpt lat="41.7415" lon="9.09937">
        <ele>444.75</ele>
        <time>2022-04-29T11:29:25Z</time>
      </trkpt>
      <trkpt lat="41.74168" lon="9.09934">
        <ele>446.19</ele>
        <time>2022-04-29T11:29:42Z</time>
      </trkpt>
      <trkpt lat="41.74189" lon="9.09934">
        <ele>447.15</ele>
        <time>2022-04-29T11:30:01Z</time>
      </trkpt>
      <trkpt lat="41.74207" lon="9.09948">
        <ele>447.63</ele>
        <time>2022-04-29T11:30:18Z</time>
      </trkpt>
      <trkpt lat="41.74218" lon="9.09961">
        <ele>448.11</ele>
        <time>2022-04-29T11:30:30Z</time>
      </trkpt>
      <trkpt lat="41.74233" lon="9.09974">
        <ele>449.07</ele>
        <time>2022-04-29T11:30:46Z</time>
      </trkpt>
      <trkpt lat="41.74248" lon="9.09988">
        <ele>451</ele>
        <time>2022-04-29T11:31:03Z</time>
      </trkpt>
      <trkpt lat="41.74262" lon="9.09999">
        <ele>451.48</ele>
        <time>2022-04-29T11:31:17Z</time>
      </trkpt>
      <trkpt lat="41.74279" lon="9.10012">
        <ele>452.44</ele>
        <time>2022-04-29T11:31:34Z</time>
      </trkpt>
      <trkpt lat="41.74294" lon="9.10025">
        <ele>453.88</ele>
        <time>2022-04-29T11:31:52Z</time>
      </trkpt>
      <trkpt lat="41.74301" lon="9.10043">
        <ele>455.32</ele>
        <time>2022-04-29T11:32:08Z</time>
      </trkpt>
      <trkpt lat="41.74311" lon="9.10042">
        <ele>455.8</ele>
        <time>2022-04-29T11:32:22Z</time>
      </trkpt>
      <trkpt lat="41.74324" lon="9.10038">
        <ele>458.69</ele>
        <time>2022-04-29T11:32:37Z</time>
      </trkpt>
      <trkpt lat="41.74335" lon="9.10042">
        <ele>460.61</ele>
        <time>2022-04-29T11:32:52Z</time>
      </trkpt>
      <trkpt lat="41.74347" lon="9.10041">
        <ele>462.05</ele>
        <time>2022-04-29T11:33:05Z</time>
      </trkpt>
      <trkpt lat="41.74359" lon="9.10041">
        <ele>464.93</ele>
        <time>2022-04-29T11:33:23Z</time>
      </trkpt>
      <trkpt lat="41.74371" lon="9.1004">
        <ele>467.34</ele>
        <time>2022-04-29T11:33:38Z</time>
      </trkpt>
      <trkpt lat="41.74377" lon="9.10049">
        <ele>469.26</ele>
        <time>2022-04-29T11:33:52Z</time>
      </trkpt>
      <trkpt lat="41.74382" lon="9.10055">
        <ele>472.63</ele>
        <time>2022-04-29T11:34:07Z</time>
      </trkpt>
      <trkpt lat="41.74389" lon="9.10059">
        <ele>475.51</ele>
        <time>2022-04-29T11:34:23Z</time>
      </trkpt>
      <trkpt lat="41.74394" lon="9.10062">
        <ele>478.87</ele>
        <time>2022-04-29T11:34:42Z</time>
      </trkpt>
      <trkpt lat="41.74404" lon="9.10052">
        <ele>481.76</ele>
        <time>2022-04-29T11:35:00Z</time>
      </trkpt>
      <trkpt lat="41.74415" lon="9.10043">
        <ele>484.16</ele>
        <time>2022-04-29T11:35:17Z</time>
      </trkpt>
      <trkpt lat="41.74416" lon="9.10049">
        <ele>487.05</ele>
        <time>2022-04-29T11:35:28Z</time>
      </trkpt>
      <trkpt lat="41.74414" lon="9.10062">
        <ele>489.45</ele>
        <time>2022-04-29T11:35:43Z</time>
      </trkpt>
      <trkpt lat="41.74418" lon="9.10072">
        <ele>491.85</ele>
        <time>2022-04-29T11:36:02Z</time>
      </trkpt>
      <trkpt lat="41.74425" lon="9.10069">
        <ele>495.22</ele>
        <time>2022-04-29T11:36:17Z</time>
      </trkpt>
      <trkpt lat="41.74438" lon="9.10069">
        <ele>497.62</ele>
        <time>2022-04-29T11:36:35Z</time>
      </trkpt>
      <trkpt lat="41.74452" lon="9.10068">
        <ele>499.54</ele>
        <time>2022-04-29T11:36:50Z</time>
      </trkpt>
      <trkpt lat="41.74465" lon="9.10073">
        <ele>501.95</ele>
        <time>2022-04-29T11:37:08Z</time>
      </trkpt>
      <trkpt lat="41.74476" lon="9.10072">
        <ele>504.83</ele>
        <time>2022-04-29T11:37:25Z</time>
      </trkpt>
      <trkpt lat="41.7449" lon="9.10074">
        <ele>507.23</ele>
        <time>2022-04-29T11:37:42Z</time>
      </trkpt>
      <trkpt lat="41.74503" lon="9.10079">
        <ele>510.12</ele>
        <time>2022-04-29T11:38:02Z</time>
      </trkpt>
      <trkpt lat="41.74517" lon="9.10071">
        <ele>512.52</ele>
        <time>2022-04-29T11:38:19Z</time>
      </trkpt>
      <trkpt lat="41.7453" lon="9.10071">
        <ele>516.37</ele>
        <time>2022-04-29T11:38:38Z</time>
      </trkpt>
      <trkpt lat="41.74545" lon="9.10067">
        <ele>518.29</ele>
        <time>2022-04-29T11:38:57Z</time>
      </trkpt>
      <trkpt lat="41.74546" lon="9.10067">
        <ele>520.21</ele>
        <time>2022-04-29T11:39:00Z</time>
      </trkpt>
      <trkpt lat="41.74553" lon="9.10073">
        <ele>522.61</ele>
        <time>2022-04-29T11:39:17Z</time>
      </trkpt>
      <trkpt lat="41.74562" lon="9.10066">
        <ele>524.54</ele>
        <time>2022-04-29T11:39:30Z</time>
      </trkpt>
      <trkpt lat="41.74574" lon="9.10065">
        <ele>527.42</ele>
        <time>2022-04-29T11:39:47Z</time>
      </trkpt>
      <trkpt lat="41.74578" lon="9.10076">
        <ele>529.82</ele>
        <time>2022-04-29T11:40:03Z</time>
      </trkpt>
      <trkpt lat="41.74577" lon="9.10084">
        <ele>533.19</ele>
        <time>2022-04-29T11:40:20Z</time>
      </trkpt>
      <trkpt lat="41.74584" lon="9.10085">
        <ele>535.11</ele>
        <time>2022-04-29T11:40:37Z</time>
      </trkpt>
      <trkpt lat="41.74583" lon="9.10093">
        <ele>537.51</ele>
        <time>2022-04-29T11:40:51Z</time>
      </trkpt>
      <trkpt lat="41.74573" lon="9.1011">
        <ele>540.4</ele>
        <time>2022-04-29T11:41:10Z</time>
      </trkpt>
      <trkpt lat="41.74569" lon="9.10119">
        <ele>543.28</ele>
        <time>2022-04-29T11:41:27Z</time>
      </trkpt>
      <trkpt lat="41.74566" lon="9.10129">
        <ele>545.2</ele>
        <time>2022-04-29T11:50:11Z</time>
      </trkpt>
      <trkpt lat="41.74583" lon="9.1013">
        <ele>548.09</ele>
        <time>2022-04-29T11:50:31Z</time>
      </trkpt>
      <trkpt lat="41.74597" lon="9.10133">
        <ele>552.41</ele>
        <time>2022-04-29T11:50:45Z</time>
      </trkpt>
      <trkpt lat="41.74598" lon="9.10135">
        <ele>549.05</ele>
        <time>2022-04-29T11:50:48Z</time>
      </trkpt>
      <trkpt lat="41.74606" lon="9.10133">
        <ele>552.41</ele>
        <time>2022-04-29T11:51:01Z</time>
      </trkpt>
      <trkpt lat="41.74616" lon="9.10139">
        <ele>554.34</ele>
        <time>2022-04-29T11:51:16Z</time>
      </trkpt>
      <trkpt lat="41.74617" lon="9.10147">
        <ele>557.7</ele>
        <time>2022-04-29T11:51:31Z</time>
      </trkpt>
      <trkpt lat="41.7463" lon="9.10151">
        <ele>560.59</ele>
        <time>2022-04-29T11:51:47Z</time>
      </trkpt>
      <trkpt lat="41.74643" lon="9.10154">
        <ele>562.51</ele>
        <time>2022-04-29T11:52:01Z</time>
      </trkpt>
      <trkpt lat="41.74652" lon="9.10156">
        <ele>565.87</ele>
        <time>2022-04-29T11:52:18Z</time>
      </trkpt>
      <trkpt lat="41.74662" lon="9.10153">
        <ele>567.8</ele>
        <time>2022-04-29T11:52:32Z</time>
      </trkpt>
      <trkpt lat="41.74669" lon="9.10148">
        <ele>570.68</ele>
        <time>2022-04-29T11:52:47Z</time>
      </trkpt>
      <trkpt lat="41.74666" lon="9.10143">
        <ele>571.64</ele>
        <time>2022-04-29T11:53:04Z</time>
      </trkpt>
      <trkpt lat="41.74663" lon="9.10143">
        <ele>570.68</ele>
        <time>2022-04-29T11:53:12Z</time>
      </trkpt>
      <trkpt lat="41.74672" lon="9.10136">
        <ele>572.6</ele>
        <time>2022-04-29T11:53:28Z</time>
      </trkpt>
      <trkpt lat="41.7468" lon="9.10149">
        <ele>574.53</ele>
        <time>2022-04-29T11:53:42Z</time>
      </trkpt>
      <trkpt lat="41.74683" lon="9.10163">
        <ele>576.45</ele>
        <time>2022-04-29T11:53:57Z</time>
      </trkpt>
      <trkpt lat="41.74688" lon="9.10148">
        <ele>579.33</ele>
        <time>2022-04-29T11:54:17Z</time>
      </trkpt>
      <trkpt lat="41.74697" lon="9.10163">
        <ele>581.73</ele>
        <time>2022-04-29T11:54:37Z</time>
      </trkpt>
      <trkpt lat="41.74702" lon="9.10155">
        <ele>584.62</ele>
        <time>2022-04-29T11:54:56Z</time>
      </trkpt>
      <trkpt lat="41.74712" lon="9.10153">
        <ele>587.5</ele>
        <time>2022-04-29T11:55:15Z</time>
      </trkpt>
      <trkpt lat="41.74715" lon="9.10162">
        <ele>589.43</ele>
        <time>2022-04-29T11:55:32Z</time>
      </trkpt>
      <trkpt lat="41.74721" lon="9.10172">
        <ele>591.35</ele>
        <time>2022-04-29T11:55:49Z</time>
      </trkpt>
      <trkpt lat="41.74724" lon="9.10161">
        <ele>593.27</ele>
        <time>2022-04-29T11:56:03Z</time>
      </trkpt>
      <trkpt lat="41.74728" lon="9.10149">
        <ele>595.67</ele>
        <time>2022-04-29T11:56:19Z</time>
      </trkpt>
      <trkpt lat="41.74734" lon="9.10163">
        <ele>596.64</ele>
        <time>2022-04-29T11:56:33Z</time>
      </trkpt>
      <trkpt lat="41.74737" lon="9.10179">
        <ele>599.04</ele>
        <time>2022-04-29T11:56:50Z</time>
      </trkpt>
      <trkpt lat="41.74739" lon="9.10167">
        <ele>601.44</ele>
        <time>2022-04-29T11:57:06Z</time>
      </trkpt>
      <trkpt lat="41.74745" lon="9.10147">
        <ele>603.36</ele>
        <time>2022-04-29T11:57:25Z</time>
      </trkpt>
      <trkpt lat="41.7475" lon="9.10135">
        <ele>606.73</ele>
        <time>2022-04-29T11:57:43Z</time>
      </trkpt>
      <trkpt lat="41.74758" lon="9.10143">
        <ele>609.61</ele>
        <time>2022-04-29T11:58:02Z</time>
      </trkpt>
      <trkpt lat="41.74764" lon="9.10154">
        <ele>612.5</ele>
        <time>2022-04-29T11:58:23Z</time>
      </trkpt>
      <trkpt lat="41.74765" lon="9.10168">
        <ele>614.9</ele>
        <time>2022-04-29T11:58:40Z</time>
      </trkpt>
      <trkpt lat="41.7477" lon="9.10182">
        <ele>616.82</ele>
        <time>2022-04-29T11:58:56Z</time>
      </trkpt>
      <trkpt lat="41.74774" lon="9.10202">
        <ele>618.26</ele>
        <time>2022-04-29T11:59:15Z</time>
      </trkpt>
      <trkpt lat="41.74773" lon="9.10221">
        <ele>621.15</ele>
        <time>2022-04-29T11:59:36Z</time>
      </trkpt>
      <trkpt lat="41.74776" lon="9.10234">
        <ele>623.07</ele>
        <time>2022-04-29T11:59:56Z</time>
      </trkpt>
      <trkpt lat="41.74777" lon="9.1024">
        <ele>626.44</ele>
        <time>2022-04-29T12:00:15Z</time>
      </trkpt>
      <trkpt lat="41.74784" lon="9.10233">
        <ele>628.84</ele>
        <time>2022-04-29T12:00:36Z</time>
      </trkpt>
      <trkpt lat="41.74784" lon="9.10248">
        <ele>631.72</ele>
        <time>2022-04-29T12:00:53Z</time>
      </trkpt>
      <trkpt lat="41.74784" lon="9.10264">
        <ele>634.13</ele>
        <time>2022-04-29T12:01:11Z</time>
      </trkpt>
      <trkpt lat="41.74794" lon="9.10268">
        <ele>637.01</ele>
        <time>2022-04-29T12:01:28Z</time>
      </trkpt>
      <trkpt lat="41.74798" lon="9.10273">
        <ele>639.89</ele>
        <time>2022-04-29T12:01:48Z</time>
      </trkpt>
      <trkpt lat="41.74791" lon="9.1029">
        <ele>643.26</ele>
        <time>2022-04-29T12:02:03Z</time>
      </trkpt>
      <trkpt lat="41.74788" lon="9.10297">
        <ele>644.22</ele>
        <time>2022-04-29T12:02:18Z</time>
      </trkpt>
      <trkpt lat="41.74779" lon="9.10305">
        <ele>647.59</ele>
        <time>2022-04-29T12:02:33Z</time>
      </trkpt>
      <trkpt lat="41.74793" lon="9.10313">
        <ele>650.47</ele>
        <time>2022-04-29T12:02:50Z</time>
      </trkpt>
      <trkpt lat="41.7478" lon="9.10319">
        <ele>651.91</ele>
        <time>2022-04-29T12:03:05Z</time>
      </trkpt>
      <trkpt lat="41.74775" lon="9.10328">
        <ele>654.8</ele>
        <time>2022-04-29T12:03:17Z</time>
      </trkpt>
      <trkpt lat="41.74781" lon="9.10337">
        <ele>658.16</ele>
        <time>2022-04-29T12:03:34Z</time>
      </trkpt>
      <trkpt lat="41.7479" lon="9.1035">
        <ele>661.52</ele>
        <time>2022-04-29T12:03:53Z</time>
      </trkpt>
      <trkpt lat="41.74804" lon="9.10359">
        <ele>663.93</ele>
        <time>2022-04-29T12:04:11Z</time>
      </trkpt>
      <trkpt lat="41.74821" lon="9.10363">
        <ele>666.33</ele>
        <time>2022-04-29T12:04:32Z</time>
      </trkpt>
      <trkpt lat="41.74838" lon="9.10355">
        <ele>669.22</ele>
        <time>2022-04-29T12:04:52Z</time>
      </trkpt>
      <trkpt lat="41.74851" lon="9.10361">
        <ele>672.1</ele>
        <time>2022-04-29T12:05:10Z</time>
      </trkpt>
      <trkpt lat="41.74857" lon="9.10369">
        <ele>675.46</ele>
        <time>2022-04-29T12:05:25Z</time>
      </trkpt>
      <trkpt lat="41.74866" lon="9.10375">
        <ele>678.35</ele>
        <time>2022-04-29T12:05:41Z</time>
      </trkpt>
      <trkpt lat="41.7488" lon="9.10384">
        <ele>681.23</ele>
        <time>2022-04-29T12:06:02Z</time>
      </trkpt>
      <trkpt lat="41.74891" lon="9.10394">
        <ele>684.6</ele>
        <time>2022-04-29T12:06:21Z</time>
      </trkpt>
      <trkpt lat="41.74906" lon="9.10397">
        <ele>687.48</ele>
        <time>2022-04-29T12:06:40Z</time>
      </trkpt>
      <trkpt lat="41.74913" lon="9.10404">
        <ele>689.88</ele>
        <time>2022-04-29T12:06:59Z</time>
      </trkpt>
      <trkpt lat="41.74931" lon="9.10416">
        <ele>692.29</ele>
        <time>2022-04-29T12:07:19Z</time>
      </trkpt>
      <trkpt lat="41.74948" lon="9.10417">
        <ele>694.21</ele>
        <time>2022-04-29T12:07:36Z</time>
      </trkpt>
      <trkpt lat="41.74961" lon="9.10412">
        <ele>696.61</ele>
        <time>2022-04-29T12:07:55Z</time>
      </trkpt>
      <trkpt lat="41.74972" lon="9.10411">
        <ele>700.46</ele>
        <time>2022-04-29T12:08:08Z</time>
      </trkpt>
      <trkpt lat="41.74988" lon="9.104">
        <ele>699.98</ele>
        <time>2022-04-29T12:08:24Z</time>
      </trkpt>
      <trkpt lat="41.74998" lon="9.10396">
        <ele>702.38</ele>
        <time>2022-04-29T12:08:39Z</time>
      </trkpt>
      <trkpt lat="41.75011" lon="9.10385">
        <ele>705.75</ele>
        <time>2022-04-29T12:08:58Z</time>
      </trkpt>
      <trkpt lat="41.75022" lon="9.10391">
        <ele>709.11</ele>
        <time>2022-04-29T12:09:15Z</time>
      </trkpt>
      <trkpt lat="41.75037" lon="9.10387">
        <ele>712.47</ele>
        <time>2022-04-29T12:09:32Z</time>
      </trkpt>
      <trkpt lat="41.75047" lon="9.10384">
        <ele>715.36</ele>
        <time>2022-04-29T12:09:48Z</time>
      </trkpt>
      <trkpt lat="41.75059" lon="9.10387">
        <ele>717.76</ele>
        <time>2022-04-29T12:10:05Z</time>
      </trkpt>
      <trkpt lat="41.75073" lon="9.10391">
        <ele>719.68</ele>
        <time>2022-04-29T12:10:22Z</time>
      </trkpt>
      <trkpt lat="41.75076" lon="9.10391">
        <ele>720.16</ele>
        <time>2022-04-29T12:10:45Z</time>
      </trkpt>
      <trkpt lat="41.75074" lon="9.10394">
        <ele>719.68</ele>
        <time>2022-04-29T12:11:20Z</time>
      </trkpt>
      <trkpt lat="41.75073" lon="9.1039">
        <ele>720.16</ele>
        <time>2022-04-29T12:11:43Z</time>
      </trkpt>
      <trkpt lat="41.75085" lon="9.10383">
        <ele>721.13</ele>
        <time>2022-04-29T12:11:57Z</time>
      </trkpt>
      <trkpt lat="41.75103" lon="9.10374">
        <ele>723.05</ele>
        <time>2022-04-29T12:12:15Z</time>
      </trkpt>
      <trkpt lat="41.75112" lon="9.10366">
        <ele>726.41</ele>
        <time>2022-04-29T12:12:33Z</time>
      </trkpt>
      <trkpt lat="41.75123" lon="9.10366">
        <ele>729.78</ele>
        <time>2022-04-29T12:12:49Z</time>
      </trkpt>
      <trkpt lat="41.75119" lon="9.10357">
        <ele>733.14</ele>
        <time>2022-04-29T12:13:05Z</time>
      </trkpt>
      <trkpt lat="41.75115" lon="9.10351">
        <ele>734.58</ele>
        <time>2022-04-29T12:13:19Z</time>
      </trkpt>
      <trkpt lat="41.7513" lon="9.10346">
        <ele>737.47</ele>
        <time>2022-04-29T12:13:39Z</time>
      </trkpt>
      <trkpt lat="41.75145" lon="9.10345">
        <ele>739.87</ele>
        <time>2022-04-29T12:13:56Z</time>
      </trkpt>
      <trkpt lat="41.75153" lon="9.10338">
        <ele>742.76</ele>
        <time>2022-04-29T12:14:14Z</time>
      </trkpt>
      <trkpt lat="41.75159" lon="9.10334">
        <ele>745.64</ele>
        <time>2022-04-29T12:14:32Z</time>
      </trkpt>
      <trkpt lat="41.75155" lon="9.10327">
        <ele>748.04</ele>
        <time>2022-04-29T12:14:50Z</time>
      </trkpt>
      <trkpt lat="41.75165" lon="9.10329">
        <ele>749.97</ele>
        <time>2022-04-29T12:15:04Z</time>
      </trkpt>
      <trkpt lat="41.75166" lon="9.10325">
        <ele>751.41</ele>
        <time>2022-04-29T12:15:14Z</time>
      </trkpt>
      <trkpt lat="41.75164" lon="9.10325">
        <ele>750.45</ele>
        <time>2022-04-29T12:15:37Z</time>
      </trkpt>
      <trkpt lat="41.7517" lon="9.1033">
        <ele>750.93</ele>
        <time>2022-04-29T12:16:08Z</time>
      </trkpt>
      <trkpt lat="41.75181" lon="9.10324">
        <ele>753.33</ele>
        <time>2022-04-29T12:16:27Z</time>
      </trkpt>
      <trkpt lat="41.75185" lon="9.10319">
        <ele>756.21</ele>
        <time>2022-04-29T12:16:41Z</time>
      </trkpt>
      <trkpt lat="41.75197" lon="9.10322">
        <ele>756.69</ele>
        <time>2022-04-29T12:16:58Z</time>
      </trkpt>
      <trkpt lat="41.75199" lon="9.10319">
        <ele>759.58</ele>
        <time>2022-04-29T12:17:10Z</time>
      </trkpt>
      <trkpt lat="41.75207" lon="9.10321">
        <ele>762.94</ele>
        <time>2022-04-29T12:17:25Z</time>
      </trkpt>
      <trkpt lat="41.75207" lon="9.10315">
        <ele>765.83</ele>
        <time>2022-04-29T12:17:41Z</time>
      </trkpt>
      <trkpt lat="41.75216" lon="9.10306">
        <ele>767.27</ele>
        <time>2022-04-29T12:17:57Z</time>
      </trkpt>
      <trkpt lat="41.75232" lon="9.10297">
        <ele>770.15</ele>
        <time>2022-04-29T12:18:17Z</time>
      </trkpt>
      <trkpt lat="41.75244" lon="9.10291">
        <ele>772.08</ele>
        <time>2022-04-29T12:18:33Z</time>
      </trkpt>
      <trkpt lat="41.75253" lon="9.10284">
        <ele>774</ele>
        <time>2022-04-29T12:18:49Z</time>
      </trkpt>
      <trkpt lat="41.75261" lon="9.10275">
        <ele>776.88</ele>
        <time>2022-04-29T12:19:08Z</time>
      </trkpt>
      <trkpt lat="41.75276" lon="9.10278">
        <ele>779.77</ele>
        <time>2022-04-29T12:19:26Z</time>
      </trkpt>
      <trkpt lat="41.75278" lon="9.10285">
        <ele>780.25</ele>
        <time>2022-04-29T12:19:44Z</time>
      </trkpt>
      <trkpt lat="41.75282" lon="9.10285">
        <ele>780.73</ele>
        <time>2022-04-29T12:19:59Z</time>
      </trkpt>
      <trkpt lat="41.75293" lon="9.10276">
        <ele>782.17</ele>
        <time>2022-04-29T12:20:16Z</time>
      </trkpt>
      <trkpt lat="41.75306" lon="9.10276">
        <ele>784.57</ele>
        <time>2022-04-29T12:20:32Z</time>
      </trkpt>
      <trkpt lat="41.75319" lon="9.10277">
        <ele>786.02</ele>
        <time>2022-04-29T12:20:47Z</time>
      </trkpt>
      <trkpt lat="41.75326" lon="9.10276">
        <ele>788.9</ele>
        <time>2022-04-29T12:21:02Z</time>
      </trkpt>
      <trkpt lat="41.75326" lon="9.1028">
        <ele>787.46</ele>
        <time>2022-04-29T12:21:21Z</time>
      </trkpt>
      <trkpt lat="41.75326" lon="9.10275">
        <ele>786.98</ele>
        <time>2022-04-29T12:21:39Z</time>
      </trkpt>
      <trkpt lat="41.75327" lon="9.10281">
        <ele>786.98</ele>
        <time>2022-04-29T12:22:07Z</time>
      </trkpt>
      <trkpt lat="41.75328" lon="9.10279">
        <ele>788.42</ele>
        <time>2022-04-29T12:22:43Z</time>
      </trkpt>
      <trkpt lat="41.75328" lon="9.10275">
        <ele>787.46</ele>
        <time>2022-04-29T12:23:24Z</time>
      </trkpt>
      <trkpt lat="41.75329" lon="9.10275">
        <ele>786.02</ele>
        <time>2022-04-29T12:23:37Z</time>
      </trkpt>
      <trkpt lat="41.75329" lon="9.10275">
        <ele>786.02</ele>
        <time>2022-04-29T12:23:38Z</time>
      </trkpt>
      <trkpt lat="41.75328" lon="9.10279">
        <ele>792.74</ele>
        <time>2022-04-29T12:50:08Z</time>
      </trkpt>
      <trkpt lat="41.75331" lon="9.10276">
        <ele>793.71</ele>
        <time>2022-04-29T12:50:24Z</time>
      </trkpt>
      <trkpt lat="41.75333" lon="9.10276">
        <ele>794.67</ele>
        <time>2022-04-29T12:50:27Z</time>
      </trkpt>
      <trkpt lat="41.75338" lon="9.10273">
        <ele>795.63</ele>
        <time>2022-04-29T12:50:40Z</time>
      </trkpt>
      <trkpt lat="41.75342" lon="9.10273">
        <ele>798.03</ele>
        <time>2022-04-29T12:50:51Z</time>
      </trkpt>
      <trkpt lat="41.75346" lon="9.10276">
        <ele>798.51</ele>
        <time>2022-04-29T12:50:54Z</time>
      </trkpt>
      <trkpt lat="41.75354" lon="9.10283">
        <ele>800.92</ele>
        <time>2022-04-29T12:51:08Z</time>
      </trkpt>
      <trkpt lat="41.75355" lon="9.10282">
        <ele>801.88</ele>
        <time>2022-04-29T12:51:11Z</time>
      </trkpt>
      <trkpt lat="41.75367" lon="9.10284">
        <ele>803.8</ele>
        <time>2022-04-29T12:51:26Z</time>
      </trkpt>
      <trkpt lat="41.75384" lon="9.10278">
        <ele>806.2</ele>
        <time>2022-04-29T12:51:44Z</time>
      </trkpt>
      <trkpt lat="41.754" lon="9.10279">
        <ele>809.57</ele>
        <time>2022-04-29T12:52:01Z</time>
      </trkpt>
      <trkpt lat="41.75412" lon="9.10267">
        <ele>810.53</ele>
        <time>2022-04-29T12:52:18Z</time>
      </trkpt>
      <trkpt lat="41.75421" lon="9.10268">
        <ele>813.89</ele>
        <time>2022-04-29T12:52:31Z</time>
      </trkpt>
      <trkpt lat="41.75428" lon="9.1026">
        <ele>815.34</ele>
        <time>2022-04-29T12:52:47Z</time>
      </trkpt>
      <trkpt lat="41.75441" lon="9.10251">
        <ele>818.22</ele>
        <time>2022-04-29T12:53:04Z</time>
      </trkpt>
      <trkpt lat="41.7545" lon="9.10246">
        <ele>821.1</ele>
        <time>2022-04-29T12:53:20Z</time>
      </trkpt>
      <trkpt lat="41.75461" lon="9.10237">
        <ele>823.51</ele>
        <time>2022-04-29T12:53:36Z</time>
      </trkpt>
      <trkpt lat="41.75472" lon="9.10235">
        <ele>824.95</ele>
        <time>2022-04-29T12:53:53Z</time>
      </trkpt>
      <trkpt lat="41.75478" lon="9.1023">
        <ele>826.39</ele>
        <time>2022-04-29T12:54:09Z</time>
      </trkpt>
      <trkpt lat="41.75476" lon="9.10225">
        <ele>828.31</ele>
        <time>2022-04-29T12:54:16Z</time>
      </trkpt>
      <trkpt lat="41.75473" lon="9.10219">
        <ele>831.68</ele>
        <time>2022-04-29T12:54:25Z</time>
      </trkpt>
      <trkpt lat="41.7547" lon="9.1021">
        <ele>831.68</ele>
        <time>2022-04-29T12:54:39Z</time>
      </trkpt>
      <trkpt lat="41.75469" lon="9.10208">
        <ele>834.08</ele>
        <time>2022-04-29T12:54:53Z</time>
      </trkpt>
      <trkpt lat="41.75479" lon="9.10203">
        <ele>836.48</ele>
        <time>2022-04-29T12:55:08Z</time>
      </trkpt>
      <trkpt lat="41.75487" lon="9.10202">
        <ele>838.89</ele>
        <time>2022-04-29T12:55:22Z</time>
      </trkpt>
      <trkpt lat="41.75497" lon="9.10198">
        <ele>841.77</ele>
        <time>2022-04-29T12:55:37Z</time>
      </trkpt>
      <trkpt lat="41.75507" lon="9.10194">
        <ele>844.18</ele>
        <time>2022-04-29T12:55:51Z</time>
      </trkpt>
      <trkpt lat="41.75521" lon="9.10192">
        <ele>847.06</ele>
        <time>2022-04-29T12:56:09Z</time>
      </trkpt>
      <trkpt lat="41.75527" lon="9.1019">
        <ele>849.94</ele>
        <time>2022-04-29T12:56:23Z</time>
      </trkpt>
      <trkpt lat="41.75534" lon="9.1019">
        <ele>851.87</ele>
        <time>2022-04-29T12:56:37Z</time>
      </trkpt>
      <trkpt lat="41.75539" lon="9.10193">
        <ele>852.83</ele>
        <time>2022-04-29T12:56:45Z</time>
      </trkpt>
      <trkpt lat="41.75549" lon="9.10199">
        <ele>856.19</ele>
        <time>2022-04-29T12:57:00Z</time>
      </trkpt>
      <trkpt lat="41.75539" lon="9.10184">
        <ele>857.63</ele>
        <time>2022-04-29T12:57:15Z</time>
      </trkpt>
      <trkpt lat="41.75531" lon="9.10177">
        <ele>859.08</ele>
        <time>2022-04-29T12:57:26Z</time>
      </trkpt>
      <trkpt lat="41.7552" lon="9.10168">
        <ele>861.96</ele>
        <time>2022-04-29T12:57:41Z</time>
      </trkpt>
      <trkpt lat="41.75509" lon="9.10159">
        <ele>863.88</ele>
        <time>2022-04-29T12:57:57Z</time>
      </trkpt>
      <trkpt lat="41.75504" lon="9.10154">
        <ele>865.8</ele>
        <time>2022-04-29T12:58:14Z</time>
      </trkpt>
      <trkpt lat="41.75506" lon="9.10153">
        <ele>865.32</ele>
        <time>2022-04-29T12:58:39Z</time>
      </trkpt>
      <trkpt lat="41.75498" lon="9.10147">
        <ele>865.8</ele>
        <time>2022-04-29T12:58:47Z</time>
      </trkpt>
      <trkpt lat="41.75479" lon="9.10143">
        <ele>866.77</ele>
        <time>2022-04-29T12:59:05Z</time>
      </trkpt>
      <trkpt lat="41.75473" lon="9.10143">
        <ele>867.73</ele>
        <time>2022-04-29T12:59:21Z</time>
      </trkpt>
      <trkpt lat="41.75464" lon="9.10137">
        <ele>868.21</ele>
        <time>2022-04-29T12:59:40Z</time>
      </trkpt>
      <trkpt lat="41.75456" lon="9.10133">
        <ele>868.69</ele>
        <time>2022-04-29T12:59:47Z</time>
      </trkpt>
      <trkpt lat="41.75444" lon="9.10125">
        <ele>869.65</ele>
        <time>2022-04-29T12:59:59Z</time>
      </trkpt>
      <trkpt lat="41.75428" lon="9.10119">
        <ele>870.61</ele>
        <time>2022-04-29T13:00:12Z</time>
      </trkpt>
      <trkpt lat="41.75414" lon="9.10103">
        <ele>871.57</ele>
        <time>2022-04-29T13:00:27Z</time>
      </trkpt>
      <trkpt lat="41.75403" lon="9.10086">
        <ele>872.53</ele>
        <time>2022-04-29T13:00:44Z</time>
      </trkpt>
      <trkpt lat="41.75403" lon="9.10084">
        <ele>872.05</ele>
        <time>2022-04-29T13:00:52Z</time>
      </trkpt>
      <trkpt lat="41.75403" lon="9.10085">
        <ele>874.46</ele>
        <time>2022-04-29T13:11:31Z</time>
      </trkpt>
      <trkpt lat="41.75392" lon="9.10085">
        <ele>874.46</ele>
        <time>2022-04-29T13:11:49Z</time>
      </trkpt>
      <trkpt lat="41.75391" lon="9.10081">
        <ele>875.42</ele>
        <time>2022-04-29T13:11:51Z</time>
      </trkpt>
      <trkpt lat="41.7538" lon="9.10051">
        <ele>875.42</ele>
        <time>2022-04-29T13:12:10Z</time>
      </trkpt>
      <trkpt lat="41.75372" lon="9.10023">
        <ele>877.82</ele>
        <time>2022-04-29T13:12:29Z</time>
      </trkpt>
      <trkpt lat="41.75367" lon="9.09996">
        <ele>879.26</ele>
        <time>2022-04-29T13:12:47Z</time>
      </trkpt>
      <trkpt lat="41.75367" lon="9.09993">
        <ele>879.26</ele>
        <time>2022-04-29T13:12:49Z</time>
      </trkpt>
      <trkpt lat="41.75371" lon="9.09982">
        <ele>880.71</ele>
        <time>2022-04-29T13:13:02Z</time>
      </trkpt>
      <trkpt lat="41.75375" lon="9.09963">
        <ele>882.15</ele>
        <time>2022-04-29T13:13:18Z</time>
      </trkpt>
      <trkpt lat="41.75376" lon="9.09962">
        <ele>882.63</ele>
        <time>2022-04-29T13:13:20Z</time>
      </trkpt>
      <trkpt lat="41.75377" lon="9.09958">
        <ele>882.63</ele>
        <time>2022-04-29T13:13:22Z</time>
      </trkpt>
      <trkpt lat="41.75379" lon="9.09949">
        <ele>884.07</ele>
        <time>2022-04-29T13:13:33Z</time>
      </trkpt>
      <trkpt lat="41.75379" lon="9.09948">
        <ele>885.03</ele>
        <time>2022-04-29T13:13:36Z</time>
      </trkpt>
      <trkpt lat="41.7538" lon="9.09942">
        <ele>885.99</ele>
        <time>2022-04-29T13:13:43Z</time>
      </trkpt>
      <trkpt lat="41.75381" lon="9.09928">
        <ele>886.95</ele>
        <time>2022-04-29T13:13:53Z</time>
      </trkpt>
      <trkpt lat="41.7538" lon="9.09926">
        <ele>886.95</ele>
        <time>2022-04-29T13:13:55Z</time>
      </trkpt>
      <trkpt lat="41.7538" lon="9.09923">
        <ele>887.91</ele>
        <time>2022-04-29T13:13:59Z</time>
      </trkpt>
      <trkpt lat="41.75381" lon="9.09909">
        <ele>890.32</ele>
        <time>2022-04-29T13:14:10Z</time>
      </trkpt>
      <trkpt lat="41.75382" lon="9.099">
        <ele>892.24</ele>
        <time>2022-04-29T13:14:20Z</time>
      </trkpt>
      <trkpt lat="41.75385" lon="9.09888">
        <ele>894.16</ele>
        <time>2022-04-29T13:14:33Z</time>
      </trkpt>
      <trkpt lat="41.75384" lon="9.09883">
        <ele>895.12</ele>
        <time>2022-04-29T13:14:37Z</time>
      </trkpt>
      <trkpt lat="41.75387" lon="9.09876">
        <ele>897.05</ele>
        <time>2022-04-29T13:14:47Z</time>
      </trkpt>
      <trkpt lat="41.75388" lon="9.09871">
        <ele>898.01</ele>
        <time>2022-04-29T13:14:52Z</time>
      </trkpt>
      <trkpt lat="41.75391" lon="9.09864">
        <ele>899.93</ele>
        <time>2022-04-29T13:15:03Z</time>
      </trkpt>
      <trkpt lat="41.75393" lon="9.09863">
        <ele>901.37</ele>
        <time>2022-04-29T13:15:12Z</time>
      </trkpt>
      <trkpt lat="41.75393" lon="9.09862">
        <ele>901.37</ele>
        <time>2022-04-29T13:15:13Z</time>
      </trkpt>
      <trkpt lat="41.75392" lon="9.09856">
        <ele>901.85</ele>
        <time>2022-04-29T13:15:19Z</time>
      </trkpt>
      <trkpt lat="41.7539" lon="9.09838">
        <ele>903.3</ele>
        <time>2022-04-29T13:15:33Z</time>
      </trkpt>
      <trkpt lat="41.7539" lon="9.09822">
        <ele>903.78</ele>
        <time>2022-04-29T13:15:44Z</time>
      </trkpt>
      <trkpt lat="41.75386" lon="9.09806">
        <ele>904.74</ele>
        <time>2022-04-29T13:15:56Z</time>
      </trkpt>
      <trkpt lat="41.75386" lon="9.098">
        <ele>905.7</ele>
        <time>2022-04-29T13:16:02Z</time>
      </trkpt>
      <trkpt lat="41.75389" lon="9.09786">
        <ele>907.14</ele>
        <time>2022-04-29T13:16:15Z</time>
      </trkpt>
      <trkpt lat="41.75391" lon="9.09781">
        <ele>908.1</ele>
        <time>2022-04-29T13:16:19Z</time>
      </trkpt>
      <trkpt lat="41.75392" lon="9.09776">
        <ele>908.58</ele>
        <time>2022-04-29T13:16:24Z</time>
      </trkpt>
      <trkpt lat="41.75398" lon="9.09763">
        <ele>910.99</ele>
        <time>2022-04-29T13:16:37Z</time>
      </trkpt>
      <trkpt lat="41.75402" lon="9.09757">
        <ele>911.95</ele>
        <time>2022-04-29T13:16:44Z</time>
      </trkpt>
      <trkpt lat="41.75413" lon="9.09742">
        <ele>913.39</ele>
        <time>2022-04-29T13:16:57Z</time>
      </trkpt>
      <trkpt lat="41.75423" lon="9.09722">
        <ele>916.75</ele>
        <time>2022-04-29T13:17:14Z</time>
      </trkpt>
      <trkpt lat="41.75433" lon="9.09706">
        <ele>919.16</ele>
        <time>2022-04-29T13:17:30Z</time>
      </trkpt>
      <trkpt lat="41.75446" lon="9.09696">
        <ele>921.56</ele>
        <time>2022-04-29T13:17:46Z</time>
      </trkpt>
      <trkpt lat="41.75459" lon="9.09689">
        <ele>923</ele>
        <time>2022-04-29T13:18:00Z</time>
      </trkpt>
      <trkpt lat="41.75471" lon="9.09685">
        <ele>924.93</ele>
        <time>2022-04-29T13:18:17Z</time>
      </trkpt>
      <trkpt lat="41.75484" lon="9.09679">
        <ele>925.89</ele>
        <time>2022-04-29T13:18:32Z</time>
      </trkpt>
      <trkpt lat="41.75494" lon="9.09675">
        <ele>927.33</ele>
        <time>2022-04-29T13:18:43Z</time>
      </trkpt>
      <trkpt lat="41.75507" lon="9.09667">
        <ele>929.25</ele>
        <time>2022-04-29T13:18:56Z</time>
      </trkpt>
      <trkpt lat="41.75523" lon="9.09652">
        <ele>930.21</ele>
        <time>2022-04-29T13:19:14Z</time>
      </trkpt>
      <trkpt lat="41.75531" lon="9.09652">
        <ele>932.14</ele>
        <time>2022-04-29T13:19:28Z</time>
      </trkpt>
      <trkpt lat="41.75546" lon="9.09638">
        <ele>934.06</ele>
        <time>2022-04-29T13:19:45Z</time>
      </trkpt>
      <trkpt lat="41.75563" lon="9.09628">
        <ele>936.46</ele>
        <time>2022-04-29T13:20:02Z</time>
      </trkpt>
      <trkpt lat="41.75576" lon="9.09613">
        <ele>939.35</ele>
        <time>2022-04-29T13:20:17Z</time>
      </trkpt>
      <trkpt lat="41.75594" lon="9.09611">
        <ele>940.31</ele>
        <time>2022-04-29T13:20:34Z</time>
      </trkpt>
      <trkpt lat="41.75611" lon="9.09611">
        <ele>942.23</ele>
        <time>2022-04-29T13:20:52Z</time>
      </trkpt>
      <trkpt lat="41.75623" lon="9.09607">
        <ele>944.15</ele>
        <time>2022-04-29T13:21:09Z</time>
      </trkpt>
      <trkpt lat="41.75643" lon="9.09604">
        <ele>946.56</ele>
        <time>2022-04-29T13:21:25Z</time>
      </trkpt>
      <trkpt lat="41.75659" lon="9.09598">
        <ele>948</ele>
        <time>2022-04-29T13:21:42Z</time>
      </trkpt>
      <trkpt lat="41.75666" lon="9.09591">
        <ele>951.36</ele>
        <time>2022-04-29T13:21:50Z</time>
      </trkpt>
      <trkpt lat="41.75676" lon="9.09585">
        <ele>949.92</ele>
        <time>2022-04-29T13:22:04Z</time>
      </trkpt>
      <trkpt lat="41.75685" lon="9.09574">
        <ele>950.88</ele>
        <time>2022-04-29T13:22:21Z</time>
      </trkpt>
      <trkpt lat="41.757" lon="9.09556">
        <ele>952.32</ele>
        <time>2022-04-29T13:22:38Z</time>
      </trkpt>
      <trkpt lat="41.75716" lon="9.09541">
        <ele>952.32</ele>
        <time>2022-04-29T13:22:55Z</time>
      </trkpt>
      <trkpt lat="41.75732" lon="9.09532">
        <ele>952.8</ele>
        <time>2022-04-29T13:23:12Z</time>
      </trkpt>
      <trkpt lat="41.75745" lon="9.09524">
        <ele>953.77</ele>
        <time>2022-04-29T13:23:24Z</time>
      </trkpt>
      <trkpt lat="41.75758" lon="9.09509">
        <ele>954.73</ele>
        <time>2022-04-29T13:23:40Z</time>
      </trkpt>
      <trkpt lat="41.75775" lon="9.09488">
        <ele>955.69</ele>
        <time>2022-04-29T13:24:01Z</time>
      </trkpt>
      <trkpt lat="41.75789" lon="9.09467">
        <ele>956.65</ele>
        <time>2022-04-29T13:24:21Z</time>
      </trkpt>
      <trkpt lat="41.75792" lon="9.09465">
        <ele>957.61</ele>
        <time>2022-04-29T13:24:24Z</time>
      </trkpt>
      <trkpt lat="41.75806" lon="9.09457">
        <ele>959.53</ele>
        <time>2022-04-29T13:24:40Z</time>
      </trkpt>
      <trkpt lat="41.75819" lon="9.09455">
        <ele>961.94</ele>
        <time>2022-04-29T13:24:56Z</time>
      </trkpt>
      <trkpt lat="41.75824" lon="9.09456">
        <ele>962.9</ele>
        <time>2022-04-29T13:25:02Z</time>
      </trkpt>
      <trkpt lat="41.75837" lon="9.09455">
        <ele>964.82</ele>
        <time>2022-04-29T13:25:17Z</time>
      </trkpt>
      <trkpt lat="41.75853" lon="9.09461">
        <ele>967.22</ele>
        <time>2022-04-29T13:25:34Z</time>
      </trkpt>
      <trkpt lat="41.75868" lon="9.09469">
        <ele>968.67</ele>
        <time>2022-04-29T13:25:49Z</time>
      </trkpt>
      <trkpt lat="41.75885" lon="9.09469">
        <ele>970.11</ele>
        <time>2022-04-29T13:26:03Z</time>
      </trkpt>
      <trkpt lat="41.75904" lon="9.09459">
        <ele>971.07</ele>
        <time>2022-04-29T13:26:21Z</time>
      </trkpt>
      <trkpt lat="41.75914" lon="9.09451">
        <ele>972.03</ele>
        <time>2022-04-29T13:26:37Z</time>
      </trkpt>
      <trkpt lat="41.7592" lon="9.09439">
        <ele>973.95</ele>
        <time>2022-04-29T13:26:53Z</time>
      </trkpt>
      <trkpt lat="41.75936" lon="9.09435">
        <ele>975.88</ele>
        <time>2022-04-29T13:27:08Z</time>
      </trkpt>
      <trkpt lat="41.75941" lon="9.09433">
        <ele>975.88</ele>
        <time>2022-04-29T13:27:14Z</time>
      </trkpt>
      <trkpt lat="41.75967" lon="9.09441">
        <ele>974.91</ele>
        <time>2022-04-29T13:27:33Z</time>
      </trkpt>
      <trkpt lat="41.75972" lon="9.09445">
        <ele>973.95</ele>
        <time>2022-04-29T13:27:40Z</time>
      </trkpt>
      <trkpt lat="41.75973" lon="9.09446">
        <ele>974.43</ele>
        <time>2022-04-29T13:27:41Z</time>
      </trkpt>
      <trkpt lat="41.75975" lon="9.09447">
        <ele>973.95</ele>
        <time>2022-04-29T13:27:42Z</time>
      </trkpt>
      <trkpt lat="41.75984" lon="9.09451">
        <ele>973.95</ele>
        <time>2022-04-29T13:27:51Z</time>
      </trkpt>
      <trkpt lat="41.75985" lon="9.09452">
        <ele>973.95</ele>
        <time>2022-04-29T13:27:52Z</time>
      </trkpt>
      <trkpt lat="41.75994" lon="9.0946">
        <ele>973.47</ele>
        <time>2022-04-29T13:28:03Z</time>
      </trkpt>
      <trkpt lat="41.76008" lon="9.09471">
        <ele>972.99</ele>
        <time>2022-04-29T13:28:17Z</time>
      </trkpt>
      <trkpt lat="41.76012" lon="9.09475">
        <ele>972.99</ele>
        <time>2022-04-29T13:28:28Z</time>
      </trkpt>
      <trkpt lat="41.76001" lon="9.09462">
        <ele>972.51</ele>
        <time>2022-04-29T13:28:43Z</time>
      </trkpt>
      <trkpt lat="41.76" lon="9.0946">
        <ele>972.99</ele>
        <time>2022-04-29T13:28:44Z</time>
      </trkpt>
      <trkpt lat="41.76001" lon="9.09454">
        <ele>973.95</ele>
        <time>2022-04-29T13:28:49Z</time>
      </trkpt>
      <trkpt lat="41.76005" lon="9.09448">
        <ele>973.47</ele>
        <time>2022-04-29T13:28:59Z</time>
      </trkpt>
      <trkpt lat="41.76007" lon="9.09447">
        <ele>973.47</ele>
        <time>2022-04-29T13:29:01Z</time>
      </trkpt>
      <trkpt lat="41.76009" lon="9.09447">
        <ele>973.47</ele>
        <time>2022-04-29T13:29:02Z</time>
      </trkpt>
      <trkpt lat="41.7601" lon="9.09447">
        <ele>973.95</ele>
        <time>2022-04-29T13:29:03Z</time>
      </trkpt>
      <trkpt lat="41.76012" lon="9.09447">
        <ele>973.47</ele>
        <time>2022-04-29T13:29:04Z</time>
      </trkpt>
      <trkpt lat="41.76014" lon="9.09448">
        <ele>973.95</ele>
        <time>2022-04-29T13:29:05Z</time>
      </trkpt>
      <trkpt lat="41.76027" lon="9.09454">
        <ele>973.47</ele>
        <time>2022-04-29T13:29:17Z</time>
      </trkpt>
      <trkpt lat="41.76043" lon="9.09454">
        <ele>973.95</ele>
        <time>2022-04-29T13:29:30Z</time>
      </trkpt>
      <trkpt lat="41.76057" lon="9.09452">
        <ele>974.91</ele>
        <time>2022-04-29T13:29:43Z</time>
      </trkpt>
      <trkpt lat="41.76065" lon="9.09449">
        <ele>975.39</ele>
        <time>2022-04-29T13:29:57Z</time>
      </trkpt>
      <trkpt lat="41.76081" lon="9.0945">
        <ele>976.84</ele>
        <time>2022-04-29T13:30:12Z</time>
      </trkpt>
      <trkpt lat="41.76089" lon="9.0945">
        <ele>977.32</ele>
        <time>2022-04-29T13:30:33Z</time>
      </trkpt>
      <trkpt lat="41.76091" lon="9.09448">
        <ele>976.84</ele>
        <time>2022-04-29T13:30:58Z</time>
      </trkpt>
      <trkpt lat="41.76094" lon="9.09449">
        <ele>976.84</ele>
        <time>2022-04-29T13:31:14Z</time>
      </trkpt>
      <trkpt lat="41.76093" lon="9.09449">
        <ele>976.84</ele>
        <time>2022-04-29T13:31:43Z</time>
      </trkpt>
      <trkpt lat="41.76103" lon="9.0945">
        <ele>978.28</ele>
        <time>2022-04-29T13:31:56Z</time>
      </trkpt>
      <trkpt lat="41.76112" lon="9.09458">
        <ele>981.64</ele>
        <time>2022-04-29T13:32:08Z</time>
      </trkpt>
      <trkpt lat="41.76114" lon="9.0946">
        <ele>978.28</ele>
        <time>2022-04-29T13:32:11Z</time>
      </trkpt>
      <trkpt lat="41.76118" lon="9.09467">
        <ele>981.16</ele>
        <time>2022-04-29T13:32:19Z</time>
      </trkpt>
      <trkpt lat="41.76134" lon="9.09474">
        <ele>984.05</ele>
        <time>2022-04-29T13:32:37Z</time>
      </trkpt>
      <trkpt lat="41.76139" lon="9.09477">
        <ele>985.97</ele>
        <time>2022-04-29T13:32:56Z</time>
      </trkpt>
      <trkpt lat="41.76136" lon="9.09476">
        <ele>985.97</ele>
        <time>2022-04-29T13:33:24Z</time>
      </trkpt>
      <trkpt lat="41.76144" lon="9.09473">
        <ele>986.45</ele>
        <time>2022-04-29T13:33:52Z</time>
      </trkpt>
      <trkpt lat="41.76166" lon="9.09474">
        <ele>989.33</ele>
        <time>2022-04-29T13:34:11Z</time>
      </trkpt>
      <trkpt lat="41.76184" lon="9.09477">
        <ele>990.3</ele>
        <time>2022-04-29T13:34:26Z</time>
      </trkpt>
      <trkpt lat="41.76186" lon="9.0948">
        <ele>990.78</ele>
        <time>2022-04-29T13:34:28Z</time>
      </trkpt>
      <trkpt lat="41.76199" lon="9.09491">
        <ele>993.18</ele>
        <time>2022-04-29T13:34:41Z</time>
      </trkpt>
      <trkpt lat="41.76198" lon="9.09501">
        <ele>995.58</ele>
        <time>2022-04-29T13:34:54Z</time>
      </trkpt>
      <trkpt lat="41.76199" lon="9.09516">
        <ele>998.47</ele>
        <time>2022-04-29T13:35:08Z</time>
      </trkpt>
      <trkpt lat="41.76208" lon="9.09528">
        <ele>1001.35</ele>
        <time>2022-04-29T13:35:24Z</time>
      </trkpt>
      <trkpt lat="41.76219" lon="9.0954">
        <ele>1003.75</ele>
        <time>2022-04-29T13:35:42Z</time>
      </trkpt>
      <trkpt lat="41.76231" lon="9.09562">
        <ele>1006.16</ele>
        <time>2022-04-29T13:35:59Z</time>
      </trkpt>
      <trkpt lat="41.76241" lon="9.09573">
        <ele>1007.6</ele>
        <time>2022-04-29T13:36:15Z</time>
      </trkpt>
      <trkpt lat="41.76251" lon="9.09587">
        <ele>1010.48</ele>
        <time>2022-04-29T13:36:33Z</time>
      </trkpt>
      <trkpt lat="41.76259" lon="9.09608">
        <ele>1010.96</ele>
        <time>2022-04-29T13:36:49Z</time>
      </trkpt>
      <trkpt lat="41.76268" lon="9.09628">
        <ele>1012.89</ele>
        <time>2022-04-29T13:37:04Z</time>
      </trkpt>
      <trkpt lat="41.76284" lon="9.0964">
        <ele>1013.37</ele>
        <time>2022-04-29T13:37:23Z</time>
      </trkpt>
      <trkpt lat="41.76301" lon="9.09656">
        <ele>1013.37</ele>
        <time>2022-04-29T13:37:38Z</time>
      </trkpt>
      <trkpt lat="41.76315" lon="9.09671">
        <ele>1012.89</ele>
        <time>2022-04-29T13:37:53Z</time>
      </trkpt>
      <trkpt lat="41.76321" lon="9.09692">
        <ele>1010.48</ele>
        <time>2022-04-29T13:38:11Z</time>
      </trkpt>
      <trkpt lat="41.76335" lon="9.09708">
        <ele>1008.08</ele>
        <time>2022-04-29T13:38:26Z</time>
      </trkpt>
      <trkpt lat="41.76353" lon="9.09715">
        <ele>1006.16</ele>
        <time>2022-04-29T13:38:44Z</time>
      </trkpt>
      <trkpt lat="41.76372" lon="9.09722">
        <ele>1003.27</ele>
        <time>2022-04-29T13:38:58Z</time>
      </trkpt>
      <trkpt lat="41.76383" lon="9.0973">
        <ele>1001.83</ele>
        <time>2022-04-29T13:39:09Z</time>
      </trkpt>
      <trkpt lat="41.76397" lon="9.09754">
        <ele>998.95</ele>
        <time>2022-04-29T13:39:25Z</time>
      </trkpt>
      <trkpt lat="41.76405" lon="9.09765">
        <ele>998.47</ele>
        <time>2022-04-29T13:39:34Z</time>
      </trkpt>
      <trkpt lat="41.76421" lon="9.09781">
        <ele>997.51</ele>
        <time>2022-04-29T13:39:49Z</time>
      </trkpt>
      <trkpt lat="41.76436" lon="9.09795">
        <ele>997.51</ele>
        <time>2022-04-29T13:40:05Z</time>
      </trkpt>
      <trkpt lat="41.76457" lon="9.09805">
        <ele>998.47</ele>
        <time>2022-04-29T13:40:24Z</time>
      </trkpt>
      <trkpt lat="41.76476" lon="9.09814">
        <ele>1000.39</ele>
        <time>2022-04-29T13:40:41Z</time>
      </trkpt>
      <trkpt lat="41.7648" lon="9.0983">
        <ele>1001.83</ele>
        <time>2022-04-29T13:40:56Z</time>
      </trkpt>
      <trkpt lat="41.76485" lon="9.09849">
        <ele>1004.23</ele>
        <time>2022-04-29T13:41:10Z</time>
      </trkpt>
      <trkpt lat="41.76489" lon="9.09871">
        <ele>1007.12</ele>
        <time>2022-04-29T13:41:28Z</time>
      </trkpt>
      <trkpt lat="41.76501" lon="9.09882">
        <ele>1009.52</ele>
        <time>2022-04-29T13:41:44Z</time>
      </trkpt>
      <trkpt lat="41.76514" lon="9.0989">
        <ele>1010.96</ele>
        <time>2022-04-29T13:42:00Z</time>
      </trkpt>
      <trkpt lat="41.76527" lon="9.09901">
        <ele>1013.37</ele>
        <time>2022-04-29T13:42:16Z</time>
      </trkpt>
      <trkpt lat="41.76542" lon="9.0991">
        <ele>1016.25</ele>
        <time>2022-04-29T13:42:34Z</time>
      </trkpt>
      <trkpt lat="41.76548" lon="9.09927">
        <ele>1019.13</ele>
        <time>2022-04-29T13:42:50Z</time>
      </trkpt>
      <trkpt lat="41.76547" lon="9.09948">
        <ele>1020.58</ele>
        <time>2022-04-29T13:43:06Z</time>
      </trkpt>
      <trkpt lat="41.76548" lon="9.09954">
        <ele>1021.54</ele>
        <time>2022-04-29T13:43:26Z</time>
      </trkpt>
      <trkpt lat="41.76541" lon="9.09974">
        <ele>1022.5</ele>
        <time>2022-04-29T13:43:39Z</time>
      </trkpt>
      <trkpt lat="41.76536" lon="9.09994">
        <ele>1023.46</ele>
        <time>2022-04-29T13:43:52Z</time>
      </trkpt>
      <trkpt lat="41.76534" lon="9.10014">
        <ele>1023.94</ele>
        <time>2022-04-29T13:44:04Z</time>
      </trkpt>
      <trkpt lat="41.76534" lon="9.10016">
        <ele>1023.46</ele>
        <time>2022-04-29T13:44:05Z</time>
      </trkpt>
      <trkpt lat="41.76534" lon="9.10042">
        <ele>1023.94</ele>
        <time>2022-04-29T13:44:20Z</time>
      </trkpt>
      <trkpt lat="41.76538" lon="9.10064">
        <ele>1024.9</ele>
        <time>2022-04-29T13:44:36Z</time>
      </trkpt>
      <trkpt lat="41.76542" lon="9.10079">
        <ele>1025.86</ele>
        <time>2022-04-29T13:44:49Z</time>
      </trkpt>
      <trkpt lat="41.7655" lon="9.10102">
        <ele>1027.79</ele>
        <time>2022-04-29T13:45:07Z</time>
      </trkpt>
      <trkpt lat="41.76551" lon="9.10104">
        <ele>1028.75</ele>
        <time>2022-04-29T13:45:09Z</time>
      </trkpt>
      <trkpt lat="41.7655" lon="9.10121">
        <ele>1030.67</ele>
        <time>2022-04-29T13:45:25Z</time>
      </trkpt>
      <trkpt lat="41.76557" lon="9.10156">
        <ele>1033.07</ele>
        <time>2022-04-29T13:45:44Z</time>
      </trkpt>
      <trkpt lat="41.76563" lon="9.10168">
        <ele>1033.07</ele>
        <time>2022-04-29T13:46:00Z</time>
      </trkpt>
      <trkpt lat="41.76568" lon="9.1017">
        <ele>1034.04</ele>
        <time>2022-04-29T13:46:26Z</time>
      </trkpt>
      <trkpt lat="41.76574" lon="9.10185">
        <ele>1034.04</ele>
        <time>2022-04-29T13:46:42Z</time>
      </trkpt>
      <trkpt lat="41.76568" lon="9.1021">
        <ele>1031.63</ele>
        <time>2022-04-29T13:46:59Z</time>
      </trkpt>
      <trkpt lat="41.7657" lon="9.10234">
        <ele>1030.67</ele>
        <time>2022-04-29T13:47:15Z</time>
      </trkpt>
      <trkpt lat="41.76566" lon="9.10267">
        <ele>1030.19</ele>
        <time>2022-04-29T13:47:25Z</time>
      </trkpt>
      <trkpt lat="41.76565" lon="9.10269">
        <ele>1030.19</ele>
        <time>2022-04-29T13:47:26Z</time>
      </trkpt>
      <trkpt lat="41.76553" lon="9.10283">
        <ele>1030.67</ele>
        <time>2022-04-29T13:47:39Z</time>
      </trkpt>
      <trkpt lat="41.76551" lon="9.10294">
        <ele>1033.07</ele>
        <time>2022-04-29T13:47:51Z</time>
      </trkpt>
      <trkpt lat="41.76549" lon="9.10307">
        <ele>1035.96</ele>
        <time>2022-04-29T13:48:05Z</time>
      </trkpt>
      <trkpt lat="41.76549" lon="9.10311">
        <ele>1036.92</ele>
        <time>2022-04-29T13:48:08Z</time>
      </trkpt>
      <trkpt lat="41.7654" lon="9.10328">
        <ele>1038.36</ele>
        <time>2022-04-29T13:48:21Z</time>
      </trkpt>
      <trkpt lat="41.76533" lon="9.10345">
        <ele>1038.84</ele>
        <time>2022-04-29T13:48:36Z</time>
      </trkpt>
      <trkpt lat="41.7653" lon="9.10364">
        <ele>1039.8</ele>
        <time>2022-04-29T13:48:50Z</time>
      </trkpt>
      <trkpt lat="41.76526" lon="9.10386">
        <ele>1041.25</ele>
        <time>2022-04-29T13:49:04Z</time>
      </trkpt>
      <trkpt lat="41.76513" lon="9.10405">
        <ele>1044.61</ele>
        <time>2022-04-29T13:49:22Z</time>
      </trkpt>
      <trkpt lat="41.76507" lon="9.10419">
        <ele>1047.01</ele>
        <time>2022-04-29T13:49:37Z</time>
      </trkpt>
      <trkpt lat="41.76506" lon="9.10439">
        <ele>1047.97</ele>
        <time>2022-04-29T13:49:51Z</time>
      </trkpt>
      <trkpt lat="41.76506" lon="9.10441">
        <ele>1047.49</ele>
        <time>2022-04-29T13:49:52Z</time>
      </trkpt>
      <trkpt lat="41.76506" lon="9.10462">
        <ele>1049.42</ele>
        <time>2022-04-29T13:50:07Z</time>
      </trkpt>
      <trkpt lat="41.76506" lon="9.10479">
        <ele>1051.34</ele>
        <time>2022-04-29T13:50:21Z</time>
      </trkpt>
      <trkpt lat="41.765" lon="9.10489">
        <ele>1053.74</ele>
        <time>2022-04-29T13:50:36Z</time>
      </trkpt>
      <trkpt lat="41.76496" lon="9.10495">
        <ele>1054.22</ele>
        <time>2022-04-29T13:50:59Z</time>
      </trkpt>
      <trkpt lat="41.76498" lon="9.10513">
        <ele>1054.7</ele>
        <time>2022-04-29T13:51:18Z</time>
      </trkpt>
      <trkpt lat="41.76492" lon="9.10532">
        <ele>1051.34</ele>
        <time>2022-04-29T13:51:29Z</time>
      </trkpt>
      <trkpt lat="41.76489" lon="9.10544">
        <ele>1048.94</ele>
        <time>2022-04-29T13:51:41Z</time>
      </trkpt>
      <trkpt lat="41.76479" lon="9.1056">
        <ele>1049.42</ele>
        <time>2022-04-29T13:51:54Z</time>
      </trkpt>
      <trkpt lat="41.76469" lon="9.10577">
        <ele>1051.34</ele>
        <time>2022-04-29T13:52:09Z</time>
      </trkpt>
      <trkpt lat="41.76467" lon="9.10585">
        <ele>1049.9</ele>
        <time>2022-04-29T13:52:15Z</time>
      </trkpt>
      <trkpt lat="41.76468" lon="9.10587">
        <ele>1049.9</ele>
        <time>2022-04-29T13:52:16Z</time>
      </trkpt>
      <trkpt lat="41.76468" lon="9.10589">
        <ele>1049.9</ele>
        <time>2022-04-29T13:52:17Z</time>
      </trkpt>
      <trkpt lat="41.76468" lon="9.10591">
        <ele>1049.9</ele>
        <time>2022-04-29T13:52:18Z</time>
      </trkpt>
      <trkpt lat="41.76468" lon="9.10592">
        <ele>1049.9</ele>
        <time>2022-04-29T13:52:19Z</time>
      </trkpt>
      <trkpt lat="41.76468" lon="9.10601">
        <ele>1048.94</ele>
        <time>2022-04-29T13:52:33Z</time>
      </trkpt>
      <trkpt lat="41.76471" lon="9.10605">
        <ele>1048.45</ele>
        <time>2022-04-29T13:52:51Z</time>
      </trkpt>
      <trkpt lat="41.76472" lon="9.10606">
        <ele>1048.94</ele>
        <time>2022-04-29T13:52:52Z</time>
      </trkpt>
      <trkpt lat="41.76473" lon="9.10607">
        <ele>1048.94</ele>
        <time>2022-04-29T13:52:53Z</time>
      </trkpt>
      <trkpt lat="41.76474" lon="9.10616">
        <ele>1047.49</ele>
        <time>2022-04-29T13:53:00Z</time>
      </trkpt>
      <trkpt lat="41.76479" lon="9.10632">
        <ele>1045.57</ele>
        <time>2022-04-29T13:53:13Z</time>
      </trkpt>
      <trkpt lat="41.7648" lon="9.10634">
        <ele>1045.09</ele>
        <time>2022-04-29T13:53:14Z</time>
      </trkpt>
      <trkpt lat="41.76481" lon="9.10653">
        <ele>1044.61</ele>
        <time>2022-04-29T13:53:31Z</time>
      </trkpt>
      <trkpt lat="41.76483" lon="9.10665">
        <ele>1046.05</ele>
        <time>2022-04-29T13:53:45Z</time>
      </trkpt>
      <trkpt lat="41.76485" lon="9.10674">
        <ele>1046.05</ele>
        <time>2022-04-29T13:53:59Z</time>
      </trkpt>
      <trkpt lat="41.76488" lon="9.10683">
        <ele>1043.65</ele>
        <time>2022-04-29T13:54:19Z</time>
      </trkpt>
      <trkpt lat="41.76497" lon="9.10702">
        <ele>1042.69</ele>
        <time>2022-04-29T13:54:35Z</time>
      </trkpt>
      <trkpt lat="41.76505" lon="9.10722">
        <ele>1040.76</ele>
        <time>2022-04-29T13:54:51Z</time>
      </trkpt>
      <trkpt lat="41.7651" lon="9.10728">
        <ele>1040.76</ele>
        <time>2022-04-29T13:55:11Z</time>
      </trkpt>
      <trkpt lat="41.76519" lon="9.10744">
        <ele>1040.76</ele>
        <time>2022-04-29T13:55:29Z</time>
      </trkpt>
      <trkpt lat="41.76522" lon="9.10749">
        <ele>1041.25</ele>
        <time>2022-04-29T13:55:33Z</time>
      </trkpt>
      <trkpt lat="41.76531" lon="9.1076">
        <ele>1042.21</ele>
        <time>2022-04-29T13:55:44Z</time>
      </trkpt>
      <trkpt lat="41.76543" lon="9.10778">
        <ele>1041.73</ele>
        <time>2022-04-29T13:55:59Z</time>
      </trkpt>
      <trkpt lat="41.76559" lon="9.10794">
        <ele>1043.17</ele>
        <time>2022-04-29T13:56:16Z</time>
      </trkpt>
      <trkpt lat="41.76571" lon="9.10808">
        <ele>1044.13</ele>
        <time>2022-04-29T13:56:30Z</time>
      </trkpt>
      <trkpt lat="41.76587" lon="9.10826">
        <ele>1045.09</ele>
        <time>2022-04-29T13:56:46Z</time>
      </trkpt>
      <trkpt lat="41.7659" lon="9.10832">
        <ele>1045.09</ele>
        <time>2022-04-29T13:56:51Z</time>
      </trkpt>
      <trkpt lat="41.76591" lon="9.10833">
        <ele>1045.57</ele>
        <time>2022-04-29T13:56:52Z</time>
      </trkpt>
      <trkpt lat="41.76591" lon="9.10835">
        <ele>1045.57</ele>
        <time>2022-04-29T13:56:53Z</time>
      </trkpt>
      <trkpt lat="41.76592" lon="9.10836">
        <ele>1045.57</ele>
        <time>2022-04-29T13:56:54Z</time>
      </trkpt>
      <trkpt lat="41.76593" lon="9.10838">
        <ele>1045.57</ele>
        <time>2022-04-29T13:56:55Z</time>
      </trkpt>
      <trkpt lat="41.76593" lon="9.10839">
        <ele>1045.57</ele>
        <time>2022-04-29T13:56:56Z</time>
      </trkpt>
      <trkpt lat="41.76604" lon="9.10856">
        <ele>1047.01</ele>
        <time>2022-04-29T13:57:10Z</time>
      </trkpt>
      <trkpt lat="41.76606" lon="9.10858">
        <ele>1047.01</ele>
        <time>2022-04-29T13:57:12Z</time>
      </trkpt>
      <trkpt lat="41.76606" lon="9.10859">
        <ele>1047.49</ele>
        <time>2022-04-29T13:57:13Z</time>
      </trkpt>
      <trkpt lat="41.76619" lon="9.10876">
        <ele>1048.94</ele>
        <time>2022-04-29T13:57:28Z</time>
      </trkpt>
      <trkpt lat="41.7663" lon="9.1089">
        <ele>1050.38</ele>
        <time>2022-04-29T13:57:42Z</time>
      </trkpt>
      <trkpt lat="41.7664" lon="9.10898">
        <ele>1051.82</ele>
        <time>2022-04-29T13:57:58Z</time>
      </trkpt>
      <trkpt lat="41.76652" lon="9.10902">
        <ele>1052.3</ele>
        <time>2022-04-29T13:58:14Z</time>
      </trkpt>
      <trkpt lat="41.76667" lon="9.10901">
        <ele>1052.3</ele>
        <time>2022-04-29T13:58:33Z</time>
      </trkpt>
      <trkpt lat="41.76683" lon="9.10909">
        <ele>1051.34</ele>
        <time>2022-04-29T13:58:48Z</time>
      </trkpt>
      <trkpt lat="41.76703" lon="9.10918">
        <ele>1051.34</ele>
        <time>2022-04-29T13:59:05Z</time>
      </trkpt>
      <trkpt lat="41.76705" lon="9.10919">
        <ele>1050.86</ele>
        <time>2022-04-29T13:59:07Z</time>
      </trkpt>
      <trkpt lat="41.76722" lon="9.10926">
        <ele>1051.34</ele>
        <time>2022-04-29T13:59:26Z</time>
      </trkpt>
      <trkpt lat="41.76724" lon="9.1093">
        <ele>1051.82</ele>
        <time>2022-04-29T13:59:45Z</time>
      </trkpt>
      <trkpt lat="41.76735" lon="9.10934">
        <ele>1052.78</ele>
        <time>2022-04-29T13:59:55Z</time>
      </trkpt>
      <trkpt lat="41.76746" lon="9.10941">
        <ele>1054.7</ele>
        <time>2022-04-29T14:00:10Z</time>
      </trkpt>
      <trkpt lat="41.76757" lon="9.10949">
        <ele>1055.18</ele>
        <time>2022-04-29T14:00:24Z</time>
      </trkpt>
      <trkpt lat="41.76771" lon="9.10952">
        <ele>1056.15</ele>
        <time>2022-04-29T14:00:39Z</time>
      </trkpt>
      <trkpt lat="41.76787" lon="9.1096">
        <ele>1054.22</ele>
        <time>2022-04-29T14:00:54Z</time>
      </trkpt>
      <trkpt lat="41.76805" lon="9.1097">
        <ele>1052.78</ele>
        <time>2022-04-29T14:01:10Z</time>
      </trkpt>
      <trkpt lat="41.76819" lon="9.10979">
        <ele>1054.22</ele>
        <time>2022-04-29T14:01:27Z</time>
      </trkpt>
      <trkpt lat="41.76828" lon="9.10983">
        <ele>1056.15</ele>
        <time>2022-04-29T14:01:37Z</time>
      </trkpt>
      <trkpt lat="41.76835" lon="9.10989">
        <ele>1056.15</ele>
        <time>2022-04-29T14:01:46Z</time>
      </trkpt>
      <trkpt lat="41.76837" lon="9.10992">
        <ele>1055.18</ele>
        <time>2022-04-29T14:01:48Z</time>
      </trkpt>
      <trkpt lat="41.76851" lon="9.10997">
        <ele>1055.67</ele>
        <time>2022-04-29T14:02:01Z</time>
      </trkpt>
      <trkpt lat="41.76855" lon="9.11">
        <ele>1055.18</ele>
        <time>2022-04-29T14:02:18Z</time>
      </trkpt>
      <trkpt lat="41.76857" lon="9.11001">
        <ele>1055.18</ele>
        <time>2022-04-29T14:02:36Z</time>
      </trkpt>
      <trkpt lat="41.76876" lon="9.11">
        <ele>1056.63</ele>
        <time>2022-04-29T14:02:55Z</time>
      </trkpt>
      <trkpt lat="41.76888" lon="9.11002">
        <ele>1057.11</ele>
        <time>2022-04-29T14:03:08Z</time>
      </trkpt>
      <trkpt lat="41.76905" lon="9.11002">
        <ele>1057.59</ele>
        <time>2022-04-29T14:03:25Z</time>
      </trkpt>
      <trkpt lat="41.76926" lon="9.11002">
        <ele>1055.18</ele>
        <time>2022-04-29T14:03:42Z</time>
      </trkpt>
      <trkpt lat="41.76931" lon="9.11001">
        <ele>1055.67</ele>
        <time>2022-04-29T14:03:46Z</time>
      </trkpt>
      <trkpt lat="41.76933" lon="9.11">
        <ele>1055.18</ele>
        <time>2022-04-29T14:03:49Z</time>
      </trkpt>
      <trkpt lat="41.76934" lon="9.11001">
        <ele>1054.22</ele>
        <time>2022-04-29T14:03:51Z</time>
      </trkpt>
      <trkpt lat="41.76935" lon="9.11001">
        <ele>1054.22</ele>
        <time>2022-04-29T14:04:27Z</time>
      </trkpt>
      <trkpt lat="41.76935" lon="9.11002">
        <ele>1053.74</ele>
        <time>2022-04-29T14:05:00Z</time>
      </trkpt>
      <trkpt lat="41.76935" lon="9.11002">
        <ele>1053.74</ele>
        <time>2022-04-29T14:05:34Z</time>
      </trkpt>
      <trkpt lat="41.76935" lon="9.11002">
        <ele>1053.74</ele>
        <time>2022-04-29T14:06:05Z</time>
      </trkpt>
      <trkpt lat="41.76936" lon="9.11002">
        <ele>1054.22</ele>
        <time>2022-04-29T14:06:19Z</time>
      </trkpt>
      <trkpt lat="41.76937" lon="9.11003">
        <ele>1055.18</ele>
        <time>2022-04-29T14:06:28Z</time>
      </trkpt>
      <trkpt lat="41.76935" lon="9.11004">
        <ele>1056.15</ele>
        <time>2022-04-29T14:06:40Z</time>
      </trkpt>
      <trkpt lat="41.76935" lon="9.11006">
        <ele>1054.7</ele>
        <time>2022-04-29T14:06:57Z</time>
      </trkpt>
      <trkpt lat="41.76936" lon="9.11005">
        <ele>1054.7</ele>
        <time>2022-04-29T14:07:15Z</time>
      </trkpt>
      <trkpt lat="41.76937" lon="9.11004">
        <ele>1055.18</ele>
        <time>2022-04-29T14:07:45Z</time>
      </trkpt>
      <trkpt lat="41.76936" lon="9.11005">
        <ele>1055.18</ele>
        <time>2022-04-29T14:07:54Z</time>
      </trkpt>
      <trkpt lat="41.76936" lon="9.11004">
        <ele>1054.7</ele>
        <time>2022-04-29T14:08:15Z</time>
      </trkpt>
      <trkpt lat="41.76938" lon="9.11004">
        <ele>1055.18</ele>
        <time>2022-04-29T14:08:41Z</time>
      </trkpt>
      <trkpt lat="41.76938" lon="9.11004">
        <ele>1055.18</ele>
        <time>2022-04-29T14:09:10Z</time>
      </trkpt>
      <trkpt lat="41.76938" lon="9.11">
        <ele>1054.7</ele>
        <time>2022-04-29T14:09:43Z</time>
      </trkpt>
      <trkpt lat="41.76939" lon="9.11003">
        <ele>1054.22</ele>
        <time>2022-04-29T14:10:07Z</time>
      </trkpt>
      <trkpt lat="41.76948" lon="9.11001">
        <ele>1053.26</ele>
        <time>2022-04-29T14:10:23Z</time>
      </trkpt>
      <trkpt lat="41.76957" lon="9.10996">
        <ele>1052.3</ele>
        <time>2022-04-29T14:10:40Z</time>
      </trkpt>
      <trkpt lat="41.76966" lon="9.10985">
        <ele>1048.94</ele>
        <time>2022-04-29T14:10:53Z</time>
      </trkpt>
      <trkpt lat="41.76971" lon="9.1098">
        <ele>1046.53</ele>
        <time>2022-04-29T14:11:01Z</time>
      </trkpt>
      <trkpt lat="41.76987" lon="9.10978">
        <ele>1044.61</ele>
        <time>2022-04-29T14:11:15Z</time>
      </trkpt>
      <trkpt lat="41.76998" lon="9.1098">
        <ele>1044.61</ele>
        <time>2022-04-29T14:11:23Z</time>
      </trkpt>
      <trkpt lat="41.77013" lon="9.10985">
        <ele>1043.65</ele>
        <time>2022-04-29T14:11:36Z</time>
      </trkpt>
      <trkpt lat="41.77014" lon="9.10985">
        <ele>1043.65</ele>
        <time>2022-04-29T14:11:37Z</time>
      </trkpt>
      <trkpt lat="41.77016" lon="9.10985">
        <ele>1043.17</ele>
        <time>2022-04-29T14:11:38Z</time>
      </trkpt>
      <trkpt lat="41.77018" lon="9.10986">
        <ele>1043.65</ele>
        <time>2022-04-29T14:11:40Z</time>
      </trkpt>
      <trkpt lat="41.77019" lon="9.10986">
        <ele>1043.65</ele>
        <time>2022-04-29T14:11:41Z</time>
      </trkpt>
      <trkpt lat="41.77026" lon="9.10989">
        <ele>1042.69</ele>
        <time>2022-04-29T14:11:47Z</time>
      </trkpt>
      <trkpt lat="41.77041" lon="9.10997">
        <ele>1041.73</ele>
        <time>2022-04-29T14:12:01Z</time>
      </trkpt>
      <trkpt lat="41.77058" lon="9.11004">
        <ele>1042.21</ele>
        <time>2022-04-29T14:12:19Z</time>
      </trkpt>
      <trkpt lat="41.77059" lon="9.11006">
        <ele>1042.69</ele>
        <time>2022-04-29T14:12:20Z</time>
      </trkpt>
      <trkpt lat="41.77062" lon="9.11008">
        <ele>1042.69</ele>
        <time>2022-04-29T14:12:23Z</time>
      </trkpt>
      <trkpt lat="41.77063" lon="9.11009">
        <ele>1042.69</ele>
        <time>2022-04-29T14:12:24Z</time>
      </trkpt>
      <trkpt lat="41.77064" lon="9.1101">
        <ele>1042.69</ele>
        <time>2022-04-29T14:12:25Z</time>
      </trkpt>
      <trkpt lat="41.77066" lon="9.11012">
        <ele>1043.17</ele>
        <time>2022-04-29T14:12:27Z</time>
      </trkpt>
      <trkpt lat="41.77067" lon="9.11013">
        <ele>1043.17</ele>
        <time>2022-04-29T14:12:28Z</time>
      </trkpt>
      <trkpt lat="41.77068" lon="9.11014">
        <ele>1042.69</ele>
        <time>2022-04-29T14:12:29Z</time>
      </trkpt>
      <trkpt lat="41.77076" lon="9.11019">
        <ele>1043.17</ele>
        <time>2022-04-29T14:12:41Z</time>
      </trkpt>
      <trkpt lat="41.77091" lon="9.1102">
        <ele>1044.13</ele>
        <time>2022-04-29T14:12:56Z</time>
      </trkpt>
      <trkpt lat="41.771" lon="9.11017">
        <ele>1046.05</ele>
        <time>2022-04-29T14:13:09Z</time>
      </trkpt>
      <trkpt lat="41.77105" lon="9.11006">
        <ele>1046.05</ele>
        <time>2022-04-29T14:13:22Z</time>
      </trkpt>
      <trkpt lat="41.77109" lon="9.11002">
        <ele>1045.09</ele>
        <time>2022-04-29T14:13:26Z</time>
      </trkpt>
      <trkpt lat="41.77117" lon="9.10994">
        <ele>1044.13</ele>
        <time>2022-04-29T14:13:42Z</time>
      </trkpt>
      <trkpt lat="41.77132" lon="9.10981">
        <ele>1042.69</ele>
        <time>2022-04-29T14:14:00Z</time>
      </trkpt>
      <trkpt lat="41.77144" lon="9.10969">
        <ele>1043.17</ele>
        <time>2022-04-29T14:14:14Z</time>
      </trkpt>
      <trkpt lat="41.77159" lon="9.10948">
        <ele>1040.76</ele>
        <time>2022-04-29T14:14:31Z</time>
      </trkpt>
      <trkpt lat="41.77175" lon="9.10942">
        <ele>1038.36</ele>
        <time>2022-04-29T14:14:45Z</time>
      </trkpt>
      <trkpt lat="41.77179" lon="9.10943">
        <ele>1037.88</ele>
        <time>2022-04-29T14:14:47Z</time>
      </trkpt>
      <trkpt lat="41.77195" lon="9.10937">
        <ele>1035</ele>
        <time>2022-04-29T14:15:00Z</time>
      </trkpt>
      <trkpt lat="41.77212" lon="9.10941">
        <ele>1032.11</ele>
        <time>2022-04-29T14:15:15Z</time>
      </trkpt>
      <trkpt lat="41.77221" lon="9.10944">
        <ele>1031.15</ele>
        <time>2022-04-29T14:15:22Z</time>
      </trkpt>
      <trkpt lat="41.77239" lon="9.10946">
        <ele>1028.75</ele>
        <time>2022-04-29T14:15:38Z</time>
      </trkpt>
      <trkpt lat="41.77254" lon="9.10952">
        <ele>1026.83</ele>
        <time>2022-04-29T14:15:52Z</time>
      </trkpt>
      <trkpt lat="41.77265" lon="9.10946">
        <ele>1024.9</ele>
        <time>2022-04-29T14:16:04Z</time>
      </trkpt>
      <trkpt lat="41.77283" lon="9.10939">
        <ele>1024.9</ele>
        <time>2022-04-29T14:16:22Z</time>
      </trkpt>
      <trkpt lat="41.77296" lon="9.10933">
        <ele>1025.86</ele>
        <time>2022-04-29T14:16:35Z</time>
      </trkpt>
      <trkpt lat="41.77309" lon="9.10926">
        <ele>1026.34</ele>
        <time>2022-04-29T14:16:50Z</time>
      </trkpt>
      <trkpt lat="41.77327" lon="9.10919">
        <ele>1028.27</ele>
        <time>2022-04-29T14:17:06Z</time>
      </trkpt>
      <trkpt lat="41.77336" lon="9.10917">
        <ele>1029.71</ele>
        <time>2022-04-29T14:17:20Z</time>
      </trkpt>
      <trkpt lat="41.77334" lon="9.10925">
        <ele>1030.19</ele>
        <time>2022-04-29T14:17:49Z</time>
      </trkpt>
      <trkpt lat="41.77337" lon="9.10923">
        <ele>1029.71</ele>
        <time>2022-04-29T14:18:36Z</time>
      </trkpt>
      <trkpt lat="41.77351" lon="9.10924">
        <ele>1028.75</ele>
        <time>2022-04-29T14:18:54Z</time>
      </trkpt>
      <trkpt lat="41.7736" lon="9.10931">
        <ele>1026.83</ele>
        <time>2022-04-29T14:19:05Z</time>
      </trkpt>
      <trkpt lat="41.77361" lon="9.10932">
        <ele>1026.83</ele>
        <time>2022-04-29T14:19:06Z</time>
      </trkpt>
      <trkpt lat="41.77362" lon="9.10933">
        <ele>1027.31</ele>
        <time>2022-04-29T14:19:07Z</time>
      </trkpt>
      <trkpt lat="41.77363" lon="9.10934">
        <ele>1026.83</ele>
        <time>2022-04-29T14:19:08Z</time>
      </trkpt>
      <trkpt lat="41.77373" lon="9.10952">
        <ele>1027.31</ele>
        <time>2022-04-29T14:19:24Z</time>
      </trkpt>
      <trkpt lat="41.77389" lon="9.10956">
        <ele>1025.38</ele>
        <time>2022-04-29T14:19:38Z</time>
      </trkpt>
      <trkpt lat="41.77399" lon="9.10953">
        <ele>1025.38</ele>
        <time>2022-04-29T14:19:46Z</time>
      </trkpt>
      <trkpt lat="41.77421" lon="9.10946">
        <ele>1024.42</ele>
        <time>2022-04-29T14:20:04Z</time>
      </trkpt>
      <trkpt lat="41.77428" lon="9.10941">
        <ele>1024.9</ele>
        <time>2022-04-29T14:20:10Z</time>
      </trkpt>
      <trkpt lat="41.77451" lon="9.10922">
        <ele>1024.42</ele>
        <time>2022-04-29T14:20:30Z</time>
      </trkpt>
      <trkpt lat="41.77469" lon="9.10909">
        <ele>1024.42</ele>
        <time>2022-04-29T14:20:47Z</time>
      </trkpt>
      <trkpt lat="41.77495" lon="9.10897">
        <ele>1023.46</ele>
        <time>2022-04-29T14:21:07Z</time>
      </trkpt>
      <trkpt lat="41.77509" lon="9.10893">
        <ele>1023.46</ele>
        <time>2022-04-29T14:21:17Z</time>
      </trkpt>
      <trkpt lat="41.7751" lon="9.10892">
        <ele>1023.94</ele>
        <time>2022-04-29T14:21:18Z</time>
      </trkpt>
      <trkpt lat="41.77511" lon="9.10891">
        <ele>1023.46</ele>
        <time>2022-04-29T14:21:19Z</time>
      </trkpt>
      <trkpt lat="41.77512" lon="9.1089">
        <ele>1023.46</ele>
        <time>2022-04-29T14:21:20Z</time>
      </trkpt>
      <trkpt lat="41.77513" lon="9.10888">
        <ele>1023.94</ele>
        <time>2022-04-29T14:21:21Z</time>
      </trkpt>
      <trkpt lat="41.77514" lon="9.10887">
        <ele>1023.94</ele>
        <time>2022-04-29T14:21:22Z</time>
      </trkpt>
      <trkpt lat="41.77515" lon="9.10886">
        <ele>1023.94</ele>
        <time>2022-04-29T14:21:23Z</time>
      </trkpt>
      <trkpt lat="41.77516" lon="9.10885">
        <ele>1023.46</ele>
        <time>2022-04-29T14:21:24Z</time>
      </trkpt>
      <trkpt lat="41.77532" lon="9.10877">
        <ele>1022.02</ele>
        <time>2022-04-29T14:21:39Z</time>
      </trkpt>
      <trkpt lat="41.77553" lon="9.10872">
        <ele>1019.62</ele>
        <time>2022-04-29T14:21:56Z</time>
      </trkpt>
      <trkpt lat="41.77573" lon="9.10862">
        <ele>1019.13</ele>
        <time>2022-04-29T14:22:12Z</time>
      </trkpt>
      <trkpt lat="41.77577" lon="9.10863">
        <ele>1018.65</ele>
        <time>2022-04-29T14:22:15Z</time>
      </trkpt>
      <trkpt lat="41.776" lon="9.10865">
        <ele>1018.65</ele>
        <time>2022-04-29T14:22:33Z</time>
      </trkpt>
      <trkpt lat="41.77615" lon="9.10862">
        <ele>1019.62</ele>
        <time>2022-04-29T14:22:49Z</time>
      </trkpt>
      <trkpt lat="41.77632" lon="9.10863">
        <ele>1019.62</ele>
        <time>2022-04-29T14:23:06Z</time>
      </trkpt>
      <trkpt lat="41.77647" lon="9.10865">
        <ele>1020.58</ele>
        <time>2022-04-29T14:23:23Z</time>
      </trkpt>
      <trkpt lat="41.77652" lon="9.10869">
        <ele>1021.54</ele>
        <time>2022-04-29T14:23:30Z</time>
      </trkpt>
      <trkpt lat="41.77665" lon="9.10872">
        <ele>1019.62</ele>
        <time>2022-04-29T14:23:44Z</time>
      </trkpt>
      <trkpt lat="41.77668" lon="9.10871">
        <ele>1020.58</ele>
        <time>2022-04-29T14:23:59Z</time>
      </trkpt>
      <trkpt lat="41.77663" lon="9.10869">
        <ele>1021.06</ele>
        <time>2022-04-29T14:24:31Z</time>
      </trkpt>
      <trkpt lat="41.77671" lon="9.10874">
        <ele>1021.06</ele>
        <time>2022-04-29T14:24:53Z</time>
      </trkpt>
      <trkpt lat="41.77689" lon="9.10873">
        <ele>1020.58</ele>
        <time>2022-04-29T14:25:07Z</time>
      </trkpt>
      <trkpt lat="41.7769" lon="9.10872">
        <ele>1020.1</ele>
        <time>2022-04-29T14:25:08Z</time>
      </trkpt>
      <trkpt lat="41.77692" lon="9.10871">
        <ele>1020.1</ele>
        <time>2022-04-29T14:25:09Z</time>
      </trkpt>
      <trkpt lat="41.77711" lon="9.10856">
        <ele>1019.13</ele>
        <time>2022-04-29T14:25:27Z</time>
      </trkpt>
      <trkpt lat="41.77733" lon="9.10843">
        <ele>1020.58</ele>
        <time>2022-04-29T14:25:48Z</time>
      </trkpt>
      <trkpt lat="41.77742" lon="9.10844">
        <ele>1022.02</ele>
        <time>2022-04-29T14:25:57Z</time>
      </trkpt>
      <trkpt lat="41.77743" lon="9.10848">
        <ele>1021.54</ele>
        <time>2022-04-29T14:26:10Z</time>
      </trkpt>
      <trkpt lat="41.77745" lon="9.10851">
        <ele>1022.5</ele>
        <time>2022-04-29T14:26:16Z</time>
      </trkpt>
      <trkpt lat="41.77746" lon="9.10853">
        <ele>1022.02</ele>
        <time>2022-04-29T14:26:17Z</time>
      </trkpt>
      <trkpt lat="41.77746" lon="9.10854">
        <ele>1022.02</ele>
        <time>2022-04-29T14:26:18Z</time>
      </trkpt>
      <trkpt lat="41.77747" lon="9.10855">
        <ele>1022.5</ele>
        <time>2022-04-29T14:26:19Z</time>
      </trkpt>
      <trkpt lat="41.77747" lon="9.10857">
        <ele>1022.98</ele>
        <time>2022-04-29T14:26:20Z</time>
      </trkpt>
      <trkpt lat="41.77748" lon="9.10858">
        <ele>1022.02</ele>
        <time>2022-04-29T14:26:21Z</time>
      </trkpt>
      <trkpt lat="41.77759" lon="9.10874">
        <ele>1021.54</ele>
        <time>2022-04-29T14:26:37Z</time>
      </trkpt>
      <trkpt lat="41.77762" lon="9.10879">
        <ele>1022.02</ele>
        <time>2022-04-29T14:26:41Z</time>
      </trkpt>
      <trkpt lat="41.77763" lon="9.1088">
        <ele>1022.02</ele>
        <time>2022-04-29T14:26:42Z</time>
      </trkpt>
      <trkpt lat="41.77773" lon="9.10893">
        <ele>1022.98</ele>
        <time>2022-04-29T14:26:56Z</time>
      </trkpt>
      <trkpt lat="41.77779" lon="9.10897">
        <ele>1023.94</ele>
        <time>2022-04-29T14:27:03Z</time>
      </trkpt>
      <trkpt lat="41.77789" lon="9.10912">
        <ele>1024.9</ele>
        <time>2022-04-29T14:27:18Z</time>
      </trkpt>
      <trkpt lat="41.77802" lon="9.10922">
        <ele>1026.34</ele>
        <time>2022-04-29T14:27:33Z</time>
      </trkpt>
      <trkpt lat="41.77814" lon="9.10935">
        <ele>1027.31</ele>
        <time>2022-04-29T14:27:49Z</time>
      </trkpt>
      <trkpt lat="41.77819" lon="9.1095">
        <ele>1029.23</ele>
        <time>2022-04-29T14:28:05Z</time>
      </trkpt>
      <trkpt lat="41.77831" lon="9.10965">
        <ele>1030.19</ele>
        <time>2022-04-29T14:28:23Z</time>
      </trkpt>
      <trkpt lat="41.77842" lon="9.10975">
        <ele>1031.63</ele>
        <time>2022-04-29T14:28:38Z</time>
      </trkpt>
      <trkpt lat="41.77851" lon="9.10984">
        <ele>1032.11</ele>
        <time>2022-04-29T14:28:51Z</time>
      </trkpt>
      <trkpt lat="41.77859" lon="9.11004">
        <ele>1032.11</ele>
        <time>2022-04-29T14:29:06Z</time>
      </trkpt>
      <trkpt lat="41.77869" lon="9.11018">
        <ele>1033.07</ele>
        <time>2022-04-29T14:29:20Z</time>
      </trkpt>
      <trkpt lat="41.77884" lon="9.11029">
        <ele>1034.52</ele>
        <time>2022-04-29T14:29:37Z</time>
      </trkpt>
      <trkpt lat="41.77894" lon="9.11043">
        <ele>1034.52</ele>
        <time>2022-04-29T14:29:50Z</time>
      </trkpt>
      <trkpt lat="41.77899" lon="9.1105">
        <ele>1034.52</ele>
        <time>2022-04-29T14:29:56Z</time>
      </trkpt>
      <trkpt lat="41.77913" lon="9.1106">
        <ele>1031.63</ele>
        <time>2022-04-29T14:30:11Z</time>
      </trkpt>
      <trkpt lat="41.77928" lon="9.11071">
        <ele>1029.23</ele>
        <time>2022-04-29T14:30:25Z</time>
      </trkpt>
      <trkpt lat="41.77938" lon="9.11078">
        <ele>1026.83</ele>
        <time>2022-04-29T14:30:40Z</time>
      </trkpt>
      <trkpt lat="41.77945" lon="9.11077">
        <ele>1025.38</ele>
        <time>2022-04-29T14:31:00Z</time>
      </trkpt>
      <trkpt lat="41.77956" lon="9.11075">
        <ele>1021.54</ele>
        <time>2022-04-29T14:31:11Z</time>
      </trkpt>
      <trkpt lat="41.77972" lon="9.11079">
        <ele>1018.65</ele>
        <time>2022-04-29T14:31:28Z</time>
      </trkpt>
      <trkpt lat="41.77987" lon="9.11095">
        <ele>1016.25</ele>
        <time>2022-04-29T14:31:47Z</time>
      </trkpt>
      <trkpt lat="41.77999" lon="9.11114">
        <ele>1014.33</ele>
        <time>2022-04-29T14:32:04Z</time>
      </trkpt>
      <trkpt lat="41.78009" lon="9.11132">
        <ele>1013.37</ele>
        <time>2022-04-29T14:32:20Z</time>
      </trkpt>
      <trkpt lat="41.78021" lon="9.11146">
        <ele>1011.44</ele>
        <time>2022-04-29T14:32:36Z</time>
      </trkpt>
      <trkpt lat="41.78034" lon="9.11157">
        <ele>1009.52</ele>
        <time>2022-04-29T14:32:53Z</time>
      </trkpt>
      <trkpt lat="41.78049" lon="9.11161">
        <ele>1007.6</ele>
        <time>2022-04-29T14:33:12Z</time>
      </trkpt>
      <trkpt lat="41.7805" lon="9.11161">
        <ele>1007.12</ele>
        <time>2022-04-29T14:33:40Z</time>
      </trkpt>
      <trkpt lat="41.78059" lon="9.11168">
        <ele>1005.68</ele>
        <time>2022-04-29T14:34:02Z</time>
      </trkpt>
      <trkpt lat="41.78077" lon="9.11177">
        <ele>1003.75</ele>
        <time>2022-04-29T14:34:20Z</time>
      </trkpt>
      <trkpt lat="41.78092" lon="9.11189">
        <ele>1002.31</ele>
        <time>2022-04-29T14:34:37Z</time>
      </trkpt>
      <trkpt lat="41.78107" lon="9.11196">
        <ele>1000.87</ele>
        <time>2022-04-29T14:34:52Z</time>
      </trkpt>
      <trkpt lat="41.78122" lon="9.11198">
        <ele>1000.39</ele>
        <time>2022-04-29T14:35:07Z</time>
      </trkpt>
      <trkpt lat="41.78136" lon="9.1121">
        <ele>1000.39</ele>
        <time>2022-04-29T14:35:23Z</time>
      </trkpt>
      <trkpt lat="41.78139" lon="9.11223">
        <ele>1001.83</ele>
        <time>2022-04-29T14:35:38Z</time>
      </trkpt>
      <trkpt lat="41.78144" lon="9.11234">
        <ele>1004.72</ele>
        <time>2022-04-29T14:35:51Z</time>
      </trkpt>
      <trkpt lat="41.78144" lon="9.11243">
        <ele>1004.72</ele>
        <time>2022-04-29T14:35:58Z</time>
      </trkpt>
      <trkpt lat="41.78144" lon="9.11245">
        <ele>1004.72</ele>
        <time>2022-04-29T14:35:59Z</time>
      </trkpt>
      <trkpt lat="41.78145" lon="9.11246">
        <ele>1004.72</ele>
        <time>2022-04-29T14:36:00Z</time>
      </trkpt>
      <trkpt lat="41.78152" lon="9.11257">
        <ele>1004.72</ele>
        <time>2022-04-29T14:36:09Z</time>
      </trkpt>
      <trkpt lat="41.78153" lon="9.11258">
        <ele>1005.2</ele>
        <time>2022-04-29T14:36:10Z</time>
      </trkpt>
      <trkpt lat="41.78166" lon="9.11273">
        <ele>1004.23</ele>
        <time>2022-04-29T14:36:26Z</time>
      </trkpt>
      <trkpt lat="41.78178" lon="9.11287">
        <ele>1003.27</ele>
        <time>2022-04-29T14:36:44Z</time>
      </trkpt>
      <trkpt lat="41.78195" lon="9.113">
        <ele>1003.75</ele>
        <time>2022-04-29T14:37:03Z</time>
      </trkpt>
      <trkpt lat="41.78212" lon="9.11306">
        <ele>1001.35</ele>
        <time>2022-04-29T14:37:22Z</time>
      </trkpt>
      <trkpt lat="41.78228" lon="9.11312">
        <ele>998.47</ele>
        <time>2022-04-29T14:37:40Z</time>
      </trkpt>
      <trkpt lat="41.78247" lon="9.11315">
        <ele>997.02</ele>
        <time>2022-04-29T14:37:57Z</time>
      </trkpt>
      <trkpt lat="41.78264" lon="9.11324">
        <ele>996.06</ele>
        <time>2022-04-29T14:38:11Z</time>
      </trkpt>
      <trkpt lat="41.78266" lon="9.11327">
        <ele>996.06</ele>
        <time>2022-04-29T14:38:14Z</time>
      </trkpt>
      <trkpt lat="41.78275" lon="9.11339">
        <ele>997.99</ele>
        <time>2022-04-29T14:38:29Z</time>
      </trkpt>
      <trkpt lat="41.78284" lon="9.11357">
        <ele>998.95</ele>
        <time>2022-04-29T14:38:44Z</time>
      </trkpt>
      <trkpt lat="41.78295" lon="9.1137">
        <ele>997.02</ele>
        <time>2022-04-29T14:39:00Z</time>
      </trkpt>
      <trkpt lat="41.7831" lon="9.11383">
        <ele>996.54</ele>
        <time>2022-04-29T14:39:15Z</time>
      </trkpt>
      <trkpt lat="41.78319" lon="9.11388">
        <ele>996.54</ele>
        <time>2022-04-29T14:39:30Z</time>
      </trkpt>
      <trkpt lat="41.78333" lon="9.11394">
        <ele>997.02</ele>
        <time>2022-04-29T14:39:47Z</time>
      </trkpt>
      <trkpt lat="41.78341" lon="9.11405">
        <ele>997.02</ele>
        <time>2022-04-29T14:40:01Z</time>
      </trkpt>
      <trkpt lat="41.7835" lon="9.11415">
        <ele>997.99</ele>
        <time>2022-04-29T14:40:15Z</time>
      </trkpt>
      <trkpt lat="41.78357" lon="9.11417">
        <ele>998.47</ele>
        <time>2022-04-29T14:40:24Z</time>
      </trkpt>
      <trkpt lat="41.78358" lon="9.11417">
        <ele>997.99</ele>
        <time>2022-04-29T14:40:25Z</time>
      </trkpt>
      <trkpt lat="41.78369" lon="9.11417">
        <ele>998.95</ele>
        <time>2022-04-29T14:40:36Z</time>
      </trkpt>
      <trkpt lat="41.78377" lon="9.11417">
        <ele>998.47</ele>
        <time>2022-04-29T14:40:51Z</time>
      </trkpt>
      <trkpt lat="41.78391" lon="9.11415">
        <ele>995.58</ele>
        <time>2022-04-29T14:41:06Z</time>
      </trkpt>
      <trkpt lat="41.78405" lon="9.11418">
        <ele>992.22</ele>
        <time>2022-04-29T14:41:20Z</time>
      </trkpt>
      <trkpt lat="41.78412" lon="9.1142">
        <ele>990.3</ele>
        <time>2022-04-29T14:41:26Z</time>
      </trkpt>
      <trkpt lat="41.78412" lon="9.11421">
        <ele>990.3</ele>
        <time>2022-04-29T14:41:27Z</time>
      </trkpt>
      <trkpt lat="41.78423" lon="9.11427">
        <ele>987.41</ele>
        <time>2022-04-29T14:41:39Z</time>
      </trkpt>
      <trkpt lat="41.78425" lon="9.11427">
        <ele>987.41</ele>
        <time>2022-04-29T14:41:40Z</time>
      </trkpt>
      <trkpt lat="41.78435" lon="9.11435">
        <ele>984.53</ele>
        <time>2022-04-29T14:41:54Z</time>
      </trkpt>
      <trkpt lat="41.78439" lon="9.11438">
        <ele>982.6</ele>
        <time>2022-04-29T14:42:02Z</time>
      </trkpt>
      <trkpt lat="41.78445" lon="9.11439">
        <ele>980.2</ele>
        <time>2022-04-29T14:42:13Z</time>
      </trkpt>
      <trkpt lat="41.78455" lon="9.11446">
        <ele>977.8</ele>
        <time>2022-04-29T14:42:28Z</time>
      </trkpt>
      <trkpt lat="41.78463" lon="9.11451">
        <ele>976.84</ele>
        <time>2022-04-29T14:42:44Z</time>
      </trkpt>
      <trkpt lat="41.78468" lon="9.1146">
        <ele>975.88</ele>
        <time>2022-04-29T14:43:03Z</time>
      </trkpt>
      <trkpt lat="41.78466" lon="9.11462">
        <ele>975.88</ele>
        <time>2022-04-29T14:43:25Z</time>
      </trkpt>
      <trkpt lat="41.78464" lon="9.11458">
        <ele>975.88</ele>
        <time>2022-04-29T14:43:38Z</time>
      </trkpt>
      <trkpt lat="41.78464" lon="9.1145">
        <ele>975.88</ele>
        <time>2022-04-29T14:43:54Z</time>
      </trkpt>
      <trkpt lat="41.78466" lon="9.11463">
        <ele>976.84</ele>
        <time>2022-04-29T14:44:08Z</time>
      </trkpt>
      <trkpt lat="41.78463" lon="9.11461">
        <ele>976.36</ele>
        <time>2022-04-29T14:44:25Z</time>
      </trkpt>
      <trkpt lat="41.7846" lon="9.11472">
        <ele>976.36</ele>
        <time>2022-04-29T14:44:41Z</time>
      </trkpt>
      <trkpt lat="41.78459" lon="9.11475">
        <ele>975.88</ele>
        <time>2022-04-29T14:45:02Z</time>
      </trkpt>
      <trkpt lat="41.78459" lon="9.11475">
        <ele>975.88</ele>
        <time>2022-04-29T14:45:06Z</time>
      </trkpt>
      <trkpt lat="41.78461" lon="9.11475">
        <ele>975.39</ele>
        <time>2022-04-29T14:45:36Z</time>
      </trkpt>
      <trkpt lat="41.78463" lon="9.1147">
        <ele>976.36</ele>
        <time>2022-04-29T14:46:01Z</time>
      </trkpt>
      <trkpt lat="41.78465" lon="9.11475">
        <ele>977.8</ele>
        <time>2022-04-29T14:46:14Z</time>
      </trkpt>
      <trkpt lat="41.78474" lon="9.11479">
        <ele>980.2</ele>
        <time>2022-04-29T14:46:31Z</time>
      </trkpt>
      <trkpt lat="41.78481" lon="9.11488">
        <ele>982.12</ele>
        <time>2022-04-29T14:46:44Z</time>
      </trkpt>
      <trkpt lat="41.78491" lon="9.11494">
        <ele>984.05</ele>
        <time>2022-04-29T14:46:59Z</time>
      </trkpt>
      <trkpt lat="41.78494" lon="9.11505">
        <ele>985.49</ele>
        <time>2022-04-29T14:47:10Z</time>
      </trkpt>
      <trkpt lat="41.78488" lon="9.11516">
        <ele>987.41</ele>
        <time>2022-04-29T14:47:23Z</time>
      </trkpt>
      <trkpt lat="41.78484" lon="9.11527">
        <ele>990.3</ele>
        <time>2022-04-29T14:47:37Z</time>
      </trkpt>
      <trkpt lat="41.78484" lon="9.11538">
        <ele>991.74</ele>
        <time>2022-04-29T14:47:51Z</time>
      </trkpt>
      <trkpt lat="41.78481" lon="9.11549">
        <ele>994.14</ele>
        <time>2022-04-29T14:48:07Z</time>
      </trkpt>
      <trkpt lat="41.78478" lon="9.1156">
        <ele>996.54</ele>
        <time>2022-04-29T14:48:21Z</time>
      </trkpt>
      <trkpt lat="41.78474" lon="9.11575">
        <ele>998.95</ele>
        <time>2022-04-29T14:48:38Z</time>
      </trkpt>
      <trkpt lat="41.78474" lon="9.11586">
        <ele>1001.35</ele>
        <time>2022-04-29T14:48:53Z</time>
      </trkpt>
      <trkpt lat="41.78465" lon="9.11602">
        <ele>1003.27</ele>
        <time>2022-04-29T14:49:12Z</time>
      </trkpt>
      <trkpt lat="41.78462" lon="9.11617">
        <ele>1005.68</ele>
        <time>2022-04-29T14:49:28Z</time>
      </trkpt>
      <trkpt lat="41.78464" lon="9.11625">
        <ele>1008.08</ele>
        <time>2022-04-29T14:49:44Z</time>
      </trkpt>
      <trkpt lat="41.78473" lon="9.11624">
        <ele>1010</ele>
        <time>2022-04-29T14:49:59Z</time>
      </trkpt>
      <trkpt lat="41.78481" lon="9.11625">
        <ele>1012.41</ele>
        <time>2022-04-29T14:50:14Z</time>
      </trkpt>
      <trkpt lat="41.7849" lon="9.11623">
        <ele>1013.85</ele>
        <time>2022-04-29T14:50:26Z</time>
      </trkpt>
      <trkpt lat="41.78497" lon="9.11627">
        <ele>1015.29</ele>
        <time>2022-04-29T14:50:43Z</time>
      </trkpt>
      <trkpt lat="41.78506" lon="9.11629">
        <ele>1019.13</ele>
        <time>2022-04-29T14:50:59Z</time>
      </trkpt>
      <trkpt lat="41.78516" lon="9.11633">
        <ele>1021.54</ele>
        <time>2022-04-29T14:51:16Z</time>
      </trkpt>
      <trkpt lat="41.78525" lon="9.11631">
        <ele>1023.46</ele>
        <time>2022-04-29T14:51:32Z</time>
      </trkpt>
      <trkpt lat="41.78536" lon="9.11639">
        <ele>1026.34</ele>
        <time>2022-04-29T14:51:48Z</time>
      </trkpt>
      <trkpt lat="41.78528" lon="9.11646">
        <ele>1028.27</ele>
        <time>2022-04-29T14:52:02Z</time>
      </trkpt>
      <trkpt lat="41.7852" lon="9.11659">
        <ele>1029.71</ele>
        <time>2022-04-29T14:52:19Z</time>
      </trkpt>
      <trkpt lat="41.78518" lon="9.11669">
        <ele>1032.59</ele>
        <time>2022-04-29T14:52:35Z</time>
      </trkpt>
      <trkpt lat="41.78515" lon="9.11683">
        <ele>1035.96</ele>
        <time>2022-04-29T14:52:53Z</time>
      </trkpt>
      <trkpt lat="41.78519" lon="9.11699">
        <ele>1039.32</ele>
        <time>2022-04-29T14:53:13Z</time>
      </trkpt>
      <trkpt lat="41.78525" lon="9.117">
        <ele>1042.21</ele>
        <time>2022-04-29T14:53:31Z</time>
      </trkpt>
      <trkpt lat="41.78529" lon="9.11709">
        <ele>1045.09</ele>
        <time>2022-04-29T14:53:46Z</time>
      </trkpt>
      <trkpt lat="41.78524" lon="9.11727">
        <ele>1047.49</ele>
        <time>2022-04-29T14:54:03Z</time>
      </trkpt>
      <trkpt lat="41.78522" lon="9.11742">
        <ele>1049.9</ele>
        <time>2022-04-29T14:54:17Z</time>
      </trkpt>
      <trkpt lat="41.78519" lon="9.11759">
        <ele>1051.34</ele>
        <time>2022-04-29T14:54:36Z</time>
      </trkpt>
      <trkpt lat="41.78517" lon="9.11772">
        <ele>1052.78</ele>
        <time>2022-04-29T14:54:48Z</time>
      </trkpt>
      <trkpt lat="41.78518" lon="9.11784">
        <ele>1055.67</ele>
        <time>2022-04-29T14:55:01Z</time>
      </trkpt>
      <trkpt lat="41.78513" lon="9.11801">
        <ele>1057.11</ele>
        <time>2022-04-29T14:55:18Z</time>
      </trkpt>
      <trkpt lat="41.78509" lon="9.11821">
        <ele>1058.55</ele>
        <time>2022-04-29T14:55:34Z</time>
      </trkpt>
      <trkpt lat="41.78507" lon="9.11834">
        <ele>1059.51</ele>
        <time>2022-04-29T14:55:50Z</time>
      </trkpt>
      <trkpt lat="41.78506" lon="9.11844">
        <ele>1059.51</ele>
        <time>2022-04-29T14:56:17Z</time>
      </trkpt>
      <trkpt lat="41.78503" lon="9.11848">
        <ele>1059.99</ele>
        <time>2022-04-29T14:56:36Z</time>
      </trkpt>
      <trkpt lat="41.78493" lon="9.11862">
        <ele>1059.99</ele>
        <time>2022-04-29T14:56:53Z</time>
      </trkpt>
      <trkpt lat="41.7848" lon="9.11871">
        <ele>1057.11</ele>
        <time>2022-04-29T14:57:07Z</time>
      </trkpt>
      <trkpt lat="41.78463" lon="9.1188">
        <ele>1054.7</ele>
        <time>2022-04-29T14:57:24Z</time>
      </trkpt>
      <trkpt lat="41.78448" lon="9.11885">
        <ele>1052.78</ele>
        <time>2022-04-29T14:57:40Z</time>
      </trkpt>
      <trkpt lat="41.78434" lon="9.11892">
        <ele>1051.34</ele>
        <time>2022-04-29T14:57:55Z</time>
      </trkpt>
      <trkpt lat="41.78423" lon="9.119">
        <ele>1049.42</ele>
        <time>2022-04-29T14:58:08Z</time>
      </trkpt>
      <trkpt lat="41.78415" lon="9.11918">
        <ele>1048.94</ele>
        <time>2022-04-29T14:58:22Z</time>
      </trkpt>
      <trkpt lat="41.78407" lon="9.1193">
        <ele>1049.9</ele>
        <time>2022-04-29T14:58:39Z</time>
      </trkpt>
      <trkpt lat="41.78396" lon="9.11934">
        <ele>1051.34</ele>
        <time>2022-04-29T14:58:55Z</time>
      </trkpt>
      <trkpt lat="41.78389" lon="9.11942">
        <ele>1052.78</ele>
        <time>2022-04-29T14:59:09Z</time>
      </trkpt>
      <trkpt lat="41.78383" lon="9.11946">
        <ele>1056.15</ele>
        <time>2022-04-29T14:59:23Z</time>
      </trkpt>
      <trkpt lat="41.7837" lon="9.11942">
        <ele>1057.59</ele>
        <time>2022-04-29T14:59:40Z</time>
      </trkpt>
      <trkpt lat="41.78355" lon="9.11937">
        <ele>1058.55</ele>
        <time>2022-04-29T14:59:54Z</time>
      </trkpt>
      <trkpt lat="41.78338" lon="9.11935">
        <ele>1058.07</ele>
        <time>2022-04-29T15:00:10Z</time>
      </trkpt>
      <trkpt lat="41.78325" lon="9.11934">
        <ele>1058.55</ele>
        <time>2022-04-29T15:00:26Z</time>
      </trkpt>
      <trkpt lat="41.78316" lon="9.11928">
        <ele>1055.18</ele>
        <time>2022-04-29T15:00:41Z</time>
      </trkpt>
      <trkpt lat="41.78297" lon="9.11926">
        <ele>1054.22</ele>
        <time>2022-04-29T15:00:57Z</time>
      </trkpt>
      <trkpt lat="41.78289" lon="9.11937">
        <ele>1057.11</ele>
        <time>2022-04-29T15:01:10Z</time>
      </trkpt>
      <trkpt lat="41.78281" lon="9.11945">
        <ele>1059.51</ele>
        <time>2022-04-29T15:01:24Z</time>
      </trkpt>
      <trkpt lat="41.78271" lon="9.11956">
        <ele>1060.47</ele>
        <time>2022-04-29T15:01:40Z</time>
      </trkpt>
      <trkpt lat="41.7826" lon="9.1196">
        <ele>1061.91</ele>
        <time>2022-04-29T15:01:51Z</time>
      </trkpt>
      <trkpt lat="41.78252" lon="9.11966">
        <ele>1063.84</ele>
        <time>2022-04-29T15:02:02Z</time>
      </trkpt>
      <trkpt lat="41.78235" lon="9.11979">
        <ele>1064.32</ele>
        <time>2022-04-29T15:02:19Z</time>
      </trkpt>
      <trkpt lat="41.78232" lon="9.12001">
        <ele>1065.76</ele>
        <time>2022-04-29T15:02:36Z</time>
      </trkpt>
      <trkpt lat="41.78233" lon="9.12012">
        <ele>1066.24</ele>
        <time>2022-04-29T15:02:45Z</time>
      </trkpt>
      <trkpt lat="41.78239" lon="9.12033">
        <ele>1068.64</ele>
        <time>2022-04-29T15:03:01Z</time>
      </trkpt>
      <trkpt lat="41.78245" lon="9.12054">
        <ele>1069.12</ele>
        <time>2022-04-29T15:03:17Z</time>
      </trkpt>
      <trkpt lat="41.78247" lon="9.12074">
        <ele>1071.05</ele>
        <time>2022-04-29T15:03:33Z</time>
      </trkpt>
      <trkpt lat="41.78251" lon="9.12099">
        <ele>1073.93</ele>
        <time>2022-04-29T15:03:50Z</time>
      </trkpt>
      <trkpt lat="41.78253" lon="9.12122">
        <ele>1076.33</ele>
        <time>2022-04-29T15:04:06Z</time>
      </trkpt>
      <trkpt lat="41.78259" lon="9.12145">
        <ele>1078.74</ele>
        <time>2022-04-29T15:04:21Z</time>
      </trkpt>
      <trkpt lat="41.78267" lon="9.12171">
        <ele>1081.14</ele>
        <time>2022-04-29T15:04:40Z</time>
      </trkpt>
      <trkpt lat="41.78268" lon="9.12175">
        <ele>1081.62</ele>
        <time>2022-04-29T15:04:42Z</time>
      </trkpt>
      <trkpt lat="41.78269" lon="9.12197">
        <ele>1082.1</ele>
        <time>2022-04-29T15:04:54Z</time>
      </trkpt>
      <trkpt lat="41.78268" lon="9.122">
        <ele>1082.58</ele>
        <time>2022-04-29T15:04:57Z</time>
      </trkpt>
      <trkpt lat="41.78268" lon="9.12201">
        <ele>1083.54</ele>
        <time>2022-04-29T15:04:58Z</time>
      </trkpt>
      <trkpt lat="41.78266" lon="9.12203">
        <ele>1082.58</ele>
        <time>2022-04-29T15:04:59Z</time>
      </trkpt>
      <trkpt lat="41.78265" lon="9.12204">
        <ele>1082.58</ele>
        <time>2022-04-29T15:05:00Z</time>
      </trkpt>
      <trkpt lat="41.78264" lon="9.12206">
        <ele>1083.54</ele>
        <time>2022-04-29T15:05:01Z</time>
      </trkpt>
      <trkpt lat="41.78263" lon="9.12207">
        <ele>1083.06</ele>
        <time>2022-04-29T15:05:02Z</time>
      </trkpt>
      <trkpt lat="41.78255" lon="9.12211">
        <ele>1084.99</ele>
        <time>2022-04-29T15:05:13Z</time>
      </trkpt>
      <trkpt lat="41.78247" lon="9.12213">
        <ele>1085.47</ele>
        <time>2022-04-29T15:05:27Z</time>
      </trkpt>
      <trkpt lat="41.7823" lon="9.12224">
        <ele>1086.43</ele>
        <time>2022-04-29T15:05:38Z</time>
      </trkpt>
      <trkpt lat="41.78224" lon="9.12229">
        <ele>1088.35</ele>
        <time>2022-04-29T15:05:50Z</time>
      </trkpt>
      <trkpt lat="41.78223" lon="9.12232">
        <ele>1088.83</ele>
        <time>2022-04-29T15:05:52Z</time>
      </trkpt>
      <trkpt lat="41.78226" lon="9.12264">
        <ele>1090.27</ele>
        <time>2022-04-29T15:06:03Z</time>
      </trkpt>
      <trkpt lat="41.78237" lon="9.12285">
        <ele>1091.23</ele>
        <time>2022-04-29T15:06:18Z</time>
      </trkpt>
      <trkpt lat="41.78245" lon="9.123">
        <ele>1093.16</ele>
        <time>2022-04-29T15:06:31Z</time>
      </trkpt>
      <trkpt lat="41.78256" lon="9.12316">
        <ele>1094.12</ele>
        <time>2022-04-29T15:06:43Z</time>
      </trkpt>
      <trkpt lat="41.78262" lon="9.12326">
        <ele>1095.08</ele>
        <time>2022-04-29T15:06:52Z</time>
      </trkpt>
      <trkpt lat="41.78267" lon="9.12341">
        <ele>1095.56</ele>
        <time>2022-04-29T15:07:02Z</time>
      </trkpt>
      <trkpt lat="41.78278" lon="9.12358">
        <ele>1097</ele>
        <time>2022-04-29T15:07:14Z</time>
      </trkpt>
      <trkpt lat="41.78283" lon="9.12369">
        <ele>1098.44</ele>
        <time>2022-04-29T15:07:26Z</time>
      </trkpt>
      <trkpt lat="41.78286" lon="9.12372">
        <ele>1098.44</ele>
        <time>2022-04-29T15:07:32Z</time>
      </trkpt>
      <trkpt lat="41.78288" lon="9.12374">
        <ele>1098.92</ele>
        <time>2022-04-29T15:07:34Z</time>
      </trkpt>
      <trkpt lat="41.78289" lon="9.12376">
        <ele>1098.44</ele>
        <time>2022-04-29T15:07:35Z</time>
      </trkpt>
      <trkpt lat="41.7829" lon="9.12378">
        <ele>1098.44</ele>
        <time>2022-04-29T15:07:36Z</time>
      </trkpt>
      <trkpt lat="41.78297" lon="9.12387">
        <ele>1099.4</ele>
        <time>2022-04-29T15:07:40Z</time>
      </trkpt>
      <trkpt lat="41.78298" lon="9.1239">
        <ele>1099.4</ele>
        <time>2022-04-29T15:07:41Z</time>
      </trkpt>
      <trkpt lat="41.78299" lon="9.12393">
        <ele>1098.92</ele>
        <time>2022-04-29T15:07:42Z</time>
      </trkpt>
      <trkpt lat="41.78301" lon="9.12395">
        <ele>1099.4</ele>
        <time>2022-04-29T15:07:43Z</time>
      </trkpt>
      <trkpt lat="41.78302" lon="9.12397">
        <ele>1098.92</ele>
        <time>2022-04-29T15:07:44Z</time>
      </trkpt>
      <trkpt lat="41.78303" lon="9.12399">
        <ele>1099.4</ele>
        <time>2022-04-29T15:07:45Z</time>
      </trkpt>
      <trkpt lat="41.78304" lon="9.12401">
        <ele>1099.4</ele>
        <time>2022-04-29T15:07:46Z</time>
      </trkpt>
      <trkpt lat="41.78305" lon="9.12403">
        <ele>1098.92</ele>
        <time>2022-04-29T15:07:47Z</time>
      </trkpt>
      <trkpt lat="41.78305" lon="9.12405">
        <ele>1098.92</ele>
        <time>2022-04-29T15:07:48Z</time>
      </trkpt>
      <trkpt lat="41.78311" lon="9.12418">
        <ele>1099.4</ele>
        <time>2022-04-29T15:07:57Z</time>
      </trkpt>
      <trkpt lat="41.78312" lon="9.12419">
        <ele>1099.4</ele>
        <time>2022-04-29T15:07:58Z</time>
      </trkpt>
      <trkpt lat="41.78312" lon="9.12422">
        <ele>1099.4</ele>
        <time>2022-04-29T15:07:59Z</time>
      </trkpt>
      <trkpt lat="41.78313" lon="9.12423">
        <ele>1099.89</ele>
        <time>2022-04-29T15:08:00Z</time>
      </trkpt>
      <trkpt lat="41.78314" lon="9.12425">
        <ele>1099.4</ele>
        <time>2022-04-29T15:08:01Z</time>
      </trkpt>
      <trkpt lat="41.78321" lon="9.12439">
        <ele>1099.89</ele>
        <time>2022-04-29T15:08:13Z</time>
      </trkpt>
      <trkpt lat="41.78328" lon="9.12458">
        <ele>1100.37</ele>
        <time>2022-04-29T15:08:26Z</time>
      </trkpt>
      <trkpt lat="41.78334" lon="9.12476">
        <ele>1100.37</ele>
        <time>2022-04-29T15:08:38Z</time>
      </trkpt>
      <trkpt lat="41.78337" lon="9.12486">
        <ele>1100.85</ele>
        <time>2022-04-29T15:08:49Z</time>
      </trkpt>
      <trkpt lat="41.78341" lon="9.12491">
        <ele>1100.85</ele>
        <time>2022-04-29T15:09:03Z</time>
      </trkpt>
      <trkpt lat="41.78341" lon="9.12494">
        <ele>1101.33</ele>
        <time>2022-04-29T15:09:26Z</time>
      </trkpt>
      <trkpt lat="41.78344" lon="9.12502">
        <ele>1102.29</ele>
        <time>2022-04-29T15:09:37Z</time>
      </trkpt>
      <trkpt lat="41.78345" lon="9.12503">
        <ele>1102.29</ele>
        <time>2022-04-29T15:09:38Z</time>
      </trkpt>
      <trkpt lat="41.78351" lon="9.12517">
        <ele>1103.25</ele>
        <time>2022-04-29T15:09:49Z</time>
      </trkpt>
      <trkpt lat="41.78356" lon="9.12528">
        <ele>1103.73</ele>
        <time>2022-04-29T15:09:58Z</time>
      </trkpt>
      <trkpt lat="41.78366" lon="9.12547">
        <ele>1105.17</ele>
        <time>2022-04-29T15:10:13Z</time>
      </trkpt>
      <trkpt lat="41.78367" lon="9.1255">
        <ele>1104.69</ele>
        <time>2022-04-29T15:10:16Z</time>
      </trkpt>
      <trkpt lat="41.78373" lon="9.12567">
        <ele>1105.17</ele>
        <time>2022-04-29T15:10:30Z</time>
      </trkpt>
      <trkpt lat="41.78371" lon="9.12571">
        <ele>1105.65</ele>
        <time>2022-04-29T15:10:45Z</time>
      </trkpt>
      <trkpt lat="41.78372" lon="9.12577">
        <ele>1105.65</ele>
        <time>2022-04-29T15:11:02Z</time>
      </trkpt>
      <trkpt lat="41.78373" lon="9.12578">
        <ele>1105.65</ele>
        <time>2022-04-29T15:11:03Z</time>
      </trkpt>
      <trkpt lat="41.78385" lon="9.12596">
        <ele>1105.65</ele>
        <time>2022-04-29T15:11:19Z</time>
      </trkpt>
      <trkpt lat="41.78397" lon="9.12613">
        <ele>1105.17</ele>
        <time>2022-04-29T15:11:35Z</time>
      </trkpt>
      <trkpt lat="41.784" lon="9.12616">
        <ele>1105.17</ele>
        <time>2022-04-29T15:11:38Z</time>
      </trkpt>
      <trkpt lat="41.78414" lon="9.12637">
        <ele>1104.69</ele>
        <time>2022-04-29T15:11:52Z</time>
      </trkpt>
      <trkpt lat="41.78419" lon="9.12653">
        <ele>1103.73</ele>
        <time>2022-04-29T15:12:05Z</time>
      </trkpt>
      <trkpt lat="41.78411" lon="9.1267">
        <ele>1102.77</ele>
        <time>2022-04-29T15:12:18Z</time>
      </trkpt>
      <trkpt lat="41.78411" lon="9.12677">
        <ele>1102.77</ele>
        <time>2022-04-29T15:12:23Z</time>
      </trkpt>
      <trkpt lat="41.78413" lon="9.12695">
        <ele>1101.81</ele>
        <time>2022-04-29T15:12:33Z</time>
      </trkpt>
      <trkpt lat="41.78414" lon="9.12707">
        <ele>1102.77</ele>
        <time>2022-04-29T15:12:40Z</time>
      </trkpt>
      <trkpt lat="41.78413" lon="9.1271">
        <ele>1102.29</ele>
        <time>2022-04-29T15:12:42Z</time>
      </trkpt>
      <trkpt lat="41.78408" lon="9.12733">
        <ele>1101.81</ele>
        <time>2022-04-29T15:12:54Z</time>
      </trkpt>
      <trkpt lat="41.78405" lon="9.12742">
        <ele>1100.37</ele>
        <time>2022-04-29T15:13:05Z</time>
      </trkpt>
      <trkpt lat="41.78395" lon="9.12765">
        <ele>1099.89</ele>
        <time>2022-04-29T15:13:16Z</time>
      </trkpt>
      <trkpt lat="41.78395" lon="9.12767">
        <ele>1099.89</ele>
        <time>2022-04-29T15:13:17Z</time>
      </trkpt>
      <trkpt lat="41.78391" lon="9.12771">
        <ele>1099.4</ele>
        <time>2022-04-29T15:13:31Z</time>
      </trkpt>
      <trkpt lat="41.78386" lon="9.12781">
        <ele>1098.92</ele>
        <time>2022-04-29T15:13:57Z</time>
      </trkpt>
      <trkpt lat="41.78379" lon="9.12793">
        <ele>1097.96</ele>
        <time>2022-04-29T15:14:11Z</time>
      </trkpt>
      <trkpt lat="41.78371" lon="9.1281">
        <ele>1097</ele>
        <time>2022-04-29T15:14:20Z</time>
      </trkpt>
      <trkpt lat="41.78365" lon="9.12815">
        <ele>1096.04</ele>
        <time>2022-04-29T15:14:31Z</time>
      </trkpt>
      <trkpt lat="41.7836" lon="9.12822">
        <ele>1094.6</ele>
        <time>2022-04-29T15:14:43Z</time>
      </trkpt>
      <trkpt lat="41.78352" lon="9.12827">
        <ele>1094.6</ele>
        <time>2022-04-29T15:14:48Z</time>
      </trkpt>
      <trkpt lat="41.78338" lon="9.12837">
        <ele>1093.16</ele>
        <time>2022-04-29T15:14:58Z</time>
      </trkpt>
      <trkpt lat="41.78313" lon="9.12853">
        <ele>1092.2</ele>
        <time>2022-04-29T15:15:09Z</time>
      </trkpt>
      <trkpt lat="41.78299" lon="9.12864">
        <ele>1090.75</ele>
        <time>2022-04-29T15:15:21Z</time>
      </trkpt>
      <trkpt lat="41.78295" lon="9.12867">
        <ele>1090.27</ele>
        <time>2022-04-29T15:15:28Z</time>
      </trkpt>
      <trkpt lat="41.78292" lon="9.12871">
        <ele>1089.79</ele>
        <time>2022-04-29T15:15:31Z</time>
      </trkpt>
      <trkpt lat="41.78291" lon="9.12873">
        <ele>1089.31</ele>
        <time>2022-04-29T15:15:32Z</time>
      </trkpt>
      <trkpt lat="41.7829" lon="9.12876">
        <ele>1089.79</ele>
        <time>2022-04-29T15:15:33Z</time>
      </trkpt>
      <trkpt lat="41.78289" lon="9.12879">
        <ele>1089.31</ele>
        <time>2022-04-29T15:15:34Z</time>
      </trkpt>
      <trkpt lat="41.78289" lon="9.12882">
        <ele>1088.83</ele>
        <time>2022-04-29T15:15:35Z</time>
      </trkpt>
      <trkpt lat="41.78289" lon="9.12884">
        <ele>1089.31</ele>
        <time>2022-04-29T15:15:36Z</time>
      </trkpt>
      <trkpt lat="41.7829" lon="9.12887">
        <ele>1088.83</ele>
        <time>2022-04-29T15:15:37Z</time>
      </trkpt>
      <trkpt lat="41.78291" lon="9.12889">
        <ele>1088.35</ele>
        <time>2022-04-29T15:15:38Z</time>
      </trkpt>
      <trkpt lat="41.78292" lon="9.12891">
        <ele>1088.35</ele>
        <time>2022-04-29T15:15:39Z</time>
      </trkpt>
      <trkpt lat="41.78293" lon="9.12894">
        <ele>1086.91</ele>
        <time>2022-04-29T15:15:44Z</time>
      </trkpt>
      <trkpt lat="41.78294" lon="9.12897">
        <ele>1086.91</ele>
        <time>2022-04-29T15:15:45Z</time>
      </trkpt>
      <trkpt lat="41.78295" lon="9.129">
        <ele>1087.39</ele>
        <time>2022-04-29T15:15:46Z</time>
      </trkpt>
      <trkpt lat="41.78296" lon="9.12903">
        <ele>1086.91</ele>
        <time>2022-04-29T15:15:47Z</time>
      </trkpt>
      <trkpt lat="41.78297" lon="9.12906">
        <ele>1086.43</ele>
        <time>2022-04-29T15:15:48Z</time>
      </trkpt>
      <trkpt lat="41.78298" lon="9.12908">
        <ele>1086.43</ele>
        <time>2022-04-29T15:15:49Z</time>
      </trkpt>
      <trkpt lat="41.78299" lon="9.1291">
        <ele>1085.95</ele>
        <time>2022-04-29T15:15:50Z</time>
      </trkpt>
      <trkpt lat="41.78307" lon="9.1292">
        <ele>1085.95</ele>
        <time>2022-04-29T15:16:00Z</time>
      </trkpt>
      <trkpt lat="41.78314" lon="9.12932">
        <ele>1085.95</ele>
        <time>2022-04-29T15:16:11Z</time>
      </trkpt>
      <trkpt lat="41.78322" lon="9.12946">
        <ele>1085.95</ele>
        <time>2022-04-29T15:16:22Z</time>
      </trkpt>
      <trkpt lat="41.78331" lon="9.12959">
        <ele>1085.95</ele>
        <time>2022-04-29T15:16:33Z</time>
      </trkpt>
      <trkpt lat="41.78342" lon="9.1297">
        <ele>1086.91</ele>
        <time>2022-04-29T15:16:44Z</time>
      </trkpt>
      <trkpt lat="41.78344" lon="9.12973">
        <ele>1086.43</ele>
        <time>2022-04-29T15:16:48Z</time>
      </trkpt>
      <trkpt lat="41.78345" lon="9.12974">
        <ele>1086.43</ele>
        <time>2022-04-29T15:16:49Z</time>
      </trkpt>
      <trkpt lat="41.78347" lon="9.12975">
        <ele>1086.91</ele>
        <time>2022-04-29T15:16:50Z</time>
      </trkpt>
      <trkpt lat="41.78348" lon="9.12976">
        <ele>1086.91</ele>
        <time>2022-04-29T15:16:51Z</time>
      </trkpt>
      <trkpt lat="41.78349" lon="9.12977">
        <ele>1086.43</ele>
        <time>2022-04-29T15:16:52Z</time>
      </trkpt>
      <trkpt lat="41.78361" lon="9.12991">
        <ele>1086.43</ele>
        <time>2022-04-29T15:17:04Z</time>
      </trkpt>
      <trkpt lat="41.78357" lon="9.12991">
        <ele>1084.99</ele>
        <time>2022-04-29T15:17:17Z</time>
      </trkpt>
      <trkpt lat="41.78351" lon="9.12995">
        <ele>1084.99</ele>
        <time>2022-04-29T15:17:31Z</time>
      </trkpt>
      <trkpt lat="41.78348" lon="9.12994">
        <ele>1084.5</ele>
        <time>2022-04-29T15:17:36Z</time>
      </trkpt>
      <trkpt lat="41.78347" lon="9.12993">
        <ele>1084.5</ele>
        <time>2022-04-29T15:17:37Z</time>
      </trkpt>
      <trkpt lat="41.78345" lon="9.12992">
        <ele>1084.02</ele>
        <time>2022-04-29T15:17:39Z</time>
      </trkpt>
      <trkpt lat="41.78344" lon="9.12991">
        <ele>1084.02</ele>
        <time>2022-04-29T15:17:40Z</time>
      </trkpt>
      <trkpt lat="41.78342" lon="9.1299">
        <ele>1083.54</ele>
        <time>2022-04-29T15:17:41Z</time>
      </trkpt>
      <trkpt lat="41.78341" lon="9.1299">
        <ele>1083.54</ele>
        <time>2022-04-29T15:17:42Z</time>
      </trkpt>
      <trkpt lat="41.78338" lon="9.1299">
        <ele>1083.54</ele>
        <time>2022-04-29T15:17:43Z</time>
      </trkpt>
      <trkpt lat="41.78336" lon="9.1299">
        <ele>1083.54</ele>
        <time>2022-04-29T15:17:44Z</time>
      </trkpt>
      <trkpt lat="41.78334" lon="9.1299">
        <ele>1083.54</ele>
        <time>2022-04-29T15:17:45Z</time>
      </trkpt>
      <trkpt lat="41.78327" lon="9.12982">
        <ele>1081.62</ele>
        <time>2022-04-29T15:17:58Z</time>
      </trkpt>
      <trkpt lat="41.78312" lon="9.12973">
        <ele>1080.18</ele>
        <time>2022-04-29T15:18:10Z</time>
      </trkpt>
      <trkpt lat="41.78306" lon="9.12972">
        <ele>1077.78</ele>
        <time>2022-04-29T15:18:15Z</time>
      </trkpt>
      <trkpt lat="41.78301" lon="9.12971">
        <ele>1078.26</ele>
        <time>2022-04-29T15:18:18Z</time>
      </trkpt>
      <trkpt lat="41.78285" lon="9.12967">
        <ele>1074.89</ele>
        <time>2022-04-29T15:18:30Z</time>
      </trkpt>
      <trkpt lat="41.7827" lon="9.12966">
        <ele>1072.97</ele>
        <time>2022-04-29T15:18:44Z</time>
      </trkpt>
      <trkpt lat="41.78256" lon="9.12963">
        <ele>1071.05</ele>
        <time>2022-04-29T15:18:58Z</time>
      </trkpt>
      <trkpt lat="41.78243" lon="9.12965">
        <ele>1067.68</ele>
        <time>2022-04-29T15:19:09Z</time>
      </trkpt>
      <trkpt lat="41.7824" lon="9.12964">
        <ele>1067.68</ele>
        <time>2022-04-29T15:19:18Z</time>
      </trkpt>
      <trkpt lat="41.78229" lon="9.1296">
        <ele>1066.24</ele>
        <time>2022-04-29T15:19:36Z</time>
      </trkpt>
      <trkpt lat="41.7822" lon="9.12956">
        <ele>1064.32</ele>
        <time>2022-04-29T15:19:46Z</time>
      </trkpt>
      <trkpt lat="41.78209" lon="9.12951">
        <ele>1061.43</ele>
        <time>2022-04-29T15:19:59Z</time>
      </trkpt>
      <trkpt lat="41.78198" lon="9.12953">
        <ele>1058.55</ele>
        <time>2022-04-29T15:20:12Z</time>
      </trkpt>
      <trkpt lat="41.78194" lon="9.12957">
        <ele>1057.11</ele>
        <time>2022-04-29T15:20:16Z</time>
      </trkpt>
      <trkpt lat="41.78183" lon="9.12955">
        <ele>1054.22</ele>
        <time>2022-04-29T15:20:28Z</time>
      </trkpt>
      <trkpt lat="41.78169" lon="9.12955">
        <ele>1051.34</ele>
        <time>2022-04-29T15:20:42Z</time>
      </trkpt>
      <trkpt lat="41.78157" lon="9.12953">
        <ele>1049.42</ele>
        <time>2022-04-29T15:20:55Z</time>
      </trkpt>
      <trkpt lat="41.78144" lon="9.12953">
        <ele>1047.49</ele>
        <time>2022-04-29T15:21:09Z</time>
      </trkpt>
      <trkpt lat="41.78134" lon="9.12959">
        <ele>1046.05</ele>
        <time>2022-04-29T15:21:24Z</time>
      </trkpt>
      <trkpt lat="41.78127" lon="9.12966">
        <ele>1043.17</ele>
        <time>2022-04-29T15:21:39Z</time>
      </trkpt>
      <trkpt lat="41.78118" lon="9.1297">
        <ele>1039.32</ele>
        <time>2022-04-29T15:21:51Z</time>
      </trkpt>
      <trkpt lat="41.78117" lon="9.12971">
        <ele>1039.32</ele>
        <time>2022-04-29T15:21:52Z</time>
      </trkpt>
      <trkpt lat="41.78113" lon="9.12973">
        <ele>1038.36</ele>
        <time>2022-04-29T15:22:04Z</time>
      </trkpt>
      <trkpt lat="41.78107" lon="9.12984">
        <ele>1035</ele>
        <time>2022-04-29T15:22:17Z</time>
      </trkpt>
      <trkpt lat="41.78103" lon="9.12977">
        <ele>1034.52</ele>
        <time>2022-04-29T15:22:33Z</time>
      </trkpt>
      <trkpt lat="41.78094" lon="9.12975">
        <ele>1030.67</ele>
        <time>2022-04-29T15:22:46Z</time>
      </trkpt>
      <trkpt lat="41.78094" lon="9.12975">
        <ele>1030.67</ele>
        <time>2022-04-29T15:22:47Z</time>
      </trkpt>
      <trkpt lat="41.78085" lon="9.12976">
        <ele>1027.31</ele>
        <time>2022-04-29T15:22:58Z</time>
      </trkpt>
      <trkpt lat="41.78076" lon="9.12972">
        <ele>1025.86</ele>
        <time>2022-04-29T15:23:14Z</time>
      </trkpt>
      <trkpt lat="41.78072" lon="9.12971">
        <ele>1023.94</ele>
        <time>2022-04-29T15:23:19Z</time>
      </trkpt>
      <trkpt lat="41.78064" lon="9.12965">
        <ele>1020.58</ele>
        <time>2022-04-29T15:23:32Z</time>
      </trkpt>
      <trkpt lat="41.78054" lon="9.12956">
        <ele>1017.69</ele>
        <time>2022-04-29T15:23:46Z</time>
      </trkpt>
      <trkpt lat="41.78045" lon="9.12944">
        <ele>1015.29</ele>
        <time>2022-04-29T15:24:01Z</time>
      </trkpt>
      <trkpt lat="41.78037" lon="9.12937">
        <ele>1011.93</ele>
        <time>2022-04-29T15:24:14Z</time>
      </trkpt>
      <trkpt lat="41.7803" lon="9.12927">
        <ele>1009.04</ele>
        <time>2022-04-29T15:24:28Z</time>
      </trkpt>
      <trkpt lat="41.7802" lon="9.12934">
        <ele>1007.12</ele>
        <time>2022-04-29T15:24:41Z</time>
      </trkpt>
      <trkpt lat="41.78014" lon="9.12944">
        <ele>1004.72</ele>
        <time>2022-04-29T15:24:58Z</time>
      </trkpt>
      <trkpt lat="41.78014" lon="9.12955">
        <ele>1002.79</ele>
        <time>2022-04-29T15:25:16Z</time>
      </trkpt>
      <trkpt lat="41.78007" lon="9.12969">
        <ele>1000.39</ele>
        <time>2022-04-29T15:25:31Z</time>
      </trkpt>
      <trkpt lat="41.78003" lon="9.12958">
        <ele>999.43</ele>
        <time>2022-04-29T15:25:45Z</time>
      </trkpt>
      <trkpt lat="41.78002" lon="9.12947">
        <ele>999.43</ele>
        <time>2022-04-29T15:26:05Z</time>
      </trkpt>
      <trkpt lat="41.77997" lon="9.12938">
        <ele>996.54</ele>
        <time>2022-04-29T15:26:18Z</time>
      </trkpt>
      <trkpt lat="41.77991" lon="9.12923">
        <ele>993.18</ele>
        <time>2022-04-29T15:26:34Z</time>
      </trkpt>
      <trkpt lat="41.77975" lon="9.12929">
        <ele>989.81</ele>
        <time>2022-04-29T15:26:54Z</time>
      </trkpt>
      <trkpt lat="41.77975" lon="9.12929">
        <ele>989.81</ele>
        <time>2022-04-29T15:26:55Z</time>
      </trkpt>
      <trkpt lat="41.77957" lon="9.12927">
        <ele>986.45</ele>
        <time>2022-04-29T15:27:15Z</time>
      </trkpt>
      <trkpt lat="41.77953" lon="9.12919">
        <ele>986.45</ele>
        <time>2022-04-29T15:27:31Z</time>
      </trkpt>
      <trkpt lat="41.77937" lon="9.12913">
        <ele>984.53</ele>
        <time>2022-04-29T15:27:46Z</time>
      </trkpt>
      <trkpt lat="41.77923" lon="9.1291">
        <ele>982.6</ele>
        <time>2022-04-29T15:28:02Z</time>
      </trkpt>
      <trkpt lat="41.77915" lon="9.12902">
        <ele>980.2</ele>
        <time>2022-04-29T15:28:17Z</time>
      </trkpt>
      <trkpt lat="41.77917" lon="9.12883">
        <ele>977.32</ele>
        <time>2022-04-29T15:28:31Z</time>
      </trkpt>
      <trkpt lat="41.77913" lon="9.12875">
        <ele>974.43</ele>
        <time>2022-04-29T15:28:47Z</time>
      </trkpt>
      <trkpt lat="41.779" lon="9.1287">
        <ele>970.59</ele>
        <time>2022-04-29T15:29:02Z</time>
      </trkpt>
      <trkpt lat="41.77888" lon="9.12849">
        <ele>968.18</ele>
        <time>2022-04-29T15:29:20Z</time>
      </trkpt>
      <trkpt lat="41.77878" lon="9.12826">
        <ele>964.82</ele>
        <time>2022-04-29T15:29:37Z</time>
      </trkpt>
      <trkpt lat="41.77863" lon="9.1281">
        <ele>962.42</ele>
        <time>2022-04-29T15:29:54Z</time>
      </trkpt>
      <trkpt lat="41.77856" lon="9.12794">
        <ele>959.53</ele>
        <time>2022-04-29T15:30:10Z</time>
      </trkpt>
      <trkpt lat="41.77844" lon="9.12779">
        <ele>956.65</ele>
        <time>2022-04-29T15:30:27Z</time>
      </trkpt>
      <trkpt lat="41.77849" lon="9.12779">
        <ele>954.73</ele>
        <time>2022-04-29T15:30:49Z</time>
      </trkpt>
      <trkpt lat="41.77842" lon="9.12764">
        <ele>951.84</ele>
        <time>2022-04-29T15:31:08Z</time>
      </trkpt>
      <trkpt lat="41.77845" lon="9.12758">
        <ele>948.96</ele>
        <time>2022-04-29T15:31:28Z</time>
      </trkpt>
      <trkpt lat="41.77833" lon="9.12745">
        <ele>946.07</ele>
        <time>2022-04-29T15:31:44Z</time>
      </trkpt>
      <trkpt lat="41.77838" lon="9.1274">
        <ele>945.11</ele>
        <time>2022-04-29T15:31:58Z</time>
      </trkpt>
      <trkpt lat="41.77853" lon="9.12741">
        <ele>944.63</ele>
        <time>2022-04-29T15:32:10Z</time>
      </trkpt>
      <trkpt lat="41.77864" lon="9.12742">
        <ele>943.67</ele>
        <time>2022-04-29T15:32:23Z</time>
      </trkpt>
      <trkpt lat="41.77865" lon="9.12741">
        <ele>943.19</ele>
        <time>2022-04-29T15:32:24Z</time>
      </trkpt>
      <trkpt lat="41.77859" lon="9.12731">
        <ele>940.31</ele>
        <time>2022-04-29T15:32:35Z</time>
      </trkpt>
      <trkpt lat="41.77851" lon="9.12721">
        <ele>938.86</ele>
        <time>2022-04-29T15:32:48Z</time>
      </trkpt>
      <trkpt lat="41.77836" lon="9.12713">
        <ele>936.46</ele>
        <time>2022-04-29T15:33:03Z</time>
      </trkpt>
      <trkpt lat="41.77838" lon="9.12714">
        <ele>936.46</ele>
        <time>2022-04-29T15:33:16Z</time>
      </trkpt>
      <trkpt lat="41.77837" lon="9.1271">
        <ele>935.5</ele>
        <time>2022-04-29T15:33:23Z</time>
      </trkpt>
      <trkpt lat="41.7783" lon="9.12705">
        <ele>931.65</ele>
        <time>2022-04-29T15:33:32Z</time>
      </trkpt>
      <trkpt lat="41.77818" lon="9.12687">
        <ele>928.29</ele>
        <time>2022-04-29T15:33:44Z</time>
      </trkpt>
      <trkpt lat="41.77813" lon="9.1268">
        <ele>927.33</ele>
        <time>2022-04-29T15:33:56Z</time>
      </trkpt>
      <trkpt lat="41.77811" lon="9.12679">
        <ele>925.89</ele>
        <time>2022-04-29T15:33:58Z</time>
      </trkpt>
      <trkpt lat="41.77809" lon="9.12677">
        <ele>926.85</ele>
        <time>2022-04-29T15:34:00Z</time>
      </trkpt>
      <trkpt lat="41.7779" lon="9.12658">
        <ele>923.96</ele>
        <time>2022-04-29T15:34:18Z</time>
      </trkpt>
      <trkpt lat="41.77777" lon="9.12645">
        <ele>920.6</ele>
        <time>2022-04-29T15:34:32Z</time>
      </trkpt>
      <trkpt lat="41.77755" lon="9.12633">
        <ele>917.24</ele>
        <time>2022-04-29T15:34:47Z</time>
      </trkpt>
      <trkpt lat="41.77739" lon="9.1263">
        <ele>917.72</ele>
        <time>2022-04-29T15:35:01Z</time>
      </trkpt>
      <trkpt lat="41.77729" lon="9.1263">
        <ele>915.79</ele>
        <time>2022-04-29T15:35:16Z</time>
      </trkpt>
      <trkpt lat="41.77713" lon="9.12624">
        <ele>912.43</ele>
        <time>2022-04-29T15:35:32Z</time>
      </trkpt>
      <trkpt lat="41.77699" lon="9.12623">
        <ele>910.51</ele>
        <time>2022-04-29T15:35:55Z</time>
      </trkpt>
      <trkpt lat="41.77682" lon="9.12618">
        <ele>908.58</ele>
        <time>2022-04-29T15:36:08Z</time>
      </trkpt>
      <trkpt lat="41.77662" lon="9.12619">
        <ele>906.66</ele>
        <time>2022-04-29T15:36:25Z</time>
      </trkpt>
      <trkpt lat="41.77642" lon="9.12613">
        <ele>904.26</ele>
        <time>2022-04-29T15:36:42Z</time>
      </trkpt>
      <trkpt lat="41.77626" lon="9.12606">
        <ele>901.37</ele>
        <time>2022-04-29T15:36:58Z</time>
      </trkpt>
      <trkpt lat="41.77613" lon="9.12608">
        <ele>899.45</ele>
        <time>2022-04-29T15:37:11Z</time>
      </trkpt>
      <trkpt lat="41.77608" lon="9.12603">
        <ele>896.57</ele>
        <time>2022-04-29T15:37:26Z</time>
      </trkpt>
      <trkpt lat="41.776" lon="9.126">
        <ele>893.68</ele>
        <time>2022-04-29T15:37:42Z</time>
      </trkpt>
      <trkpt lat="41.77586" lon="9.12603">
        <ele>890.8</ele>
        <time>2022-04-29T15:37:57Z</time>
      </trkpt>
      <trkpt lat="41.77588" lon="9.12595">
        <ele>888.88</ele>
        <time>2022-04-29T15:38:11Z</time>
      </trkpt>
      <trkpt lat="41.77595" lon="9.12585">
        <ele>886.47</ele>
        <time>2022-04-29T15:38:23Z</time>
      </trkpt>
      <trkpt lat="41.77593" lon="9.12579">
        <ele>884.07</ele>
        <time>2022-04-29T15:38:36Z</time>
      </trkpt>
      <trkpt lat="41.77578" lon="9.12582">
        <ele>882.15</ele>
        <time>2022-04-29T15:38:54Z</time>
      </trkpt>
      <trkpt lat="41.77566" lon="9.12587">
        <ele>879.74</ele>
        <time>2022-04-29T15:39:13Z</time>
      </trkpt>
      <trkpt lat="41.77558" lon="9.1259">
        <ele>877.82</ele>
        <time>2022-04-29T15:39:31Z</time>
      </trkpt>
      <trkpt lat="41.77551" lon="9.12594">
        <ele>875.9</ele>
        <time>2022-04-29T15:39:52Z</time>
      </trkpt>
      <trkpt lat="41.77541" lon="9.126">
        <ele>872.53</ele>
        <time>2022-04-29T15:40:05Z</time>
      </trkpt>
      <trkpt lat="41.77527" lon="9.12614">
        <ele>871.57</ele>
        <time>2022-04-29T15:40:20Z</time>
      </trkpt>
      <trkpt lat="41.7751" lon="9.12629">
        <ele>869.65</ele>
        <time>2022-04-29T15:40:35Z</time>
      </trkpt>
      <trkpt lat="41.77498" lon="9.12636">
        <ele>867.25</ele>
        <time>2022-04-29T15:40:49Z</time>
      </trkpt>
      <trkpt lat="41.77484" lon="9.12648">
        <ele>865.8</ele>
        <time>2022-04-29T15:41:06Z</time>
      </trkpt>
      <trkpt lat="41.77465" lon="9.12647">
        <ele>862.92</ele>
        <time>2022-04-29T15:41:21Z</time>
      </trkpt>
      <trkpt lat="41.77447" lon="9.12648">
        <ele>861.48</ele>
        <time>2022-04-29T15:41:36Z</time>
      </trkpt>
      <trkpt lat="41.77432" lon="9.12654">
        <ele>859.08</ele>
        <time>2022-04-29T15:41:50Z</time>
      </trkpt>
      <trkpt lat="41.77426" lon="9.12655">
        <ele>858.11</ele>
        <time>2022-04-29T15:41:55Z</time>
      </trkpt>
      <trkpt lat="41.77412" lon="9.12665">
        <ele>854.75</ele>
        <time>2022-04-29T15:42:10Z</time>
      </trkpt>
      <trkpt lat="41.77401" lon="9.1268">
        <ele>853.31</ele>
        <time>2022-04-29T15:42:26Z</time>
      </trkpt>
      <trkpt lat="41.77388" lon="9.12689">
        <ele>851.38</ele>
        <time>2022-04-29T15:42:40Z</time>
      </trkpt>
      <trkpt lat="41.77379" lon="9.12694">
        <ele>851.87</ele>
        <time>2022-04-29T15:42:55Z</time>
      </trkpt>
      <trkpt lat="41.77372" lon="9.12696">
        <ele>853.31</ele>
        <time>2022-04-29T15:43:12Z</time>
      </trkpt>
      <trkpt lat="41.77368" lon="9.12699">
        <ele>853.31</ele>
        <time>2022-04-29T15:43:27Z</time>
      </trkpt>
      <trkpt lat="41.77356" lon="9.12698">
        <ele>850.9</ele>
        <time>2022-04-29T15:43:41Z</time>
      </trkpt>
      <trkpt lat="41.7735" lon="9.12713">
        <ele>848.98</ele>
        <time>2022-04-29T15:43:55Z</time>
      </trkpt>
      <trkpt lat="41.77349" lon="9.12715">
        <ele>848.98</ele>
        <time>2022-04-29T15:43:57Z</time>
      </trkpt>
      <trkpt lat="41.77343" lon="9.1273">
        <ele>845.62</ele>
        <time>2022-04-29T15:44:10Z</time>
      </trkpt>
      <trkpt lat="41.77342" lon="9.12746">
        <ele>845.14</ele>
        <time>2022-04-29T15:44:25Z</time>
      </trkpt>
      <trkpt lat="41.77339" lon="9.12753">
        <ele>843.21</ele>
        <time>2022-04-29T15:44:30Z</time>
      </trkpt>
      <trkpt lat="41.7733" lon="9.12767">
        <ele>841.29</ele>
        <time>2022-04-29T15:44:46Z</time>
      </trkpt>
      <trkpt lat="41.77332" lon="9.12776">
        <ele>841.29</ele>
        <time>2022-04-29T15:45:06Z</time>
      </trkpt>
      <trkpt lat="41.77337" lon="9.12771">
        <ele>840.81</ele>
        <time>2022-04-29T15:45:36Z</time>
      </trkpt>
      <trkpt lat="41.77324" lon="9.12782">
        <ele>839.37</ele>
        <time>2022-04-29T15:45:51Z</time>
      </trkpt>
      <trkpt lat="41.77318" lon="9.12789">
        <ele>836.48</ele>
        <time>2022-04-29T15:45:59Z</time>
      </trkpt>
      <trkpt lat="41.77316" lon="9.12792">
        <ele>835.04</ele>
        <time>2022-04-29T15:46:01Z</time>
      </trkpt>
      <trkpt lat="41.7731" lon="9.1281">
        <ele>832.64</ele>
        <time>2022-04-29T15:46:18Z</time>
      </trkpt>
      <trkpt lat="41.77298" lon="9.12812">
        <ele>832.16</ele>
        <time>2022-04-29T15:46:33Z</time>
      </trkpt>
      <trkpt lat="41.77301" lon="9.12807">
        <ele>832.64</ele>
        <time>2022-04-29T15:47:09Z</time>
      </trkpt>
      <trkpt lat="41.77306" lon="9.12808">
        <ele>832.64</ele>
        <time>2022-04-29T15:47:39Z</time>
      </trkpt>
      <trkpt lat="41.77308" lon="9.12807">
        <ele>832.64</ele>
        <time>2022-04-29T15:48:14Z</time>
      </trkpt>
      <trkpt lat="41.77299" lon="9.12819">
        <ele>832.64</ele>
        <time>2022-04-29T15:48:32Z</time>
      </trkpt>
      <trkpt lat="41.773" lon="9.12822">
        <ele>832.64</ele>
        <time>2022-04-29T15:48:49Z</time>
      </trkpt>
      <trkpt lat="41.77297" lon="9.12836">
        <ele>829.76</ele>
        <time>2022-04-29T15:49:16Z</time>
      </trkpt>
      <trkpt lat="41.77295" lon="9.12856">
        <ele>827.35</ele>
        <time>2022-04-29T15:49:30Z</time>
      </trkpt>
      <trkpt lat="41.77289" lon="9.12873">
        <ele>823.99</ele>
        <time>2022-04-29T15:49:42Z</time>
      </trkpt>
      <trkpt lat="41.77279" lon="9.12892">
        <ele>821.58</ele>
        <time>2022-04-29T15:49:59Z</time>
      </trkpt>
      <trkpt lat="41.77276" lon="9.1291">
        <ele>818.7</ele>
        <time>2022-04-29T15:50:14Z</time>
      </trkpt>
      <trkpt lat="41.77271" lon="9.12934">
        <ele>816.78</ele>
        <time>2022-04-29T15:50:33Z</time>
      </trkpt>
      <trkpt lat="41.77265" lon="9.1295">
        <ele>813.41</ele>
        <time>2022-04-29T15:50:46Z</time>
      </trkpt>
      <trkpt lat="41.77261" lon="9.12961">
        <ele>811.01</ele>
        <time>2022-04-29T15:50:55Z</time>
      </trkpt>
      <trkpt lat="41.77257" lon="9.12985">
        <ele>808.61</ele>
        <time>2022-04-29T15:51:11Z</time>
      </trkpt>
      <trkpt lat="41.77248" lon="9.13002">
        <ele>806.68</ele>
        <time>2022-04-29T15:51:25Z</time>
      </trkpt>
      <trkpt lat="41.77241" lon="9.13025">
        <ele>805.72</ele>
        <time>2022-04-29T15:51:40Z</time>
      </trkpt>
      <trkpt lat="41.77238" lon="9.13031">
        <ele>803.32</ele>
        <time>2022-04-29T15:51:47Z</time>
      </trkpt>
      <trkpt lat="41.77231" lon="9.13047">
        <ele>799.95</ele>
        <time>2022-04-29T15:52:02Z</time>
      </trkpt>
      <trkpt lat="41.77229" lon="9.13052">
        <ele>799.95</ele>
        <time>2022-04-29T15:52:20Z</time>
      </trkpt>
      <trkpt lat="41.77226" lon="9.13063">
        <ele>799.47</ele>
        <time>2022-04-29T15:52:54Z</time>
      </trkpt>
      <trkpt lat="41.77217" lon="9.1308">
        <ele>797.07</ele>
        <time>2022-04-29T15:53:07Z</time>
      </trkpt>
      <trkpt lat="41.7721" lon="9.131">
        <ele>795.15</ele>
        <time>2022-04-29T15:53:20Z</time>
      </trkpt>
      <trkpt lat="41.77207" lon="9.13111">
        <ele>793.71</ele>
        <time>2022-04-29T15:53:28Z</time>
      </trkpt>
      <trkpt lat="41.77202" lon="9.13123">
        <ele>790.82</ele>
        <time>2022-04-29T15:53:40Z</time>
      </trkpt>
      <trkpt lat="41.77188" lon="9.13122">
        <ele>787.94</ele>
        <time>2022-04-29T15:53:54Z</time>
      </trkpt>
      <trkpt lat="41.77175" lon="9.13131">
        <ele>785.53</ele>
        <time>2022-04-29T15:54:13Z</time>
      </trkpt>
      <trkpt lat="41.77164" lon="9.1313">
        <ele>784.09</ele>
        <time>2022-04-29T15:54:26Z</time>
      </trkpt>
      <trkpt lat="41.7714" lon="9.13126">
        <ele>780.73</ele>
        <time>2022-04-29T15:54:42Z</time>
      </trkpt>
      <trkpt lat="41.77125" lon="9.13124">
        <ele>780.73</ele>
        <time>2022-04-29T15:54:59Z</time>
      </trkpt>
      <trkpt lat="41.77112" lon="9.1312">
        <ele>780.73</ele>
        <time>2022-04-29T15:55:18Z</time>
      </trkpt>
      <trkpt lat="41.77099" lon="9.13117">
        <ele>779.29</ele>
        <time>2022-04-29T15:55:32Z</time>
      </trkpt>
      <trkpt lat="41.77083" lon="9.13114">
        <ele>777.84</ele>
        <time>2022-04-29T15:55:49Z</time>
      </trkpt>
      <trkpt lat="41.77084" lon="9.1311">
        <ele>776.88</ele>
        <time>2022-04-29T15:57:14Z</time>
      </trkpt>
      <trkpt lat="41.77085" lon="9.13117">
        <ele>778.32</ele>
        <time>2022-04-29T15:57:20Z</time>
      </trkpt>
      <trkpt lat="41.77088" lon="9.13136">
        <ele>776.88</ele>
        <time>2022-04-29T15:57:34Z</time>
      </trkpt>
      <trkpt lat="41.7709" lon="9.13141">
        <ele>776.4</ele>
        <time>2022-04-29T15:57:39Z</time>
      </trkpt>
      <trkpt lat="41.7709" lon="9.13144">
        <ele>775.44</ele>
        <time>2022-04-29T15:57:57Z</time>
      </trkpt>
      <trkpt lat="41.77092" lon="9.13154">
        <ele>775.44</ele>
        <time>2022-04-29T15:58:08Z</time>
      </trkpt>
      <trkpt lat="41.77096" lon="9.1317">
        <ele>774.96</ele>
        <time>2022-04-29T15:58:18Z</time>
      </trkpt>
      <trkpt lat="41.77096" lon="9.13192">
        <ele>774.48</ele>
        <time>2022-04-29T15:58:34Z</time>
      </trkpt>
      <trkpt lat="41.77083" lon="9.13209">
        <ele>775.92</ele>
        <time>2022-04-29T15:58:57Z</time>
      </trkpt>
      <trkpt lat="41.77072" lon="9.13201">
        <ele>775.44</ele>
        <time>2022-04-29T15:59:13Z</time>
      </trkpt>
      <trkpt lat="41.77068" lon="9.13198">
        <ele>774.96</ele>
        <time>2022-04-29T15:59:16Z</time>
      </trkpt>
      <trkpt lat="41.77062" lon="9.13191">
        <ele>774.48</ele>
        <time>2022-04-29T15:59:21Z</time>
      </trkpt>
      <trkpt lat="41.77045" lon="9.13173">
        <ele>773.04</ele>
        <time>2022-04-29T15:59:37Z</time>
      </trkpt>
      <trkpt lat="41.77037" lon="9.13166">
        <ele>773.52</ele>
        <time>2022-04-29T15:59:43Z</time>
      </trkpt>
      <trkpt lat="41.77029" lon="9.13158">
        <ele>773.52</ele>
        <time>2022-04-29T15:59:49Z</time>
      </trkpt>
      <trkpt lat="41.77025" lon="9.13155">
        <ele>773.04</ele>
        <time>2022-04-29T15:59:53Z</time>
      </trkpt>
      <trkpt lat="41.77018" lon="9.13151">
        <ele>773.04</ele>
        <time>2022-04-29T15:59:59Z</time>
      </trkpt>
      <trkpt lat="41.77016" lon="9.13151">
        <ele>773.52</ele>
        <time>2022-04-29T16:00:00Z</time>
      </trkpt>
      <trkpt lat="41.77015" lon="9.13151">
        <ele>773.52</ele>
        <time>2022-04-29T16:00:01Z</time>
      </trkpt>
      <trkpt lat="41.77014" lon="9.13151">
        <ele>773.52</ele>
        <time>2022-04-29T16:00:02Z</time>
      </trkpt>
      <trkpt lat="41.77012" lon="9.1315">
        <ele>773.52</ele>
        <time>2022-04-29T16:00:03Z</time>
      </trkpt>
      <trkpt lat="41.77001" lon="9.13144">
        <ele>774.48</ele>
        <time>2022-04-29T16:00:16Z</time>
      </trkpt>
      <trkpt lat="41.77002" lon="9.13141">
        <ele>771.6</ele>
        <time>2022-04-29T16:00:25Z</time>
      </trkpt>
      <trkpt lat="41.77002" lon="9.1314">
        <ele>771.6</ele>
        <time>2022-04-29T16:00:26Z</time>
      </trkpt>
      <trkpt lat="41.77007" lon="9.13126">
        <ele>768.71</ele>
        <time>2022-04-29T16:01:39Z</time>
      </trkpt>
      <trkpt lat="41.77007" lon="9.13128">
        <ele>769.19</ele>
        <time>2022-04-29T16:01:40Z</time>
      </trkpt>
      <trkpt lat="41.77007" lon="9.1313">
        <ele>770.15</ele>
        <time>2022-04-29T16:01:41Z</time>
      </trkpt>
      <trkpt lat="41.77008" lon="9.13132">
        <ele>769.67</ele>
        <time>2022-04-29T16:01:42Z</time>
      </trkpt>
      <trkpt lat="41.77005" lon="9.13138">
        <ele>772.56</ele>
        <time>2022-04-29T16:01:53Z</time>
      </trkpt>
      <trkpt lat="41.76999" lon="9.13142">
        <ele>773.52</ele>
        <time>2022-04-29T16:01:58Z</time>
      </trkpt>
      <trkpt lat="41.76988" lon="9.13139">
        <ele>774.96</ele>
        <time>2022-04-29T16:02:07Z</time>
      </trkpt>
      <trkpt lat="41.76965" lon="9.13136">
        <ele>775.44</ele>
        <time>2022-04-29T16:02:25Z</time>
      </trkpt>
      <trkpt lat="41.76949" lon="9.13147">
        <ele>775.92</ele>
        <time>2022-04-29T16:02:35Z</time>
      </trkpt>
      <trkpt lat="41.7694" lon="9.13149">
        <ele>776.4</ele>
        <time>2022-04-29T16:02:47Z</time>
      </trkpt>
      <trkpt lat="41.76939" lon="9.1315">
        <ele>776.88</ele>
        <time>2022-04-29T16:02:48Z</time>
      </trkpt>
      <trkpt lat="41.76926" lon="9.13164">
        <ele>777.84</ele>
        <time>2022-04-29T16:03:03Z</time>
      </trkpt>
      <trkpt lat="41.7691" lon="9.13175">
        <ele>779.29</ele>
        <time>2022-04-29T16:03:15Z</time>
      </trkpt>
      <trkpt lat="41.76901" lon="9.1318">
        <ele>780.25</ele>
        <time>2022-04-29T16:03:22Z</time>
      </trkpt>
      <trkpt lat="41.76896" lon="9.13187">
        <ele>781.21</ele>
        <time>2022-04-29T16:03:27Z</time>
      </trkpt>
      <trkpt lat="41.76882" lon="9.13207">
        <ele>783.13</ele>
        <time>2022-04-29T16:03:42Z</time>
      </trkpt>
      <trkpt lat="41.76873" lon="9.13229">
        <ele>784.57</ele>
        <time>2022-04-29T16:03:57Z</time>
      </trkpt>
      <trkpt lat="41.76865" lon="9.13245">
        <ele>786.5</ele>
        <time>2022-04-29T16:04:11Z</time>
      </trkpt>
      <trkpt lat="41.76849" lon="9.13251">
        <ele>787.94</ele>
        <time>2022-04-29T16:04:21Z</time>
      </trkpt>
      <trkpt lat="41.76839" lon="9.13256">
        <ele>789.86</ele>
        <time>2022-04-29T16:04:30Z</time>
      </trkpt>
      <trkpt lat="41.76838" lon="9.13257">
        <ele>789.86</ele>
        <time>2022-04-29T16:04:31Z</time>
      </trkpt>
      <trkpt lat="41.76825" lon="9.13262">
        <ele>790.34</ele>
        <time>2022-04-29T16:04:42Z</time>
      </trkpt>
      <trkpt lat="41.76824" lon="9.13264">
        <ele>790.82</ele>
        <time>2022-04-29T16:04:43Z</time>
      </trkpt>
      <trkpt lat="41.76822" lon="9.13266">
        <ele>790.34</ele>
        <time>2022-04-29T16:04:44Z</time>
      </trkpt>
      <trkpt lat="41.76812" lon="9.13274">
        <ele>790.82</ele>
        <time>2022-04-29T16:04:51Z</time>
      </trkpt>
      <trkpt lat="41.76807" lon="9.13279">
        <ele>791.3</ele>
        <time>2022-04-29T16:04:55Z</time>
      </trkpt>
      <trkpt lat="41.76805" lon="9.13281">
        <ele>791.78</ele>
        <time>2022-04-29T16:04:56Z</time>
      </trkpt>
      <trkpt lat="41.76804" lon="9.13282">
        <ele>791.3</ele>
        <time>2022-04-29T16:04:57Z</time>
      </trkpt>
      <trkpt lat="41.76784" lon="9.13308">
        <ele>793.22</ele>
        <time>2022-04-29T16:05:15Z</time>
      </trkpt>
      <trkpt lat="41.76769" lon="9.1333">
        <ele>794.67</ele>
        <time>2022-04-29T16:05:31Z</time>
      </trkpt>
      <trkpt lat="41.76766" lon="9.13333">
        <ele>796.11</ele>
        <time>2022-04-29T16:05:34Z</time>
      </trkpt>
      <trkpt lat="41.76744" lon="9.13351">
        <ele>798.03</ele>
        <time>2022-04-29T16:05:53Z</time>
      </trkpt>
      <trkpt lat="41.76724" lon="9.13376">
        <ele>798.99</ele>
        <time>2022-04-29T16:06:12Z</time>
      </trkpt>
      <trkpt lat="41.76706" lon="9.13401">
        <ele>799.95</ele>
        <time>2022-04-29T16:06:30Z</time>
      </trkpt>
      <trkpt lat="41.7669" lon="9.13427">
        <ele>801.88</ele>
        <time>2022-04-29T16:06:49Z</time>
      </trkpt>
      <trkpt lat="41.76674" lon="9.13444">
        <ele>804.28</ele>
        <time>2022-04-29T16:07:06Z</time>
      </trkpt>
      <trkpt lat="41.76663" lon="9.1345">
        <ele>805.72</ele>
        <time>2022-04-29T16:07:17Z</time>
      </trkpt>
      <trkpt lat="41.76646" lon="9.1346">
        <ele>807.16</ele>
        <time>2022-04-29T16:07:33Z</time>
      </trkpt>
      <trkpt lat="41.76642" lon="9.13463">
        <ele>808.13</ele>
        <time>2022-04-29T16:07:36Z</time>
      </trkpt>
      <trkpt lat="41.7664" lon="9.13464">
        <ele>808.13</ele>
        <time>2022-04-29T16:07:37Z</time>
      </trkpt>
      <trkpt lat="41.76625" lon="9.13469">
        <ele>809.09</ele>
        <time>2022-04-29T16:07:47Z</time>
      </trkpt>
      <trkpt lat="41.7661" lon="9.1348">
        <ele>811.01</ele>
        <time>2022-04-29T16:08:02Z</time>
      </trkpt>
      <trkpt lat="41.76593" lon="9.13493">
        <ele>812.45</ele>
        <time>2022-04-29T16:08:17Z</time>
      </trkpt>
      <trkpt lat="41.7659" lon="9.13496">
        <ele>814.37</ele>
        <time>2022-04-29T16:08:21Z</time>
      </trkpt>
      <trkpt lat="41.76589" lon="9.13497">
        <ele>813.41</ele>
        <time>2022-04-29T16:08:22Z</time>
      </trkpt>
      <trkpt lat="41.76574" lon="9.13505">
        <ele>811.97</ele>
        <time>2022-04-29T16:08:38Z</time>
      </trkpt>
      <trkpt lat="41.76573" lon="9.13506">
        <ele>811.97</ele>
        <time>2022-04-29T16:08:39Z</time>
      </trkpt>
      <trkpt lat="41.76572" lon="9.13508">
        <ele>811.97</ele>
        <time>2022-04-29T16:08:40Z</time>
      </trkpt>
      <trkpt lat="41.76565" lon="9.13524">
        <ele>810.53</ele>
        <time>2022-04-29T16:08:50Z</time>
      </trkpt>
      <trkpt lat="41.76555" lon="9.13557">
        <ele>808.61</ele>
        <time>2022-04-29T16:09:06Z</time>
      </trkpt>
      <trkpt lat="41.76554" lon="9.13572">
        <ele>807.64</ele>
        <time>2022-04-29T16:09:19Z</time>
      </trkpt>
      <trkpt lat="41.76554" lon="9.13574">
        <ele>807.64</ele>
        <time>2022-04-29T16:09:20Z</time>
      </trkpt>
      <trkpt lat="41.76554" lon="9.13576">
        <ele>807.64</ele>
        <time>2022-04-29T16:09:21Z</time>
      </trkpt>
      <trkpt lat="41.76554" lon="9.13578">
        <ele>807.64</ele>
        <time>2022-04-29T16:09:22Z</time>
      </trkpt>
      <trkpt lat="41.76554" lon="9.1358">
        <ele>807.64</ele>
        <time>2022-04-29T16:09:23Z</time>
      </trkpt>
      <trkpt lat="41.7656" lon="9.1361">
        <ele>807.16</ele>
        <time>2022-04-29T16:09:35Z</time>
      </trkpt>
      <trkpt lat="41.76559" lon="9.13613">
        <ele>806.68</ele>
        <time>2022-04-29T16:09:37Z</time>
      </trkpt>
      <trkpt lat="41.76567" lon="9.13644">
        <ele>806.68</ele>
        <time>2022-04-29T16:09:51Z</time>
      </trkpt>
      <trkpt lat="41.76569" lon="9.13648">
        <ele>805.72</ele>
        <time>2022-04-29T16:09:53Z</time>
      </trkpt>
      <trkpt lat="41.76565" lon="9.13658">
        <ele>804.76</ele>
        <time>2022-04-29T16:10:05Z</time>
      </trkpt>
      <trkpt lat="41.76564" lon="9.13676">
        <ele>804.28</ele>
        <time>2022-04-29T16:10:16Z</time>
      </trkpt>
      <trkpt lat="41.76565" lon="9.13679">
        <ele>805.24</ele>
        <time>2022-04-29T16:10:34Z</time>
      </trkpt>
      <trkpt lat="41.76571" lon="9.13702">
        <ele>804.28</ele>
        <time>2022-04-29T16:10:54Z</time>
      </trkpt>
      <trkpt lat="41.7657" lon="9.13726">
        <ele>802.36</ele>
        <time>2022-04-29T16:11:10Z</time>
      </trkpt>
      <trkpt lat="41.76571" lon="9.13728">
        <ele>802.84</ele>
        <time>2022-04-29T16:11:11Z</time>
      </trkpt>
      <trkpt lat="41.7657" lon="9.1373">
        <ele>802.84</ele>
        <time>2022-04-29T16:11:12Z</time>
      </trkpt>
      <trkpt lat="41.7657" lon="9.13732">
        <ele>802.84</ele>
        <time>2022-04-29T16:11:13Z</time>
      </trkpt>
      <trkpt lat="41.7657" lon="9.13734">
        <ele>802.84</ele>
        <time>2022-04-29T16:11:14Z</time>
      </trkpt>
      <trkpt lat="41.76571" lon="9.13736">
        <ele>802.36</ele>
        <time>2022-04-29T16:11:15Z</time>
      </trkpt>
      <trkpt lat="41.7657" lon="9.13737">
        <ele>802.84</ele>
        <time>2022-04-29T16:11:16Z</time>
      </trkpt>
      <trkpt lat="41.7657" lon="9.13754">
        <ele>801.88</ele>
        <time>2022-04-29T16:11:30Z</time>
      </trkpt>
      <trkpt lat="41.76572" lon="9.13766">
        <ele>801.4</ele>
        <time>2022-04-29T16:11:46Z</time>
      </trkpt>
      <trkpt lat="41.76576" lon="9.13764">
        <ele>800.92</ele>
        <time>2022-04-29T16:12:04Z</time>
      </trkpt>
      <trkpt lat="41.76569" lon="9.1378">
        <ele>801.4</ele>
        <time>2022-04-29T16:12:20Z</time>
      </trkpt>
      <trkpt lat="41.76574" lon="9.13796">
        <ele>801.4</ele>
        <time>2022-04-29T16:12:35Z</time>
      </trkpt>
      <trkpt lat="41.76573" lon="9.13798">
        <ele>801.88</ele>
        <time>2022-04-29T16:12:49Z</time>
      </trkpt>
      <trkpt lat="41.76581" lon="9.13808">
        <ele>801.88</ele>
        <time>2022-04-29T16:13:04Z</time>
      </trkpt>
      <trkpt lat="41.76579" lon="9.13803">
        <ele>801.88</ele>
        <time>2022-04-29T16:13:23Z</time>
      </trkpt>
      <trkpt lat="41.76577" lon="9.13801">
        <ele>801.88</ele>
        <time>2022-04-29T16:13:49Z</time>
      </trkpt>
      <trkpt lat="41.76576" lon="9.13805">
        <ele>802.36</ele>
        <time>2022-04-29T16:13:51Z</time>
      </trkpt>
      <trkpt lat="41.76585" lon="9.13818">
        <ele>801.88</ele>
        <time>2022-04-29T16:14:03Z</time>
      </trkpt>
      <trkpt lat="41.76589" lon="9.13833">
        <ele>801.88</ele>
        <time>2022-04-29T16:14:15Z</time>
      </trkpt>
      <trkpt lat="41.76591" lon="9.13837">
        <ele>802.36</ele>
        <time>2022-04-29T16:14:18Z</time>
      </trkpt>
      <trkpt lat="41.76592" lon="9.13838">
        <ele>802.36</ele>
        <time>2022-04-29T16:14:19Z</time>
      </trkpt>
      <trkpt lat="41.76599" lon="9.13852">
        <ele>802.84</ele>
        <time>2022-04-29T16:14:33Z</time>
      </trkpt>
      <trkpt lat="41.766" lon="9.13855">
        <ele>802.84</ele>
        <time>2022-04-29T16:14:38Z</time>
      </trkpt>
      <trkpt lat="41.766" lon="9.13857">
        <ele>802.84</ele>
        <time>2022-04-29T16:14:39Z</time>
      </trkpt>
      <trkpt lat="41.766" lon="9.1386">
        <ele>802.84</ele>
        <time>2022-04-29T16:14:40Z</time>
      </trkpt>
      <trkpt lat="41.766" lon="9.13876">
        <ele>803.32</ele>
        <time>2022-04-29T16:14:52Z</time>
      </trkpt>
      <trkpt lat="41.76601" lon="9.13884">
        <ele>807.16</ele>
        <time>2022-04-29T16:14:59Z</time>
      </trkpt>
      <trkpt lat="41.76597" lon="9.13904">
        <ele>805.24</ele>
        <time>2022-04-29T16:15:13Z</time>
      </trkpt>
      <trkpt lat="41.76597" lon="9.13925">
        <ele>806.2</ele>
        <time>2022-04-29T16:15:29Z</time>
      </trkpt>
      <trkpt lat="41.76599" lon="9.13945">
        <ele>807.16</ele>
        <time>2022-04-29T16:15:42Z</time>
      </trkpt>
      <trkpt lat="41.76602" lon="9.13951">
        <ele>806.68</ele>
        <time>2022-04-29T16:15:56Z</time>
      </trkpt>
      <trkpt lat="41.76602" lon="9.13952">
        <ele>807.64</ele>
        <time>2022-04-29T16:16:18Z</time>
      </trkpt>
      <trkpt lat="41.76601" lon="9.13952">
        <ele>807.16</ele>
        <time>2022-04-29T16:16:31Z</time>
      </trkpt>
      <trkpt lat="41.766" lon="9.13953">
        <ele>807.64</ele>
        <time>2022-04-29T16:16:50Z</time>
      </trkpt>
      <trkpt lat="41.76599" lon="9.13968">
        <ele>808.13</ele>
        <time>2022-04-29T16:17:07Z</time>
      </trkpt>
      <trkpt lat="41.76605" lon="9.1399">
        <ele>809.09</ele>
        <time>2022-04-29T16:17:18Z</time>
      </trkpt>
      <trkpt lat="41.76605" lon="9.13991">
        <ele>809.09</ele>
        <time>2022-04-29T16:17:19Z</time>
      </trkpt>
      <trkpt lat="41.76606" lon="9.13993">
        <ele>809.09</ele>
        <time>2022-04-29T16:17:20Z</time>
      </trkpt>
      <trkpt lat="41.76615" lon="9.14011">
        <ele>809.57</ele>
        <time>2022-04-29T16:17:34Z</time>
      </trkpt>
      <trkpt lat="41.76618" lon="9.14016">
        <ele>810.05</ele>
        <time>2022-04-29T16:17:39Z</time>
      </trkpt>
      <trkpt lat="41.76619" lon="9.14017">
        <ele>810.05</ele>
        <time>2022-04-29T16:17:40Z</time>
      </trkpt>
      <trkpt lat="41.76628" lon="9.14035">
        <ele>811.01</ele>
        <time>2022-04-29T16:17:55Z</time>
      </trkpt>
      <trkpt lat="41.76636" lon="9.14054">
        <ele>811.97</ele>
        <time>2022-04-29T16:18:08Z</time>
      </trkpt>
      <trkpt lat="41.76642" lon="9.14068">
        <ele>812.93</ele>
        <time>2022-04-29T16:18:18Z</time>
      </trkpt>
      <trkpt lat="41.76645" lon="9.14078">
        <ele>813.41</ele>
        <time>2022-04-29T16:18:32Z</time>
      </trkpt>
    </trkseg>
  </trk>
</gpx>